<?xml version="1.0" encoding="UTF-8" standalone="no" ?>
<gpx xmlns="http://www.topografix.com/GPX/1/1" xmlns:xsi="http://www.w3.org/2001/XMLSchema-instance" xsi:schemaLocation="http://www.topografix.com/GPX/1/1 http://www.topografix.com/GPX/1/1/gpx.xsd" version="1.1" creator="VisuGPX - https://www.visugpx.com">
  <metadata>
    <name>2023-04-17-46-Limogne-Roquecave</name>
    <desc><![CDATA[Circuit de 22 km pour environ 400m de dénivelé positif. Un énorme patrimoine à voir sur ce circuit sans véritable difficulté. Dolmen, fontaines, lavoirs et toutes les cabanes ou gariottes seront au rendez vous de cette marche. A ne pas manquer le dernier petit circuit de 3 km qui recense pas moins de 28 de ces gariottes remises en état et l'abri pour les pèlerins recouvert de coquilles St Jacques]]></desc>
  </metadata>
  <trk>
    <name><![CDATA[2023-04-17 16:46:55]]></name>
    <trkseg>
      <trkpt lat="44.39659" lon="1.76974">
        <ele>306.32</ele>
        <time>2023-04-17T07:05:57Z</time>
      </trkpt>
      <trkpt lat="44.39659" lon="1.76974">
        <ele>305.36</ele>
        <time>2023-04-17T07:06:25Z</time>
      </trkpt>
      <trkpt lat="44.39659" lon="1.76972">
        <ele>307.28</ele>
        <time>2023-04-17T07:06:39Z</time>
      </trkpt>
      <trkpt lat="44.3966" lon="1.76974">
        <ele>307.76</ele>
        <time>2023-04-17T07:06:55Z</time>
      </trkpt>
      <trkpt lat="44.3966" lon="1.76973">
        <ele>308.24</ele>
        <time>2023-04-17T07:06:59Z</time>
      </trkpt>
      <trkpt lat="44.39664" lon="1.76969">
        <ele>308.72</ele>
        <time>2023-04-17T07:07:03Z</time>
      </trkpt>
      <trkpt lat="44.39676" lon="1.76952">
        <ele>308.24</ele>
        <time>2023-04-17T07:07:16Z</time>
      </trkpt>
      <trkpt lat="44.39678" lon="1.76948">
        <ele>308.24</ele>
        <time>2023-04-17T07:07:20Z</time>
      </trkpt>
      <trkpt lat="44.39678" lon="1.76943">
        <ele>308.24</ele>
        <time>2023-04-17T07:07:24Z</time>
      </trkpt>
      <trkpt lat="44.39664" lon="1.76919">
        <ele>308.24</ele>
        <time>2023-04-17T07:07:43Z</time>
      </trkpt>
      <trkpt lat="44.39665" lon="1.76918">
        <ele>308.24</ele>
        <time>2023-04-17T07:07:44Z</time>
      </trkpt>
      <trkpt lat="44.39668" lon="1.76913">
        <ele>307.76</ele>
        <time>2023-04-17T07:07:48Z</time>
      </trkpt>
      <trkpt lat="44.39667" lon="1.7691">
        <ele>307.28</ele>
        <time>2023-04-17T07:07:50Z</time>
      </trkpt>
      <trkpt lat="44.39663" lon="1.76904">
        <ele>307.28</ele>
        <time>2023-04-17T07:07:55Z</time>
      </trkpt>
      <trkpt lat="44.39649" lon="1.76882">
        <ele>308.24</ele>
        <time>2023-04-17T07:08:13Z</time>
      </trkpt>
      <trkpt lat="44.39634" lon="1.76857">
        <ele>309.68</ele>
        <time>2023-04-17T07:08:31Z</time>
      </trkpt>
      <trkpt lat="44.39622" lon="1.7684">
        <ele>309.2</ele>
        <time>2023-04-17T07:08:47Z</time>
      </trkpt>
      <trkpt lat="44.39614" lon="1.76828">
        <ele>310.64</ele>
        <time>2023-04-17T07:08:59Z</time>
      </trkpt>
      <trkpt lat="44.39604" lon="1.7681">
        <ele>311.12</ele>
        <time>2023-04-17T07:09:11Z</time>
      </trkpt>
      <trkpt lat="44.39595" lon="1.76793">
        <ele>311.12</ele>
        <time>2023-04-17T07:09:25Z</time>
      </trkpt>
      <trkpt lat="44.39594" lon="1.76789">
        <ele>310.64</ele>
        <time>2023-04-17T07:09:28Z</time>
      </trkpt>
      <trkpt lat="44.3959" lon="1.76765">
        <ele>312.57</ele>
        <time>2023-04-17T07:09:43Z</time>
      </trkpt>
      <trkpt lat="44.39589" lon="1.76738">
        <ele>313.53</ele>
        <time>2023-04-17T07:10:01Z</time>
      </trkpt>
      <trkpt lat="44.39588" lon="1.76713">
        <ele>315.45</ele>
        <time>2023-04-17T07:10:16Z</time>
      </trkpt>
      <trkpt lat="44.39591" lon="1.7669">
        <ele>314.97</ele>
        <time>2023-04-17T07:10:32Z</time>
      </trkpt>
      <trkpt lat="44.3959" lon="1.76675">
        <ele>314.97</ele>
        <time>2023-04-17T07:10:39Z</time>
      </trkpt>
      <trkpt lat="44.39591" lon="1.76668">
        <ele>314.49</ele>
        <time>2023-04-17T07:10:43Z</time>
      </trkpt>
      <trkpt lat="44.39592" lon="1.76644">
        <ele>313.05</ele>
        <time>2023-04-17T07:10:57Z</time>
      </trkpt>
      <trkpt lat="44.39593" lon="1.76612">
        <ele>316.89</ele>
        <time>2023-04-17T07:11:11Z</time>
      </trkpt>
      <trkpt lat="44.39595" lon="1.76598">
        <ele>314.01</ele>
        <time>2023-04-17T07:11:26Z</time>
      </trkpt>
      <trkpt lat="44.39595" lon="1.76572">
        <ele>314.97</ele>
        <time>2023-04-17T07:11:41Z</time>
      </trkpt>
      <trkpt lat="44.39593" lon="1.76545">
        <ele>316.89</ele>
        <time>2023-04-17T07:11:54Z</time>
      </trkpt>
      <trkpt lat="44.39594" lon="1.76523">
        <ele>315.45</ele>
        <time>2023-04-17T07:12:10Z</time>
      </trkpt>
      <trkpt lat="44.39593" lon="1.76491">
        <ele>316.89</ele>
        <time>2023-04-17T07:12:27Z</time>
      </trkpt>
      <trkpt lat="44.39592" lon="1.76483">
        <ele>318.33</ele>
        <time>2023-04-17T07:12:31Z</time>
      </trkpt>
      <trkpt lat="44.39592" lon="1.76481">
        <ele>318.33</ele>
        <time>2023-04-17T07:12:32Z</time>
      </trkpt>
      <trkpt lat="44.39591" lon="1.76479">
        <ele>318.81</ele>
        <time>2023-04-17T07:12:33Z</time>
      </trkpt>
      <trkpt lat="44.39592" lon="1.76453">
        <ele>322.18</ele>
        <time>2023-04-17T07:12:47Z</time>
      </trkpt>
      <trkpt lat="44.39592" lon="1.7645">
        <ele>322.18</ele>
        <time>2023-04-17T07:12:50Z</time>
      </trkpt>
      <trkpt lat="44.39592" lon="1.76448">
        <ele>321.7</ele>
        <time>2023-04-17T07:12:51Z</time>
      </trkpt>
      <trkpt lat="44.39592" lon="1.76441">
        <ele>321.22</ele>
        <time>2023-04-17T07:12:57Z</time>
      </trkpt>
      <trkpt lat="44.39584" lon="1.76411">
        <ele>321.22</ele>
        <time>2023-04-17T07:13:13Z</time>
      </trkpt>
      <trkpt lat="44.39576" lon="1.76394">
        <ele>321.22</ele>
        <time>2023-04-17T07:13:25Z</time>
      </trkpt>
      <trkpt lat="44.39571" lon="1.76376">
        <ele>321.22</ele>
        <time>2023-04-17T07:13:39Z</time>
      </trkpt>
      <trkpt lat="44.39573" lon="1.7637">
        <ele>321.22</ele>
        <time>2023-04-17T07:13:43Z</time>
      </trkpt>
      <trkpt lat="44.39581" lon="1.76363">
        <ele>321.7</ele>
        <time>2023-04-17T07:13:52Z</time>
      </trkpt>
      <trkpt lat="44.39595" lon="1.76353">
        <ele>322.66</ele>
        <time>2023-04-17T07:14:04Z</time>
      </trkpt>
      <trkpt lat="44.396" lon="1.76357">
        <ele>323.14</ele>
        <time>2023-04-17T07:14:13Z</time>
      </trkpt>
      <trkpt lat="44.39607" lon="1.76363">
        <ele>324.1</ele>
        <time>2023-04-17T07:14:20Z</time>
      </trkpt>
      <trkpt lat="44.39609" lon="1.76365">
        <ele>323.62</ele>
        <time>2023-04-17T07:14:23Z</time>
      </trkpt>
      <trkpt lat="44.3961" lon="1.76366">
        <ele>323.14</ele>
        <time>2023-04-17T07:14:24Z</time>
      </trkpt>
      <trkpt lat="44.39625" lon="1.76385">
        <ele>318.33</ele>
        <time>2023-04-17T07:14:41Z</time>
      </trkpt>
      <trkpt lat="44.39634" lon="1.76398">
        <ele>312.09</ele>
        <time>2023-04-17T07:14:53Z</time>
      </trkpt>
      <trkpt lat="44.39636" lon="1.76398">
        <ele>311.6</ele>
        <time>2023-04-17T07:14:54Z</time>
      </trkpt>
      <trkpt lat="44.39637" lon="1.76399">
        <ele>311.6</ele>
        <time>2023-04-17T07:14:55Z</time>
      </trkpt>
      <trkpt lat="44.39638" lon="1.764">
        <ele>311.6</ele>
        <time>2023-04-17T07:14:56Z</time>
      </trkpt>
      <trkpt lat="44.39639" lon="1.76401">
        <ele>311.6</ele>
        <time>2023-04-17T07:14:57Z</time>
      </trkpt>
      <trkpt lat="44.3964" lon="1.76402">
        <ele>311.6</ele>
        <time>2023-04-17T07:14:58Z</time>
      </trkpt>
      <trkpt lat="44.39667" lon="1.76421">
        <ele>315.45</ele>
        <time>2023-04-17T07:15:18Z</time>
      </trkpt>
      <trkpt lat="44.39683" lon="1.76436">
        <ele>313.53</ele>
        <time>2023-04-17T07:15:36Z</time>
      </trkpt>
      <trkpt lat="44.397" lon="1.76449">
        <ele>312.57</ele>
        <time>2023-04-17T07:15:53Z</time>
      </trkpt>
      <trkpt lat="44.39708" lon="1.76458">
        <ele>312.57</ele>
        <time>2023-04-17T07:16:10Z</time>
      </trkpt>
      <trkpt lat="44.39713" lon="1.7646">
        <ele>314.97</ele>
        <time>2023-04-17T07:16:28Z</time>
      </trkpt>
      <trkpt lat="44.39712" lon="1.76459">
        <ele>315.45</ele>
        <time>2023-04-17T07:16:49Z</time>
      </trkpt>
      <trkpt lat="44.39721" lon="1.76461">
        <ele>316.89</ele>
        <time>2023-04-17T07:17:11Z</time>
      </trkpt>
      <trkpt lat="44.39734" lon="1.76465">
        <ele>316.41</ele>
        <time>2023-04-17T07:17:25Z</time>
      </trkpt>
      <trkpt lat="44.39756" lon="1.76476">
        <ele>318.81</ele>
        <time>2023-04-17T07:17:41Z</time>
      </trkpt>
      <trkpt lat="44.39774" lon="1.76494">
        <ele>316.41</ele>
        <time>2023-04-17T07:18:00Z</time>
      </trkpt>
      <trkpt lat="44.39782" lon="1.76509">
        <ele>311.12</ele>
        <time>2023-04-17T07:18:13Z</time>
      </trkpt>
      <trkpt lat="44.39793" lon="1.76525">
        <ele>307.28</ele>
        <time>2023-04-17T07:18:28Z</time>
      </trkpt>
      <trkpt lat="44.39809" lon="1.76537">
        <ele>308.24</ele>
        <time>2023-04-17T07:18:43Z</time>
      </trkpt>
      <trkpt lat="44.39828" lon="1.76549">
        <ele>309.2</ele>
        <time>2023-04-17T07:18:59Z</time>
      </trkpt>
      <trkpt lat="44.39838" lon="1.76552">
        <ele>310.64</ele>
        <time>2023-04-17T07:19:06Z</time>
      </trkpt>
      <trkpt lat="44.3984" lon="1.76553">
        <ele>310.64</ele>
        <time>2023-04-17T07:19:07Z</time>
      </trkpt>
      <trkpt lat="44.39859" lon="1.76559">
        <ele>313.53</ele>
        <time>2023-04-17T07:19:22Z</time>
      </trkpt>
      <trkpt lat="44.3988" lon="1.76561">
        <ele>313.05</ele>
        <time>2023-04-17T07:19:40Z</time>
      </trkpt>
      <trkpt lat="44.39896" lon="1.76562">
        <ele>313.53</ele>
        <time>2023-04-17T07:19:56Z</time>
      </trkpt>
      <trkpt lat="44.39909" lon="1.76567">
        <ele>313.53</ele>
        <time>2023-04-17T07:20:11Z</time>
      </trkpt>
      <trkpt lat="44.3991" lon="1.76568">
        <ele>313.53</ele>
        <time>2023-04-17T07:20:12Z</time>
      </trkpt>
      <trkpt lat="44.39913" lon="1.76583">
        <ele>311.6</ele>
        <time>2023-04-17T07:20:22Z</time>
      </trkpt>
      <trkpt lat="44.39917" lon="1.76603">
        <ele>312.09</ele>
        <time>2023-04-17T07:20:38Z</time>
      </trkpt>
      <trkpt lat="44.39919" lon="1.76605">
        <ele>314.01</ele>
        <time>2023-04-17T07:20:55Z</time>
      </trkpt>
      <trkpt lat="44.39916" lon="1.76599">
        <ele>317.37</ele>
        <time>2023-04-17T07:21:08Z</time>
      </trkpt>
      <trkpt lat="44.39916" lon="1.76591">
        <ele>317.85</ele>
        <time>2023-04-17T07:21:19Z</time>
      </trkpt>
      <trkpt lat="44.39915" lon="1.76581">
        <ele>318.33</ele>
        <time>2023-04-17T07:21:28Z</time>
      </trkpt>
      <trkpt lat="44.39914" lon="1.76565">
        <ele>317.85</ele>
        <time>2023-04-17T07:21:41Z</time>
      </trkpt>
      <trkpt lat="44.39913" lon="1.76543">
        <ele>316.89</ele>
        <time>2023-04-17T07:21:59Z</time>
      </trkpt>
      <trkpt lat="44.39909" lon="1.76514">
        <ele>316.41</ele>
        <time>2023-04-17T07:22:17Z</time>
      </trkpt>
      <trkpt lat="44.39905" lon="1.76489">
        <ele>314.49</ele>
        <time>2023-04-17T07:22:33Z</time>
      </trkpt>
      <trkpt lat="44.39905" lon="1.76488">
        <ele>314.49</ele>
        <time>2023-04-17T07:22:34Z</time>
      </trkpt>
      <trkpt lat="44.39905" lon="1.76487">
        <ele>314.49</ele>
        <time>2023-04-17T07:22:35Z</time>
      </trkpt>
      <trkpt lat="44.39904" lon="1.76485">
        <ele>314.01</ele>
        <time>2023-04-17T07:22:36Z</time>
      </trkpt>
      <trkpt lat="44.39904" lon="1.76484">
        <ele>314.01</ele>
        <time>2023-04-17T07:22:37Z</time>
      </trkpt>
      <trkpt lat="44.39901" lon="1.76461">
        <ele>312.09</ele>
        <time>2023-04-17T07:22:51Z</time>
      </trkpt>
      <trkpt lat="44.39894" lon="1.7643">
        <ele>310.64</ele>
        <time>2023-04-17T07:23:09Z</time>
      </trkpt>
      <trkpt lat="44.39894" lon="1.76393">
        <ele>310.64</ele>
        <time>2023-04-17T07:23:30Z</time>
      </trkpt>
      <trkpt lat="44.39898" lon="1.76364">
        <ele>310.64</ele>
        <time>2023-04-17T07:23:46Z</time>
      </trkpt>
      <trkpt lat="44.39909" lon="1.76333">
        <ele>308.24</ele>
        <time>2023-04-17T07:24:04Z</time>
      </trkpt>
      <trkpt lat="44.3992" lon="1.76308">
        <ele>308.24</ele>
        <time>2023-04-17T07:24:20Z</time>
      </trkpt>
      <trkpt lat="44.39928" lon="1.76285">
        <ele>310.64</ele>
        <time>2023-04-17T07:24:36Z</time>
      </trkpt>
      <trkpt lat="44.39938" lon="1.7626">
        <ele>310.64</ele>
        <time>2023-04-17T07:24:53Z</time>
      </trkpt>
      <trkpt lat="44.39942" lon="1.76249">
        <ele>310.16</ele>
        <time>2023-04-17T07:25:01Z</time>
      </trkpt>
      <trkpt lat="44.39944" lon="1.76246">
        <ele>309.68</ele>
        <time>2023-04-17T07:25:03Z</time>
      </trkpt>
      <trkpt lat="44.39947" lon="1.76236">
        <ele>308.24</ele>
        <time>2023-04-17T07:25:11Z</time>
      </trkpt>
      <trkpt lat="44.39947" lon="1.76233">
        <ele>307.76</ele>
        <time>2023-04-17T07:25:12Z</time>
      </trkpt>
      <trkpt lat="44.39947" lon="1.76231">
        <ele>308.24</ele>
        <time>2023-04-17T07:25:13Z</time>
      </trkpt>
      <trkpt lat="44.39947" lon="1.76229">
        <ele>308.24</ele>
        <time>2023-04-17T07:25:14Z</time>
      </trkpt>
      <trkpt lat="44.39947" lon="1.76228">
        <ele>308.72</ele>
        <time>2023-04-17T07:25:15Z</time>
      </trkpt>
      <trkpt lat="44.39949" lon="1.76215">
        <ele>309.68</ele>
        <time>2023-04-17T07:25:22Z</time>
      </trkpt>
      <trkpt lat="44.39948" lon="1.76213">
        <ele>309.2</ele>
        <time>2023-04-17T07:25:23Z</time>
      </trkpt>
      <trkpt lat="44.3995" lon="1.76185">
        <ele>310.16</ele>
        <time>2023-04-17T07:25:39Z</time>
      </trkpt>
      <trkpt lat="44.39953" lon="1.76151">
        <ele>309.2</ele>
        <time>2023-04-17T07:25:58Z</time>
      </trkpt>
      <trkpt lat="44.39953" lon="1.76116">
        <ele>308.24</ele>
        <time>2023-04-17T07:26:17Z</time>
      </trkpt>
      <trkpt lat="44.39958" lon="1.76088">
        <ele>308.24</ele>
        <time>2023-04-17T07:26:34Z</time>
      </trkpt>
      <trkpt lat="44.39963" lon="1.76073">
        <ele>307.76</ele>
        <time>2023-04-17T07:26:45Z</time>
      </trkpt>
      <trkpt lat="44.39971" lon="1.76039">
        <ele>307.76</ele>
        <time>2023-04-17T07:27:01Z</time>
      </trkpt>
      <trkpt lat="44.39979" lon="1.76018">
        <ele>306.8</ele>
        <time>2023-04-17T07:27:15Z</time>
      </trkpt>
      <trkpt lat="44.39982" lon="1.75999">
        <ele>304.88</ele>
        <time>2023-04-17T07:27:27Z</time>
      </trkpt>
      <trkpt lat="44.39988" lon="1.75975">
        <ele>304.88</ele>
        <time>2023-04-17T07:27:41Z</time>
      </trkpt>
      <trkpt lat="44.39989" lon="1.7597">
        <ele>305.84</ele>
        <time>2023-04-17T07:27:47Z</time>
      </trkpt>
      <trkpt lat="44.39989" lon="1.75968">
        <ele>306.32</ele>
        <time>2023-04-17T07:27:48Z</time>
      </trkpt>
      <trkpt lat="44.39989" lon="1.75966">
        <ele>306.8</ele>
        <time>2023-04-17T07:27:49Z</time>
      </trkpt>
      <trkpt lat="44.39992" lon="1.75958">
        <ele>307.76</ele>
        <time>2023-04-17T07:28:07Z</time>
      </trkpt>
      <trkpt lat="44.39995" lon="1.75947">
        <ele>309.68</ele>
        <time>2023-04-17T07:28:23Z</time>
      </trkpt>
      <trkpt lat="44.39998" lon="1.75928">
        <ele>309.2</ele>
        <time>2023-04-17T07:28:40Z</time>
      </trkpt>
      <trkpt lat="44.40003" lon="1.75905">
        <ele>306.32</ele>
        <time>2023-04-17T07:28:55Z</time>
      </trkpt>
      <trkpt lat="44.40005" lon="1.75894">
        <ele>305.36</ele>
        <time>2023-04-17T07:29:07Z</time>
      </trkpt>
      <trkpt lat="44.40007" lon="1.75878">
        <ele>305.84</ele>
        <time>2023-04-17T07:29:19Z</time>
      </trkpt>
      <trkpt lat="44.4001" lon="1.75852">
        <ele>303.91</ele>
        <time>2023-04-17T07:29:35Z</time>
      </trkpt>
      <trkpt lat="44.40011" lon="1.75832">
        <ele>304.39</ele>
        <time>2023-04-17T07:29:45Z</time>
      </trkpt>
      <trkpt lat="44.40011" lon="1.7583">
        <ele>304.88</ele>
        <time>2023-04-17T07:29:46Z</time>
      </trkpt>
      <trkpt lat="44.40011" lon="1.75828">
        <ele>304.88</ele>
        <time>2023-04-17T07:29:47Z</time>
      </trkpt>
      <trkpt lat="44.40012" lon="1.75826">
        <ele>304.88</ele>
        <time>2023-04-17T07:29:48Z</time>
      </trkpt>
      <trkpt lat="44.40012" lon="1.75824">
        <ele>305.36</ele>
        <time>2023-04-17T07:29:49Z</time>
      </trkpt>
      <trkpt lat="44.40013" lon="1.75822">
        <ele>305.36</ele>
        <time>2023-04-17T07:29:50Z</time>
      </trkpt>
      <trkpt lat="44.40013" lon="1.7582">
        <ele>305.36</ele>
        <time>2023-04-17T07:29:51Z</time>
      </trkpt>
      <trkpt lat="44.40014" lon="1.75818">
        <ele>305.36</ele>
        <time>2023-04-17T07:29:52Z</time>
      </trkpt>
      <trkpt lat="44.40014" lon="1.75815">
        <ele>305.84</ele>
        <time>2023-04-17T07:29:53Z</time>
      </trkpt>
      <trkpt lat="44.40015" lon="1.7581">
        <ele>305.36</ele>
        <time>2023-04-17T07:29:56Z</time>
      </trkpt>
      <trkpt lat="44.40015" lon="1.75808">
        <ele>305.36</ele>
        <time>2023-04-17T07:29:57Z</time>
      </trkpt>
      <trkpt lat="44.40016" lon="1.75806">
        <ele>305.36</ele>
        <time>2023-04-17T07:29:58Z</time>
      </trkpt>
      <trkpt lat="44.40016" lon="1.75804">
        <ele>305.36</ele>
        <time>2023-04-17T07:29:59Z</time>
      </trkpt>
      <trkpt lat="44.40017" lon="1.75802">
        <ele>305.36</ele>
        <time>2023-04-17T07:30:00Z</time>
      </trkpt>
      <trkpt lat="44.40025" lon="1.7578">
        <ele>304.88</ele>
        <time>2023-04-17T07:30:14Z</time>
      </trkpt>
      <trkpt lat="44.40033" lon="1.75758">
        <ele>302.95</ele>
        <time>2023-04-17T07:30:29Z</time>
      </trkpt>
      <trkpt lat="44.40041" lon="1.75739">
        <ele>301.51</ele>
        <time>2023-04-17T07:30:41Z</time>
      </trkpt>
      <trkpt lat="44.40041" lon="1.75738">
        <ele>301.51</ele>
        <time>2023-04-17T07:30:42Z</time>
      </trkpt>
      <trkpt lat="44.40042" lon="1.75735">
        <ele>301.99</ele>
        <time>2023-04-17T07:30:44Z</time>
      </trkpt>
      <trkpt lat="44.40043" lon="1.75731">
        <ele>302.47</ele>
        <time>2023-04-17T07:30:47Z</time>
      </trkpt>
      <trkpt lat="44.40044" lon="1.75729">
        <ele>302.95</ele>
        <time>2023-04-17T07:30:48Z</time>
      </trkpt>
      <trkpt lat="44.40044" lon="1.75728">
        <ele>302.95</ele>
        <time>2023-04-17T07:30:49Z</time>
      </trkpt>
      <trkpt lat="44.40053" lon="1.75708">
        <ele>305.84</ele>
        <time>2023-04-17T07:31:04Z</time>
      </trkpt>
      <trkpt lat="44.40061" lon="1.75689">
        <ele>310.64</ele>
        <time>2023-04-17T07:31:19Z</time>
      </trkpt>
      <trkpt lat="44.40063" lon="1.75684">
        <ele>309.68</ele>
        <time>2023-04-17T07:31:24Z</time>
      </trkpt>
      <trkpt lat="44.40067" lon="1.7567">
        <ele>307.76</ele>
        <time>2023-04-17T07:31:36Z</time>
      </trkpt>
      <trkpt lat="44.40071" lon="1.75646">
        <ele>310.64</ele>
        <time>2023-04-17T07:31:51Z</time>
      </trkpt>
      <trkpt lat="44.40071" lon="1.75635">
        <ele>311.12</ele>
        <time>2023-04-17T07:31:57Z</time>
      </trkpt>
      <trkpt lat="44.40071" lon="1.75633">
        <ele>311.6</ele>
        <time>2023-04-17T07:31:58Z</time>
      </trkpt>
      <trkpt lat="44.40072" lon="1.75614">
        <ele>311.6</ele>
        <time>2023-04-17T07:32:12Z</time>
      </trkpt>
      <trkpt lat="44.40073" lon="1.75606">
        <ele>311.12</ele>
        <time>2023-04-17T07:32:18Z</time>
      </trkpt>
      <trkpt lat="44.40075" lon="1.75589">
        <ele>313.05</ele>
        <time>2023-04-17T07:32:27Z</time>
      </trkpt>
      <trkpt lat="44.40076" lon="1.75587">
        <ele>313.53</ele>
        <time>2023-04-17T07:32:28Z</time>
      </trkpt>
      <trkpt lat="44.40076" lon="1.75585">
        <ele>314.01</ele>
        <time>2023-04-17T07:32:30Z</time>
      </trkpt>
      <trkpt lat="44.40077" lon="1.75583">
        <ele>314.01</ele>
        <time>2023-04-17T07:32:31Z</time>
      </trkpt>
      <trkpt lat="44.40078" lon="1.75581">
        <ele>314.01</ele>
        <time>2023-04-17T07:32:32Z</time>
      </trkpt>
      <trkpt lat="44.40081" lon="1.75569">
        <ele>313.53</ele>
        <time>2023-04-17T07:32:39Z</time>
      </trkpt>
      <trkpt lat="44.40082" lon="1.75567">
        <ele>313.53</ele>
        <time>2023-04-17T07:32:40Z</time>
      </trkpt>
      <trkpt lat="44.40087" lon="1.75548">
        <ele>312.09</ele>
        <time>2023-04-17T07:32:54Z</time>
      </trkpt>
      <trkpt lat="44.40093" lon="1.75528">
        <ele>312.57</ele>
        <time>2023-04-17T07:33:07Z</time>
      </trkpt>
      <trkpt lat="44.40096" lon="1.75508">
        <ele>312.57</ele>
        <time>2023-04-17T07:33:20Z</time>
      </trkpt>
      <trkpt lat="44.40099" lon="1.75494">
        <ele>314.01</ele>
        <time>2023-04-17T07:33:33Z</time>
      </trkpt>
      <trkpt lat="44.40101" lon="1.75476">
        <ele>312.57</ele>
        <time>2023-04-17T07:33:45Z</time>
      </trkpt>
      <trkpt lat="44.40107" lon="1.75457">
        <ele>313.05</ele>
        <time>2023-04-17T07:33:59Z</time>
      </trkpt>
      <trkpt lat="44.40117" lon="1.75439">
        <ele>314.97</ele>
        <time>2023-04-17T07:34:11Z</time>
      </trkpt>
      <trkpt lat="44.40124" lon="1.75424">
        <ele>314.01</ele>
        <time>2023-04-17T07:34:25Z</time>
      </trkpt>
      <trkpt lat="44.40126" lon="1.7542">
        <ele>313.53</ele>
        <time>2023-04-17T07:34:28Z</time>
      </trkpt>
      <trkpt lat="44.40132" lon="1.75405">
        <ele>313.05</ele>
        <time>2023-04-17T07:34:40Z</time>
      </trkpt>
      <trkpt lat="44.40136" lon="1.75386">
        <ele>315.93</ele>
        <time>2023-04-17T07:34:54Z</time>
      </trkpt>
      <trkpt lat="44.40141" lon="1.75364">
        <ele>319.3</ele>
        <time>2023-04-17T07:35:10Z</time>
      </trkpt>
      <trkpt lat="44.40141" lon="1.75363">
        <ele>319.78</ele>
        <time>2023-04-17T07:35:11Z</time>
      </trkpt>
      <trkpt lat="44.40144" lon="1.75345">
        <ele>322.66</ele>
        <time>2023-04-17T07:35:24Z</time>
      </trkpt>
      <trkpt lat="44.40146" lon="1.75319">
        <ele>326.99</ele>
        <time>2023-04-17T07:35:41Z</time>
      </trkpt>
      <trkpt lat="44.40147" lon="1.75294">
        <ele>328.91</ele>
        <time>2023-04-17T07:36:01Z</time>
      </trkpt>
      <trkpt lat="44.40149" lon="1.75275">
        <ele>329.87</ele>
        <time>2023-04-17T07:36:15Z</time>
      </trkpt>
      <trkpt lat="44.40151" lon="1.75261">
        <ele>328.91</ele>
        <time>2023-04-17T07:36:29Z</time>
      </trkpt>
      <trkpt lat="44.40157" lon="1.75257">
        <ele>326.99</ele>
        <time>2023-04-17T07:36:41Z</time>
      </trkpt>
      <trkpt lat="44.4017" lon="1.75252">
        <ele>326.5</ele>
        <time>2023-04-17T07:36:57Z</time>
      </trkpt>
      <trkpt lat="44.40178" lon="1.75247">
        <ele>326.02</ele>
        <time>2023-04-17T07:37:12Z</time>
      </trkpt>
      <trkpt lat="44.4018" lon="1.7525">
        <ele>327.95</ele>
        <time>2023-04-17T07:37:28Z</time>
      </trkpt>
      <trkpt lat="44.40177" lon="1.75244">
        <ele>332.75</ele>
        <time>2023-04-17T07:37:58Z</time>
      </trkpt>
      <trkpt lat="44.40175" lon="1.7525">
        <ele>335.16</ele>
        <time>2023-04-17T07:38:26Z</time>
      </trkpt>
      <trkpt lat="44.40178" lon="1.75248">
        <ele>334.2</ele>
        <time>2023-04-17T07:38:53Z</time>
      </trkpt>
      <trkpt lat="44.40182" lon="1.75243">
        <ele>333.23</ele>
        <time>2023-04-17T07:39:09Z</time>
      </trkpt>
      <trkpt lat="44.40188" lon="1.75234">
        <ele>329.39</ele>
        <time>2023-04-17T07:39:25Z</time>
      </trkpt>
      <trkpt lat="44.40189" lon="1.75234">
        <ele>328.91</ele>
        <time>2023-04-17T07:39:55Z</time>
      </trkpt>
      <trkpt lat="44.40187" lon="1.75234">
        <ele>332.75</ele>
        <time>2023-04-17T07:40:22Z</time>
      </trkpt>
      <trkpt lat="44.40186" lon="1.75241">
        <ele>332.75</ele>
        <time>2023-04-17T07:40:45Z</time>
      </trkpt>
      <trkpt lat="44.40182" lon="1.75252">
        <ele>331.31</ele>
        <time>2023-04-17T07:41:00Z</time>
      </trkpt>
      <trkpt lat="44.40179" lon="1.75254">
        <ele>331.31</ele>
        <time>2023-04-17T07:41:16Z</time>
      </trkpt>
      <trkpt lat="44.40178" lon="1.75253">
        <ele>330.83</ele>
        <time>2023-04-17T07:41:39Z</time>
      </trkpt>
      <trkpt lat="44.40171" lon="1.75257">
        <ele>329.39</ele>
        <time>2023-04-17T07:41:58Z</time>
      </trkpt>
      <trkpt lat="44.40157" lon="1.7526">
        <ele>325.06</ele>
        <time>2023-04-17T07:42:15Z</time>
      </trkpt>
      <trkpt lat="44.40155" lon="1.75252">
        <ele>325.06</ele>
        <time>2023-04-17T07:42:34Z</time>
      </trkpt>
      <trkpt lat="44.40158" lon="1.7523">
        <ele>324.58</ele>
        <time>2023-04-17T07:42:49Z</time>
      </trkpt>
      <trkpt lat="44.4016" lon="1.75202">
        <ele>324.58</ele>
        <time>2023-04-17T07:43:07Z</time>
      </trkpt>
      <trkpt lat="44.40167" lon="1.75179">
        <ele>323.62</ele>
        <time>2023-04-17T07:43:24Z</time>
      </trkpt>
      <trkpt lat="44.40176" lon="1.75156">
        <ele>324.1</ele>
        <time>2023-04-17T07:43:40Z</time>
      </trkpt>
      <trkpt lat="44.4018" lon="1.75131">
        <ele>323.14</ele>
        <time>2023-04-17T07:43:56Z</time>
      </trkpt>
      <trkpt lat="44.40183" lon="1.75122">
        <ele>322.66</ele>
        <time>2023-04-17T07:44:07Z</time>
      </trkpt>
      <trkpt lat="44.4019" lon="1.75109">
        <ele>324.58</ele>
        <time>2023-04-17T07:44:16Z</time>
      </trkpt>
      <trkpt lat="44.40191" lon="1.75108">
        <ele>324.58</ele>
        <time>2023-04-17T07:44:17Z</time>
      </trkpt>
      <trkpt lat="44.40192" lon="1.75107">
        <ele>324.1</ele>
        <time>2023-04-17T07:44:18Z</time>
      </trkpt>
      <trkpt lat="44.40193" lon="1.75107">
        <ele>324.1</ele>
        <time>2023-04-17T07:44:19Z</time>
      </trkpt>
      <trkpt lat="44.40197" lon="1.751">
        <ele>324.1</ele>
        <time>2023-04-17T07:44:28Z</time>
      </trkpt>
      <trkpt lat="44.40204" lon="1.75086">
        <ele>322.18</ele>
        <time>2023-04-17T07:44:40Z</time>
      </trkpt>
      <trkpt lat="44.40218" lon="1.75064">
        <ele>324.1</ele>
        <time>2023-04-17T07:44:55Z</time>
      </trkpt>
      <trkpt lat="44.40229" lon="1.7505">
        <ele>324.1</ele>
        <time>2023-04-17T07:45:09Z</time>
      </trkpt>
      <trkpt lat="44.40241" lon="1.75035">
        <ele>322.18</ele>
        <time>2023-04-17T07:45:23Z</time>
      </trkpt>
      <trkpt lat="44.40258" lon="1.75014">
        <ele>324.58</ele>
        <time>2023-04-17T07:45:39Z</time>
      </trkpt>
      <trkpt lat="44.40259" lon="1.75012">
        <ele>324.58</ele>
        <time>2023-04-17T07:45:40Z</time>
      </trkpt>
      <trkpt lat="44.4026" lon="1.75011">
        <ele>324.58</ele>
        <time>2023-04-17T07:45:41Z</time>
      </trkpt>
      <trkpt lat="44.40261" lon="1.7501">
        <ele>324.58</ele>
        <time>2023-04-17T07:45:42Z</time>
      </trkpt>
      <trkpt lat="44.40262" lon="1.75008">
        <ele>324.58</ele>
        <time>2023-04-17T07:45:43Z</time>
      </trkpt>
      <trkpt lat="44.40262" lon="1.75007">
        <ele>324.58</ele>
        <time>2023-04-17T07:45:44Z</time>
      </trkpt>
      <trkpt lat="44.40263" lon="1.75006">
        <ele>324.58</ele>
        <time>2023-04-17T07:45:45Z</time>
      </trkpt>
      <trkpt lat="44.40268" lon="1.75001">
        <ele>324.58</ele>
        <time>2023-04-17T07:45:50Z</time>
      </trkpt>
      <trkpt lat="44.40279" lon="1.74988">
        <ele>323.62</ele>
        <time>2023-04-17T07:46:04Z</time>
      </trkpt>
      <trkpt lat="44.4028" lon="1.74987">
        <ele>323.62</ele>
        <time>2023-04-17T07:46:05Z</time>
      </trkpt>
      <trkpt lat="44.40297" lon="1.74967">
        <ele>326.02</ele>
        <time>2023-04-17T07:46:18Z</time>
      </trkpt>
      <trkpt lat="44.40309" lon="1.74958">
        <ele>324.58</ele>
        <time>2023-04-17T07:46:33Z</time>
      </trkpt>
      <trkpt lat="44.40318" lon="1.74944">
        <ele>325.54</ele>
        <time>2023-04-17T07:46:47Z</time>
      </trkpt>
      <trkpt lat="44.40336" lon="1.74925">
        <ele>326.02</ele>
        <time>2023-04-17T07:47:02Z</time>
      </trkpt>
      <trkpt lat="44.40345" lon="1.74916">
        <ele>324.58</ele>
        <time>2023-04-17T07:47:11Z</time>
      </trkpt>
      <trkpt lat="44.40354" lon="1.74902">
        <ele>326.5</ele>
        <time>2023-04-17T07:47:19Z</time>
      </trkpt>
      <trkpt lat="44.40355" lon="1.749">
        <ele>326.99</ele>
        <time>2023-04-17T07:47:20Z</time>
      </trkpt>
      <trkpt lat="44.40356" lon="1.74899">
        <ele>327.47</ele>
        <time>2023-04-17T07:47:21Z</time>
      </trkpt>
      <trkpt lat="44.40366" lon="1.74885">
        <ele>329.87</ele>
        <time>2023-04-17T07:47:31Z</time>
      </trkpt>
      <trkpt lat="44.40367" lon="1.74883">
        <ele>329.87</ele>
        <time>2023-04-17T07:47:32Z</time>
      </trkpt>
      <trkpt lat="44.40368" lon="1.74883">
        <ele>329.87</ele>
        <time>2023-04-17T07:47:33Z</time>
      </trkpt>
      <trkpt lat="44.40369" lon="1.74881">
        <ele>330.35</ele>
        <time>2023-04-17T07:47:34Z</time>
      </trkpt>
      <trkpt lat="44.40369" lon="1.7488">
        <ele>330.35</ele>
        <time>2023-04-17T07:47:35Z</time>
      </trkpt>
      <trkpt lat="44.4037" lon="1.74879">
        <ele>330.35</ele>
        <time>2023-04-17T07:47:36Z</time>
      </trkpt>
      <trkpt lat="44.40371" lon="1.74878">
        <ele>329.87</ele>
        <time>2023-04-17T07:47:37Z</time>
      </trkpt>
      <trkpt lat="44.40372" lon="1.74877">
        <ele>329.87</ele>
        <time>2023-04-17T07:47:38Z</time>
      </trkpt>
      <trkpt lat="44.40372" lon="1.74876">
        <ele>329.87</ele>
        <time>2023-04-17T07:47:39Z</time>
      </trkpt>
      <trkpt lat="44.4038" lon="1.74862">
        <ele>329.39</ele>
        <time>2023-04-17T07:47:53Z</time>
      </trkpt>
      <trkpt lat="44.40385" lon="1.74851">
        <ele>328.91</ele>
        <time>2023-04-17T07:48:03Z</time>
      </trkpt>
      <trkpt lat="44.40385" lon="1.74848">
        <ele>329.39</ele>
        <time>2023-04-17T07:48:04Z</time>
      </trkpt>
      <trkpt lat="44.40386" lon="1.74847">
        <ele>329.39</ele>
        <time>2023-04-17T07:48:05Z</time>
      </trkpt>
      <trkpt lat="44.40389" lon="1.74833">
        <ele>328.91</ele>
        <time>2023-04-17T07:48:17Z</time>
      </trkpt>
      <trkpt lat="44.40389" lon="1.7483">
        <ele>328.91</ele>
        <time>2023-04-17T07:48:18Z</time>
      </trkpt>
      <trkpt lat="44.4039" lon="1.74828">
        <ele>328.91</ele>
        <time>2023-04-17T07:48:19Z</time>
      </trkpt>
      <trkpt lat="44.40396" lon="1.74805">
        <ele>329.87</ele>
        <time>2023-04-17T07:48:31Z</time>
      </trkpt>
      <trkpt lat="44.40398" lon="1.7479">
        <ele>326.99</ele>
        <time>2023-04-17T07:48:45Z</time>
      </trkpt>
      <trkpt lat="44.404" lon="1.74781">
        <ele>326.02</ele>
        <time>2023-04-17T07:48:50Z</time>
      </trkpt>
      <trkpt lat="44.40401" lon="1.74778">
        <ele>325.54</ele>
        <time>2023-04-17T07:48:52Z</time>
      </trkpt>
      <trkpt lat="44.40401" lon="1.74776">
        <ele>325.54</ele>
        <time>2023-04-17T07:48:53Z</time>
      </trkpt>
      <trkpt lat="44.40401" lon="1.74774">
        <ele>325.54</ele>
        <time>2023-04-17T07:48:54Z</time>
      </trkpt>
      <trkpt lat="44.40406" lon="1.7475">
        <ele>327.95</ele>
        <time>2023-04-17T07:49:06Z</time>
      </trkpt>
      <trkpt lat="44.40408" lon="1.7473">
        <ele>325.06</ele>
        <time>2023-04-17T07:49:21Z</time>
      </trkpt>
      <trkpt lat="44.40412" lon="1.7471">
        <ele>324.58</ele>
        <time>2023-04-17T07:49:34Z</time>
      </trkpt>
      <trkpt lat="44.40416" lon="1.74688">
        <ele>324.58</ele>
        <time>2023-04-17T07:49:47Z</time>
      </trkpt>
      <trkpt lat="44.40421" lon="1.74668">
        <ele>321.7</ele>
        <time>2023-04-17T07:50:01Z</time>
      </trkpt>
      <trkpt lat="44.4042" lon="1.74657">
        <ele>318.81</ele>
        <time>2023-04-17T07:50:10Z</time>
      </trkpt>
      <trkpt lat="44.40421" lon="1.74655">
        <ele>318.81</ele>
        <time>2023-04-17T07:50:11Z</time>
      </trkpt>
      <trkpt lat="44.40421" lon="1.74653">
        <ele>318.81</ele>
        <time>2023-04-17T07:50:12Z</time>
      </trkpt>
      <trkpt lat="44.40422" lon="1.74649">
        <ele>319.3</ele>
        <time>2023-04-17T07:50:14Z</time>
      </trkpt>
      <trkpt lat="44.40427" lon="1.74617">
        <ele>322.66</ele>
        <time>2023-04-17T07:50:28Z</time>
      </trkpt>
      <trkpt lat="44.40427" lon="1.74614">
        <ele>322.66</ele>
        <time>2023-04-17T07:50:30Z</time>
      </trkpt>
      <trkpt lat="44.40428" lon="1.74613">
        <ele>322.18</ele>
        <time>2023-04-17T07:50:31Z</time>
      </trkpt>
      <trkpt lat="44.40428" lon="1.746">
        <ele>317.37</ele>
        <time>2023-04-17T07:50:47Z</time>
      </trkpt>
      <trkpt lat="44.40431" lon="1.74573">
        <ele>317.85</ele>
        <time>2023-04-17T07:50:58Z</time>
      </trkpt>
      <trkpt lat="44.40434" lon="1.74541">
        <ele>320.26</ele>
        <time>2023-04-17T07:51:12Z</time>
      </trkpt>
      <trkpt lat="44.40434" lon="1.74519">
        <ele>317.37</ele>
        <time>2023-04-17T07:51:28Z</time>
      </trkpt>
      <trkpt lat="44.40431" lon="1.74493">
        <ele>314.97</ele>
        <time>2023-04-17T07:51:45Z</time>
      </trkpt>
      <trkpt lat="44.40431" lon="1.74465">
        <ele>314.97</ele>
        <time>2023-04-17T07:52:02Z</time>
      </trkpt>
      <trkpt lat="44.4043" lon="1.74438">
        <ele>313.05</ele>
        <time>2023-04-17T07:52:18Z</time>
      </trkpt>
      <trkpt lat="44.40427" lon="1.74411">
        <ele>309.68</ele>
        <time>2023-04-17T07:52:33Z</time>
      </trkpt>
      <trkpt lat="44.40423" lon="1.74383">
        <ele>309.2</ele>
        <time>2023-04-17T07:52:50Z</time>
      </trkpt>
      <trkpt lat="44.40418" lon="1.74358">
        <ele>306.32</ele>
        <time>2023-04-17T07:53:06Z</time>
      </trkpt>
      <trkpt lat="44.40415" lon="1.74331">
        <ele>305.84</ele>
        <time>2023-04-17T07:53:22Z</time>
      </trkpt>
      <trkpt lat="44.40418" lon="1.74303">
        <ele>303.43</ele>
        <time>2023-04-17T07:53:39Z</time>
      </trkpt>
      <trkpt lat="44.4042" lon="1.74278">
        <ele>301.51</ele>
        <time>2023-04-17T07:53:54Z</time>
      </trkpt>
      <trkpt lat="44.40426" lon="1.74254">
        <ele>300.07</ele>
        <time>2023-04-17T07:54:09Z</time>
      </trkpt>
      <trkpt lat="44.40431" lon="1.74233">
        <ele>298.63</ele>
        <time>2023-04-17T07:54:23Z</time>
      </trkpt>
      <trkpt lat="44.40434" lon="1.74215">
        <ele>297.67</ele>
        <time>2023-04-17T07:54:34Z</time>
      </trkpt>
      <trkpt lat="44.40439" lon="1.74194">
        <ele>299.11</ele>
        <time>2023-04-17T07:54:48Z</time>
      </trkpt>
      <trkpt lat="44.40441" lon="1.74182">
        <ele>296.22</ele>
        <time>2023-04-17T07:54:56Z</time>
      </trkpt>
      <trkpt lat="44.40441" lon="1.74181">
        <ele>296.22</ele>
        <time>2023-04-17T07:54:57Z</time>
      </trkpt>
      <trkpt lat="44.40442" lon="1.74176">
        <ele>296.22</ele>
        <time>2023-04-17T07:55:00Z</time>
      </trkpt>
      <trkpt lat="44.40443" lon="1.74174">
        <ele>296.7</ele>
        <time>2023-04-17T07:55:02Z</time>
      </trkpt>
      <trkpt lat="44.40444" lon="1.74172">
        <ele>296.7</ele>
        <time>2023-04-17T07:55:03Z</time>
      </trkpt>
      <trkpt lat="44.40453" lon="1.74149">
        <ele>296.22</ele>
        <time>2023-04-17T07:55:20Z</time>
      </trkpt>
      <trkpt lat="44.40465" lon="1.74122">
        <ele>295.26</ele>
        <time>2023-04-17T07:55:38Z</time>
      </trkpt>
      <trkpt lat="44.40474" lon="1.74099">
        <ele>293.34</ele>
        <time>2023-04-17T07:55:53Z</time>
      </trkpt>
      <trkpt lat="44.40483" lon="1.74074">
        <ele>293.82</ele>
        <time>2023-04-17T07:56:09Z</time>
      </trkpt>
      <trkpt lat="44.40493" lon="1.74049">
        <ele>293.34</ele>
        <time>2023-04-17T07:56:26Z</time>
      </trkpt>
      <trkpt lat="44.40502" lon="1.74021">
        <ele>298.15</ele>
        <time>2023-04-17T07:56:42Z</time>
      </trkpt>
      <trkpt lat="44.40512" lon="1.7399">
        <ele>298.15</ele>
        <time>2023-04-17T07:57:02Z</time>
      </trkpt>
      <trkpt lat="44.40517" lon="1.73962">
        <ele>297.67</ele>
        <time>2023-04-17T07:57:19Z</time>
      </trkpt>
      <trkpt lat="44.40522" lon="1.73935">
        <ele>295.26</ele>
        <time>2023-04-17T07:57:35Z</time>
      </trkpt>
      <trkpt lat="44.40532" lon="1.73903">
        <ele>294.78</ele>
        <time>2023-04-17T07:57:54Z</time>
      </trkpt>
      <trkpt lat="44.40539" lon="1.73874">
        <ele>296.22</ele>
        <time>2023-04-17T07:58:12Z</time>
      </trkpt>
      <trkpt lat="44.40545" lon="1.73843">
        <ele>296.7</ele>
        <time>2023-04-17T07:58:30Z</time>
      </trkpt>
      <trkpt lat="44.40545" lon="1.73841">
        <ele>296.7</ele>
        <time>2023-04-17T07:58:31Z</time>
      </trkpt>
      <trkpt lat="44.40551" lon="1.73827">
        <ele>295.74</ele>
        <time>2023-04-17T07:58:41Z</time>
      </trkpt>
      <trkpt lat="44.4056" lon="1.73807">
        <ele>293.34</ele>
        <time>2023-04-17T07:58:56Z</time>
      </trkpt>
      <trkpt lat="44.40568" lon="1.73775">
        <ele>292.86</ele>
        <time>2023-04-17T07:59:14Z</time>
      </trkpt>
      <trkpt lat="44.40576" lon="1.7374">
        <ele>294.3</ele>
        <time>2023-04-17T07:59:35Z</time>
      </trkpt>
      <trkpt lat="44.40589" lon="1.73714">
        <ele>294.78</ele>
        <time>2023-04-17T07:59:54Z</time>
      </trkpt>
      <trkpt lat="44.40589" lon="1.73712">
        <ele>295.74</ele>
        <time>2023-04-17T08:00:09Z</time>
      </trkpt>
      <trkpt lat="44.40599" lon="1.73698">
        <ele>296.7</ele>
        <time>2023-04-17T08:00:25Z</time>
      </trkpt>
      <trkpt lat="44.40612" lon="1.73676">
        <ele>294.3</ele>
        <time>2023-04-17T08:00:43Z</time>
      </trkpt>
      <trkpt lat="44.40624" lon="1.73661">
        <ele>297.18</ele>
        <time>2023-04-17T08:00:59Z</time>
      </trkpt>
      <trkpt lat="44.4063" lon="1.73652">
        <ele>298.15</ele>
        <time>2023-04-17T08:01:08Z</time>
      </trkpt>
      <trkpt lat="44.40638" lon="1.73634">
        <ele>297.67</ele>
        <time>2023-04-17T08:01:24Z</time>
      </trkpt>
      <trkpt lat="44.40644" lon="1.73627">
        <ele>299.59</ele>
        <time>2023-04-17T08:01:32Z</time>
      </trkpt>
      <trkpt lat="44.40656" lon="1.73623">
        <ele>301.51</ele>
        <time>2023-04-17T08:01:48Z</time>
      </trkpt>
      <trkpt lat="44.40658" lon="1.73622">
        <ele>303.43</ele>
        <time>2023-04-17T08:02:08Z</time>
      </trkpt>
      <trkpt lat="44.40658" lon="1.73621">
        <ele>305.84</ele>
        <time>2023-04-17T08:02:35Z</time>
      </trkpt>
      <trkpt lat="44.40659" lon="1.73621">
        <ele>306.32</ele>
        <time>2023-04-17T08:03:01Z</time>
      </trkpt>
      <trkpt lat="44.40657" lon="1.73622">
        <ele>306.32</ele>
        <time>2023-04-17T08:03:25Z</time>
      </trkpt>
      <trkpt lat="44.40657" lon="1.73622">
        <ele>306.32</ele>
        <time>2023-04-17T08:03:53Z</time>
      </trkpt>
      <trkpt lat="44.40656" lon="1.73623">
        <ele>306.32</ele>
        <time>2023-04-17T08:04:24Z</time>
      </trkpt>
      <trkpt lat="44.40661" lon="1.73623">
        <ele>305.84</ele>
        <time>2023-04-17T08:04:31Z</time>
      </trkpt>
      <trkpt lat="44.40667" lon="1.73625">
        <ele>306.32</ele>
        <time>2023-04-17T08:04:38Z</time>
      </trkpt>
      <trkpt lat="44.4067" lon="1.73619">
        <ele>305.84</ele>
        <time>2023-04-17T08:04:44Z</time>
      </trkpt>
      <trkpt lat="44.4067" lon="1.73618">
        <ele>305.84</ele>
        <time>2023-04-17T08:04:45Z</time>
      </trkpt>
      <trkpt lat="44.40671" lon="1.73616">
        <ele>306.32</ele>
        <time>2023-04-17T08:04:47Z</time>
      </trkpt>
      <trkpt lat="44.40675" lon="1.73604">
        <ele>308.72</ele>
        <time>2023-04-17T08:05:00Z</time>
      </trkpt>
      <trkpt lat="44.40675" lon="1.73603">
        <ele>308.72</ele>
        <time>2023-04-17T08:05:01Z</time>
      </trkpt>
      <trkpt lat="44.4069" lon="1.73588">
        <ele>309.68</ele>
        <time>2023-04-17T08:05:19Z</time>
      </trkpt>
      <trkpt lat="44.40701" lon="1.73576">
        <ele>310.64</ele>
        <time>2023-04-17T08:05:36Z</time>
      </trkpt>
      <trkpt lat="44.40709" lon="1.73569">
        <ele>310.16</ele>
        <time>2023-04-17T08:05:48Z</time>
      </trkpt>
      <trkpt lat="44.40714" lon="1.73564">
        <ele>311.12</ele>
        <time>2023-04-17T08:06:02Z</time>
      </trkpt>
      <trkpt lat="44.40718" lon="1.7356">
        <ele>313.05</ele>
        <time>2023-04-17T08:06:14Z</time>
      </trkpt>
      <trkpt lat="44.40721" lon="1.73562">
        <ele>313.05</ele>
        <time>2023-04-17T08:06:18Z</time>
      </trkpt>
      <trkpt lat="44.40734" lon="1.73574">
        <ele>313.53</ele>
        <time>2023-04-17T08:06:32Z</time>
      </trkpt>
      <trkpt lat="44.40743" lon="1.73582">
        <ele>313.53</ele>
        <time>2023-04-17T08:06:44Z</time>
      </trkpt>
      <trkpt lat="44.40755" lon="1.73591">
        <ele>316.41</ele>
        <time>2023-04-17T08:06:56Z</time>
      </trkpt>
      <trkpt lat="44.40761" lon="1.73594">
        <ele>317.37</ele>
        <time>2023-04-17T08:07:02Z</time>
      </trkpt>
      <trkpt lat="44.40763" lon="1.73597">
        <ele>316.41</ele>
        <time>2023-04-17T08:07:06Z</time>
      </trkpt>
      <trkpt lat="44.40765" lon="1.73598">
        <ele>316.41</ele>
        <time>2023-04-17T08:07:07Z</time>
      </trkpt>
      <trkpt lat="44.40766" lon="1.73598">
        <ele>316.41</ele>
        <time>2023-04-17T08:07:08Z</time>
      </trkpt>
      <trkpt lat="44.40768" lon="1.73599">
        <ele>316.41</ele>
        <time>2023-04-17T08:07:09Z</time>
      </trkpt>
      <trkpt lat="44.40778" lon="1.73603">
        <ele>316.41</ele>
        <time>2023-04-17T08:07:21Z</time>
      </trkpt>
      <trkpt lat="44.40789" lon="1.73601">
        <ele>316.41</ele>
        <time>2023-04-17T08:07:32Z</time>
      </trkpt>
      <trkpt lat="44.40796" lon="1.73599">
        <ele>316.89</ele>
        <time>2023-04-17T08:07:37Z</time>
      </trkpt>
      <trkpt lat="44.40797" lon="1.73599">
        <ele>316.89</ele>
        <time>2023-04-17T08:07:38Z</time>
      </trkpt>
      <trkpt lat="44.40798" lon="1.73598">
        <ele>316.89</ele>
        <time>2023-04-17T08:07:39Z</time>
      </trkpt>
      <trkpt lat="44.40809" lon="1.73592">
        <ele>317.85</ele>
        <time>2023-04-17T08:07:52Z</time>
      </trkpt>
      <trkpt lat="44.4081" lon="1.73591">
        <ele>317.85</ele>
        <time>2023-04-17T08:07:53Z</time>
      </trkpt>
      <trkpt lat="44.40811" lon="1.7359">
        <ele>317.85</ele>
        <time>2023-04-17T08:07:54Z</time>
      </trkpt>
      <trkpt lat="44.40812" lon="1.73589">
        <ele>317.85</ele>
        <time>2023-04-17T08:07:55Z</time>
      </trkpt>
      <trkpt lat="44.40826" lon="1.73586">
        <ele>318.81</ele>
        <time>2023-04-17T08:08:09Z</time>
      </trkpt>
      <trkpt lat="44.4084" lon="1.73579">
        <ele>319.3</ele>
        <time>2023-04-17T08:08:22Z</time>
      </trkpt>
      <trkpt lat="44.40853" lon="1.73571">
        <ele>319.78</ele>
        <time>2023-04-17T08:08:35Z</time>
      </trkpt>
      <trkpt lat="44.40864" lon="1.73558">
        <ele>320.26</ele>
        <time>2023-04-17T08:08:48Z</time>
      </trkpt>
      <trkpt lat="44.40871" lon="1.73551">
        <ele>319.78</ele>
        <time>2023-04-17T08:08:58Z</time>
      </trkpt>
      <trkpt lat="44.40872" lon="1.73549">
        <ele>319.78</ele>
        <time>2023-04-17T08:08:59Z</time>
      </trkpt>
      <trkpt lat="44.40877" lon="1.73538">
        <ele>320.74</ele>
        <time>2023-04-17T08:09:05Z</time>
      </trkpt>
      <trkpt lat="44.40878" lon="1.73537">
        <ele>320.74</ele>
        <time>2023-04-17T08:09:06Z</time>
      </trkpt>
      <trkpt lat="44.40882" lon="1.73526">
        <ele>319.78</ele>
        <time>2023-04-17T08:09:16Z</time>
      </trkpt>
      <trkpt lat="44.40883" lon="1.73524">
        <ele>319.78</ele>
        <time>2023-04-17T08:09:17Z</time>
      </trkpt>
      <trkpt lat="44.40883" lon="1.73522">
        <ele>319.78</ele>
        <time>2023-04-17T08:09:18Z</time>
      </trkpt>
      <trkpt lat="44.40884" lon="1.7352">
        <ele>319.78</ele>
        <time>2023-04-17T08:09:19Z</time>
      </trkpt>
      <trkpt lat="44.40885" lon="1.73518">
        <ele>319.78</ele>
        <time>2023-04-17T08:09:20Z</time>
      </trkpt>
      <trkpt lat="44.40886" lon="1.73516">
        <ele>319.78</ele>
        <time>2023-04-17T08:09:21Z</time>
      </trkpt>
      <trkpt lat="44.40891" lon="1.73505">
        <ele>319.3</ele>
        <time>2023-04-17T08:09:33Z</time>
      </trkpt>
      <trkpt lat="44.40893" lon="1.73501">
        <ele>319.3</ele>
        <time>2023-04-17T08:09:36Z</time>
      </trkpt>
      <trkpt lat="44.40894" lon="1.73499">
        <ele>319.3</ele>
        <time>2023-04-17T08:09:37Z</time>
      </trkpt>
      <trkpt lat="44.40895" lon="1.73498">
        <ele>319.78</ele>
        <time>2023-04-17T08:09:38Z</time>
      </trkpt>
      <trkpt lat="44.40905" lon="1.73481">
        <ele>318.81</ele>
        <time>2023-04-17T08:09:52Z</time>
      </trkpt>
      <trkpt lat="44.40917" lon="1.73466">
        <ele>317.37</ele>
        <time>2023-04-17T08:10:06Z</time>
      </trkpt>
      <trkpt lat="44.40929" lon="1.7345">
        <ele>316.89</ele>
        <time>2023-04-17T08:10:20Z</time>
      </trkpt>
      <trkpt lat="44.40938" lon="1.73437">
        <ele>317.85</ele>
        <time>2023-04-17T08:10:33Z</time>
      </trkpt>
      <trkpt lat="44.4095" lon="1.73417">
        <ele>317.85</ele>
        <time>2023-04-17T08:10:47Z</time>
      </trkpt>
      <trkpt lat="44.40956" lon="1.73406">
        <ele>318.81</ele>
        <time>2023-04-17T08:11:00Z</time>
      </trkpt>
      <trkpt lat="44.4096" lon="1.73389">
        <ele>317.85</ele>
        <time>2023-04-17T08:11:13Z</time>
      </trkpt>
      <trkpt lat="44.40964" lon="1.73361">
        <ele>319.3</ele>
        <time>2023-04-17T08:11:30Z</time>
      </trkpt>
      <trkpt lat="44.40964" lon="1.7336">
        <ele>319.3</ele>
        <time>2023-04-17T08:11:31Z</time>
      </trkpt>
      <trkpt lat="44.4097" lon="1.73349">
        <ele>320.26</ele>
        <time>2023-04-17T08:11:42Z</time>
      </trkpt>
      <trkpt lat="44.40971" lon="1.73348">
        <ele>320.74</ele>
        <time>2023-04-17T08:11:43Z</time>
      </trkpt>
      <trkpt lat="44.4097" lon="1.73334">
        <ele>321.22</ele>
        <time>2023-04-17T08:11:55Z</time>
      </trkpt>
      <trkpt lat="44.4097" lon="1.73332">
        <ele>320.74</ele>
        <time>2023-04-17T08:12:09Z</time>
      </trkpt>
      <trkpt lat="44.40971" lon="1.73331">
        <ele>320.74</ele>
        <time>2023-04-17T08:12:25Z</time>
      </trkpt>
      <trkpt lat="44.4097" lon="1.73332">
        <ele>320.74</ele>
        <time>2023-04-17T08:12:46Z</time>
      </trkpt>
      <trkpt lat="44.40969" lon="1.73325">
        <ele>320.74</ele>
        <time>2023-04-17T08:13:03Z</time>
      </trkpt>
      <trkpt lat="44.40969" lon="1.73318">
        <ele>321.22</ele>
        <time>2023-04-17T08:13:09Z</time>
      </trkpt>
      <trkpt lat="44.40971" lon="1.73309">
        <ele>322.18</ele>
        <time>2023-04-17T08:13:20Z</time>
      </trkpt>
      <trkpt lat="44.40976" lon="1.73291">
        <ele>325.06</ele>
        <time>2023-04-17T08:13:34Z</time>
      </trkpt>
      <trkpt lat="44.40976" lon="1.73287">
        <ele>325.06</ele>
        <time>2023-04-17T08:13:36Z</time>
      </trkpt>
      <trkpt lat="44.40976" lon="1.73285">
        <ele>325.54</ele>
        <time>2023-04-17T08:13:37Z</time>
      </trkpt>
      <trkpt lat="44.40975" lon="1.73284">
        <ele>325.54</ele>
        <time>2023-04-17T08:13:38Z</time>
      </trkpt>
      <trkpt lat="44.40975" lon="1.73282">
        <ele>326.02</ele>
        <time>2023-04-17T08:13:39Z</time>
      </trkpt>
      <trkpt lat="44.40969" lon="1.73267">
        <ele>327.47</ele>
        <time>2023-04-17T08:13:52Z</time>
      </trkpt>
      <trkpt lat="44.40962" lon="1.73258">
        <ele>328.43</ele>
        <time>2023-04-17T08:14:04Z</time>
      </trkpt>
      <trkpt lat="44.40956" lon="1.73251">
        <ele>328.91</ele>
        <time>2023-04-17T08:14:14Z</time>
      </trkpt>
      <trkpt lat="44.40955" lon="1.73249">
        <ele>329.39</ele>
        <time>2023-04-17T08:14:15Z</time>
      </trkpt>
      <trkpt lat="44.40955" lon="1.73248">
        <ele>329.87</ele>
        <time>2023-04-17T08:14:16Z</time>
      </trkpt>
      <trkpt lat="44.40954" lon="1.73247">
        <ele>330.35</ele>
        <time>2023-04-17T08:14:17Z</time>
      </trkpt>
      <trkpt lat="44.40953" lon="1.73235">
        <ele>330.83</ele>
        <time>2023-04-17T08:14:26Z</time>
      </trkpt>
      <trkpt lat="44.40953" lon="1.73234">
        <ele>330.83</ele>
        <time>2023-04-17T08:14:27Z</time>
      </trkpt>
      <trkpt lat="44.40954" lon="1.73232">
        <ele>330.83</ele>
        <time>2023-04-17T08:14:28Z</time>
      </trkpt>
      <trkpt lat="44.40954" lon="1.7323">
        <ele>330.35</ele>
        <time>2023-04-17T08:14:29Z</time>
      </trkpt>
      <trkpt lat="44.40955" lon="1.73228">
        <ele>330.35</ele>
        <time>2023-04-17T08:14:30Z</time>
      </trkpt>
      <trkpt lat="44.40962" lon="1.73214">
        <ele>330.83</ele>
        <time>2023-04-17T08:14:44Z</time>
      </trkpt>
      <trkpt lat="44.40971" lon="1.73199">
        <ele>332.75</ele>
        <time>2023-04-17T08:14:58Z</time>
      </trkpt>
      <trkpt lat="44.40984" lon="1.73182">
        <ele>332.75</ele>
        <time>2023-04-17T08:15:14Z</time>
      </trkpt>
      <trkpt lat="44.41002" lon="1.73181">
        <ele>330.35</ele>
        <time>2023-04-17T08:15:31Z</time>
      </trkpt>
      <trkpt lat="44.41017" lon="1.73184">
        <ele>330.35</ele>
        <time>2023-04-17T08:15:46Z</time>
      </trkpt>
      <trkpt lat="44.41029" lon="1.73189">
        <ele>329.87</ele>
        <time>2023-04-17T08:16:01Z</time>
      </trkpt>
      <trkpt lat="44.41029" lon="1.73195">
        <ele>327.47</ele>
        <time>2023-04-17T08:16:15Z</time>
      </trkpt>
      <trkpt lat="44.4103" lon="1.73194">
        <ele>327.95</ele>
        <time>2023-04-17T08:16:31Z</time>
      </trkpt>
      <trkpt lat="44.4103" lon="1.73197">
        <ele>328.43</ele>
        <time>2023-04-17T08:16:46Z</time>
      </trkpt>
      <trkpt lat="44.4103" lon="1.73198">
        <ele>330.83</ele>
        <time>2023-04-17T08:17:13Z</time>
      </trkpt>
      <trkpt lat="44.4103" lon="1.73195">
        <ele>329.39</ele>
        <time>2023-04-17T08:17:27Z</time>
      </trkpt>
      <trkpt lat="44.41036" lon="1.73186">
        <ele>328.91</ele>
        <time>2023-04-17T08:17:40Z</time>
      </trkpt>
      <trkpt lat="44.41034" lon="1.73185">
        <ele>330.35</ele>
        <time>2023-04-17T08:18:14Z</time>
      </trkpt>
      <trkpt lat="44.41033" lon="1.73186">
        <ele>329.39</ele>
        <time>2023-04-17T08:18:56Z</time>
      </trkpt>
      <trkpt lat="44.41033" lon="1.7319">
        <ele>329.39</ele>
        <time>2023-04-17T08:19:36Z</time>
      </trkpt>
      <trkpt lat="44.41037" lon="1.73187">
        <ele>327.95</ele>
        <time>2023-04-17T08:20:12Z</time>
      </trkpt>
      <trkpt lat="44.41036" lon="1.73186">
        <ele>326.02</ele>
        <time>2023-04-17T08:20:58Z</time>
      </trkpt>
      <trkpt lat="44.41033" lon="1.73185">
        <ele>321.7</ele>
        <time>2023-04-17T08:21:42Z</time>
      </trkpt>
      <trkpt lat="44.41033" lon="1.73182">
        <ele>320.26</ele>
        <time>2023-04-17T08:22:24Z</time>
      </trkpt>
      <trkpt lat="44.41035" lon="1.73182">
        <ele>320.74</ele>
        <time>2023-04-17T08:23:03Z</time>
      </trkpt>
      <trkpt lat="44.41033" lon="1.73188">
        <ele>323.14</ele>
        <time>2023-04-17T08:23:26Z</time>
      </trkpt>
      <trkpt lat="44.41035" lon="1.73187">
        <ele>321.7</ele>
        <time>2023-04-17T08:23:58Z</time>
      </trkpt>
      <trkpt lat="44.41037" lon="1.73187">
        <ele>323.14</ele>
        <time>2023-04-17T08:24:31Z</time>
      </trkpt>
      <trkpt lat="44.41037" lon="1.73183">
        <ele>324.1</ele>
        <time>2023-04-17T08:24:55Z</time>
      </trkpt>
      <trkpt lat="44.41035" lon="1.73185">
        <ele>323.14</ele>
        <time>2023-04-17T08:25:04Z</time>
      </trkpt>
      <trkpt lat="44.41038" lon="1.73197">
        <ele>325.06</ele>
        <time>2023-04-17T08:25:16Z</time>
      </trkpt>
      <trkpt lat="44.41039" lon="1.73197">
        <ele>325.06</ele>
        <time>2023-04-17T08:25:17Z</time>
      </trkpt>
      <trkpt lat="44.4105" lon="1.73189">
        <ele>326.02</ele>
        <time>2023-04-17T08:25:33Z</time>
      </trkpt>
      <trkpt lat="44.41052" lon="1.73187">
        <ele>325.54</ele>
        <time>2023-04-17T08:25:35Z</time>
      </trkpt>
      <trkpt lat="44.41056" lon="1.73184">
        <ele>326.02</ele>
        <time>2023-04-17T08:25:39Z</time>
      </trkpt>
      <trkpt lat="44.41057" lon="1.73183">
        <ele>326.02</ele>
        <time>2023-04-17T08:25:40Z</time>
      </trkpt>
      <trkpt lat="44.41063" lon="1.73176">
        <ele>326.02</ele>
        <time>2023-04-17T08:25:49Z</time>
      </trkpt>
      <trkpt lat="44.41064" lon="1.73175">
        <ele>325.54</ele>
        <time>2023-04-17T08:25:50Z</time>
      </trkpt>
      <trkpt lat="44.41065" lon="1.73174">
        <ele>325.54</ele>
        <time>2023-04-17T08:25:51Z</time>
      </trkpt>
      <trkpt lat="44.41074" lon="1.73156">
        <ele>321.22</ele>
        <time>2023-04-17T08:26:09Z</time>
      </trkpt>
      <trkpt lat="44.41086" lon="1.73134">
        <ele>323.14</ele>
        <time>2023-04-17T08:26:21Z</time>
      </trkpt>
      <trkpt lat="44.41089" lon="1.73127">
        <ele>323.14</ele>
        <time>2023-04-17T08:26:25Z</time>
      </trkpt>
      <trkpt lat="44.4109" lon="1.73124">
        <ele>323.14</ele>
        <time>2023-04-17T08:26:27Z</time>
      </trkpt>
      <trkpt lat="44.41095" lon="1.73114">
        <ele>322.18</ele>
        <time>2023-04-17T08:26:38Z</time>
      </trkpt>
      <trkpt lat="44.41097" lon="1.7311">
        <ele>320.74</ele>
        <time>2023-04-17T08:26:44Z</time>
      </trkpt>
      <trkpt lat="44.41098" lon="1.73102">
        <ele>319.3</ele>
        <time>2023-04-17T08:26:49Z</time>
      </trkpt>
      <trkpt lat="44.41104" lon="1.73083">
        <ele>318.81</ele>
        <time>2023-04-17T08:27:02Z</time>
      </trkpt>
      <trkpt lat="44.41107" lon="1.73068">
        <ele>312.09</ele>
        <time>2023-04-17T08:27:14Z</time>
      </trkpt>
      <trkpt lat="44.41115" lon="1.73054">
        <ele>310.64</ele>
        <time>2023-04-17T08:27:21Z</time>
      </trkpt>
      <trkpt lat="44.41124" lon="1.73045">
        <ele>310.16</ele>
        <time>2023-04-17T08:27:33Z</time>
      </trkpt>
      <trkpt lat="44.41134" lon="1.73034">
        <ele>308.24</ele>
        <time>2023-04-17T08:27:46Z</time>
      </trkpt>
      <trkpt lat="44.41142" lon="1.73028">
        <ele>305.84</ele>
        <time>2023-04-17T08:27:59Z</time>
      </trkpt>
      <trkpt lat="44.41145" lon="1.73026">
        <ele>305.36</ele>
        <time>2023-04-17T08:28:02Z</time>
      </trkpt>
      <trkpt lat="44.41147" lon="1.73024">
        <ele>304.88</ele>
        <time>2023-04-17T08:28:03Z</time>
      </trkpt>
      <trkpt lat="44.41149" lon="1.73022">
        <ele>305.36</ele>
        <time>2023-04-17T08:28:04Z</time>
      </trkpt>
      <trkpt lat="44.41151" lon="1.7302">
        <ele>305.36</ele>
        <time>2023-04-17T08:28:05Z</time>
      </trkpt>
      <trkpt lat="44.41153" lon="1.73018">
        <ele>305.36</ele>
        <time>2023-04-17T08:28:06Z</time>
      </trkpt>
      <trkpt lat="44.41162" lon="1.73013">
        <ele>306.32</ele>
        <time>2023-04-17T08:28:11Z</time>
      </trkpt>
      <trkpt lat="44.41163" lon="1.73013">
        <ele>306.32</ele>
        <time>2023-04-17T08:28:12Z</time>
      </trkpt>
      <trkpt lat="44.41164" lon="1.73012">
        <ele>306.32</ele>
        <time>2023-04-17T08:28:13Z</time>
      </trkpt>
      <trkpt lat="44.41173" lon="1.73007">
        <ele>306.32</ele>
        <time>2023-04-17T08:28:26Z</time>
      </trkpt>
      <trkpt lat="44.41179" lon="1.73004">
        <ele>305.84</ele>
        <time>2023-04-17T08:28:32Z</time>
      </trkpt>
      <trkpt lat="44.4118" lon="1.73003">
        <ele>305.84</ele>
        <time>2023-04-17T08:28:33Z</time>
      </trkpt>
      <trkpt lat="44.41182" lon="1.73003">
        <ele>305.84</ele>
        <time>2023-04-17T08:28:34Z</time>
      </trkpt>
      <trkpt lat="44.41183" lon="1.73003">
        <ele>305.84</ele>
        <time>2023-04-17T08:28:35Z</time>
      </trkpt>
      <trkpt lat="44.41185" lon="1.73003">
        <ele>305.84</ele>
        <time>2023-04-17T08:28:36Z</time>
      </trkpt>
      <trkpt lat="44.41194" lon="1.72997">
        <ele>304.88</ele>
        <time>2023-04-17T08:28:50Z</time>
      </trkpt>
      <trkpt lat="44.41198" lon="1.72995">
        <ele>303.91</ele>
        <time>2023-04-17T08:28:54Z</time>
      </trkpt>
      <trkpt lat="44.412" lon="1.72994">
        <ele>303.43</ele>
        <time>2023-04-17T08:28:55Z</time>
      </trkpt>
      <trkpt lat="44.41202" lon="1.72993">
        <ele>303.43</ele>
        <time>2023-04-17T08:28:56Z</time>
      </trkpt>
      <trkpt lat="44.41203" lon="1.72993">
        <ele>303.43</ele>
        <time>2023-04-17T08:28:57Z</time>
      </trkpt>
      <trkpt lat="44.41204" lon="1.72992">
        <ele>302.95</ele>
        <time>2023-04-17T08:28:58Z</time>
      </trkpt>
      <trkpt lat="44.41218" lon="1.72991">
        <ele>301.03</ele>
        <time>2023-04-17T08:29:10Z</time>
      </trkpt>
      <trkpt lat="44.4123" lon="1.72988">
        <ele>296.22</ele>
        <time>2023-04-17T08:29:26Z</time>
      </trkpt>
      <trkpt lat="44.41245" lon="1.72989">
        <ele>292.38</ele>
        <time>2023-04-17T08:29:42Z</time>
      </trkpt>
      <trkpt lat="44.41257" lon="1.72993">
        <ele>288.53</ele>
        <time>2023-04-17T08:29:55Z</time>
      </trkpt>
      <trkpt lat="44.4127" lon="1.73">
        <ele>284.69</ele>
        <time>2023-04-17T08:30:09Z</time>
      </trkpt>
      <trkpt lat="44.41286" lon="1.73006">
        <ele>279.88</ele>
        <time>2023-04-17T08:30:25Z</time>
      </trkpt>
      <trkpt lat="44.41303" lon="1.73016">
        <ele>277.96</ele>
        <time>2023-04-17T08:30:42Z</time>
      </trkpt>
      <trkpt lat="44.41304" lon="1.73018">
        <ele>277.48</ele>
        <time>2023-04-17T08:30:44Z</time>
      </trkpt>
      <trkpt lat="44.41317" lon="1.73029">
        <ele>276.04</ele>
        <time>2023-04-17T08:31:00Z</time>
      </trkpt>
      <trkpt lat="44.4133" lon="1.73042">
        <ele>278.92</ele>
        <time>2023-04-17T08:31:17Z</time>
      </trkpt>
      <trkpt lat="44.41343" lon="1.73058">
        <ele>278.44</ele>
        <time>2023-04-17T08:31:33Z</time>
      </trkpt>
      <trkpt lat="44.41362" lon="1.73076">
        <ele>280.84</ele>
        <time>2023-04-17T08:31:51Z</time>
      </trkpt>
      <trkpt lat="44.41382" lon="1.73082">
        <ele>278.92</ele>
        <time>2023-04-17T08:32:09Z</time>
      </trkpt>
      <trkpt lat="44.41406" lon="1.73081">
        <ele>278.44</ele>
        <time>2023-04-17T08:32:28Z</time>
      </trkpt>
      <trkpt lat="44.41422" lon="1.73082">
        <ele>277.48</ele>
        <time>2023-04-17T08:32:44Z</time>
      </trkpt>
      <trkpt lat="44.41423" lon="1.73083">
        <ele>277.48</ele>
        <time>2023-04-17T08:32:45Z</time>
      </trkpt>
      <trkpt lat="44.41425" lon="1.73096">
        <ele>276.04</ele>
        <time>2023-04-17T08:32:59Z</time>
      </trkpt>
      <trkpt lat="44.41428" lon="1.73086">
        <ele>274.59</ele>
        <time>2023-04-17T08:33:12Z</time>
      </trkpt>
      <trkpt lat="44.41425" lon="1.73086">
        <ele>274.59</ele>
        <time>2023-04-17T08:33:26Z</time>
      </trkpt>
      <trkpt lat="44.41426" lon="1.73083">
        <ele>277.48</ele>
        <time>2023-04-17T08:33:39Z</time>
      </trkpt>
      <trkpt lat="44.41437" lon="1.73093">
        <ele>274.59</ele>
        <time>2023-04-17T08:33:54Z</time>
      </trkpt>
      <trkpt lat="44.41442" lon="1.73098">
        <ele>273.63</ele>
        <time>2023-04-17T08:34:00Z</time>
      </trkpt>
      <trkpt lat="44.41443" lon="1.73099">
        <ele>273.63</ele>
        <time>2023-04-17T08:34:01Z</time>
      </trkpt>
      <trkpt lat="44.41444" lon="1.731">
        <ele>273.63</ele>
        <time>2023-04-17T08:34:02Z</time>
      </trkpt>
      <trkpt lat="44.41445" lon="1.73101">
        <ele>273.15</ele>
        <time>2023-04-17T08:34:03Z</time>
      </trkpt>
      <trkpt lat="44.41446" lon="1.73103">
        <ele>273.15</ele>
        <time>2023-04-17T08:34:04Z</time>
      </trkpt>
      <trkpt lat="44.41447" lon="1.73104">
        <ele>272.67</ele>
        <time>2023-04-17T08:34:05Z</time>
      </trkpt>
      <trkpt lat="44.41465" lon="1.73121">
        <ele>273.15</ele>
        <time>2023-04-17T08:34:23Z</time>
      </trkpt>
      <trkpt lat="44.41482" lon="1.73133">
        <ele>272.67</ele>
        <time>2023-04-17T08:34:41Z</time>
      </trkpt>
      <trkpt lat="44.41498" lon="1.73124">
        <ele>270.75</ele>
        <time>2023-04-17T08:34:57Z</time>
      </trkpt>
      <trkpt lat="44.41508" lon="1.73111">
        <ele>270.27</ele>
        <time>2023-04-17T08:35:10Z</time>
      </trkpt>
      <trkpt lat="44.41521" lon="1.73101">
        <ele>268.83</ele>
        <time>2023-04-17T08:35:25Z</time>
      </trkpt>
      <trkpt lat="44.41527" lon="1.73094">
        <ele>266.42</ele>
        <time>2023-04-17T08:35:35Z</time>
      </trkpt>
      <trkpt lat="44.41543" lon="1.73084">
        <ele>266.9</ele>
        <time>2023-04-17T08:35:43Z</time>
      </trkpt>
      <trkpt lat="44.41544" lon="1.73083">
        <ele>267.38</ele>
        <time>2023-04-17T08:35:44Z</time>
      </trkpt>
      <trkpt lat="44.41554" lon="1.73079">
        <ele>267.38</ele>
        <time>2023-04-17T08:35:56Z</time>
      </trkpt>
      <trkpt lat="44.41555" lon="1.73079">
        <ele>267.38</ele>
        <time>2023-04-17T08:35:57Z</time>
      </trkpt>
      <trkpt lat="44.41564" lon="1.73084">
        <ele>267.38</ele>
        <time>2023-04-17T08:36:05Z</time>
      </trkpt>
      <trkpt lat="44.41565" lon="1.73086">
        <ele>267.38</ele>
        <time>2023-04-17T08:36:06Z</time>
      </trkpt>
      <trkpt lat="44.41565" lon="1.73088">
        <ele>267.38</ele>
        <time>2023-04-17T08:36:07Z</time>
      </trkpt>
      <trkpt lat="44.41574" lon="1.73095">
        <ele>267.38</ele>
        <time>2023-04-17T08:36:18Z</time>
      </trkpt>
      <trkpt lat="44.41577" lon="1.73097">
        <ele>266.9</ele>
        <time>2023-04-17T08:36:21Z</time>
      </trkpt>
      <trkpt lat="44.41578" lon="1.73099">
        <ele>266.42</ele>
        <time>2023-04-17T08:36:22Z</time>
      </trkpt>
      <trkpt lat="44.41582" lon="1.73106">
        <ele>265.94</ele>
        <time>2023-04-17T08:36:35Z</time>
      </trkpt>
      <trkpt lat="44.41583" lon="1.73106">
        <ele>265.94</ele>
        <time>2023-04-17T08:36:49Z</time>
      </trkpt>
      <trkpt lat="44.41595" lon="1.7312">
        <ele>268.83</ele>
        <time>2023-04-17T08:37:03Z</time>
      </trkpt>
      <trkpt lat="44.41602" lon="1.73143">
        <ele>272.19</ele>
        <time>2023-04-17T08:37:18Z</time>
      </trkpt>
      <trkpt lat="44.41602" lon="1.73145">
        <ele>272.19</ele>
        <time>2023-04-17T08:37:19Z</time>
      </trkpt>
      <trkpt lat="44.41597" lon="1.73171">
        <ele>271.23</ele>
        <time>2023-04-17T08:37:33Z</time>
      </trkpt>
      <trkpt lat="44.41594" lon="1.73191">
        <ele>271.23</ele>
        <time>2023-04-17T08:37:48Z</time>
      </trkpt>
      <trkpt lat="44.41591" lon="1.73211">
        <ele>271.71</ele>
        <time>2023-04-17T08:38:01Z</time>
      </trkpt>
      <trkpt lat="44.41594" lon="1.73232">
        <ele>272.19</ele>
        <time>2023-04-17T08:38:14Z</time>
      </trkpt>
      <trkpt lat="44.41594" lon="1.73234">
        <ele>272.19</ele>
        <time>2023-04-17T08:38:15Z</time>
      </trkpt>
      <trkpt lat="44.41594" lon="1.73236">
        <ele>272.19</ele>
        <time>2023-04-17T08:38:16Z</time>
      </trkpt>
      <trkpt lat="44.41594" lon="1.73238">
        <ele>271.71</ele>
        <time>2023-04-17T08:38:17Z</time>
      </trkpt>
      <trkpt lat="44.41595" lon="1.7324">
        <ele>271.71</ele>
        <time>2023-04-17T08:38:18Z</time>
      </trkpt>
      <trkpt lat="44.41597" lon="1.73259">
        <ele>270.27</ele>
        <time>2023-04-17T08:38:30Z</time>
      </trkpt>
      <trkpt lat="44.41602" lon="1.73278">
        <ele>271.23</ele>
        <time>2023-04-17T08:38:44Z</time>
      </trkpt>
      <trkpt lat="44.41609" lon="1.73298">
        <ele>272.67</ele>
        <time>2023-04-17T08:38:59Z</time>
      </trkpt>
      <trkpt lat="44.41618" lon="1.73321">
        <ele>274.11</ele>
        <time>2023-04-17T08:39:14Z</time>
      </trkpt>
      <trkpt lat="44.41627" lon="1.73338">
        <ele>271.71</ele>
        <time>2023-04-17T08:39:30Z</time>
      </trkpt>
      <trkpt lat="44.41645" lon="1.73352">
        <ele>268.35</ele>
        <time>2023-04-17T08:39:49Z</time>
      </trkpt>
      <trkpt lat="44.41654" lon="1.73356">
        <ele>267.86</ele>
        <time>2023-04-17T08:39:58Z</time>
      </trkpt>
      <trkpt lat="44.41656" lon="1.73356">
        <ele>267.86</ele>
        <time>2023-04-17T08:39:59Z</time>
      </trkpt>
      <trkpt lat="44.41657" lon="1.73357">
        <ele>268.35</ele>
        <time>2023-04-17T08:40:00Z</time>
      </trkpt>
      <trkpt lat="44.41668" lon="1.73362">
        <ele>269.31</ele>
        <time>2023-04-17T08:40:10Z</time>
      </trkpt>
      <trkpt lat="44.41689" lon="1.73381">
        <ele>268.83</ele>
        <time>2023-04-17T08:40:29Z</time>
      </trkpt>
      <trkpt lat="44.41696" lon="1.73393">
        <ele>268.35</ele>
        <time>2023-04-17T08:40:38Z</time>
      </trkpt>
      <trkpt lat="44.41696" lon="1.73394">
        <ele>268.35</ele>
        <time>2023-04-17T08:40:39Z</time>
      </trkpt>
      <trkpt lat="44.41697" lon="1.73396">
        <ele>268.35</ele>
        <time>2023-04-17T08:40:40Z</time>
      </trkpt>
      <trkpt lat="44.41704" lon="1.73418">
        <ele>270.75</ele>
        <time>2023-04-17T08:40:55Z</time>
      </trkpt>
      <trkpt lat="44.41713" lon="1.73448">
        <ele>274.11</ele>
        <time>2023-04-17T08:41:12Z</time>
      </trkpt>
      <trkpt lat="44.41717" lon="1.73479">
        <ele>272.67</ele>
        <time>2023-04-17T08:41:32Z</time>
      </trkpt>
      <trkpt lat="44.41722" lon="1.73509">
        <ele>273.15</ele>
        <time>2023-04-17T08:41:49Z</time>
      </trkpt>
      <trkpt lat="44.41722" lon="1.73525">
        <ele>271.71</ele>
        <time>2023-04-17T08:41:59Z</time>
      </trkpt>
      <trkpt lat="44.41722" lon="1.73526">
        <ele>271.71</ele>
        <time>2023-04-17T08:42:00Z</time>
      </trkpt>
      <trkpt lat="44.41722" lon="1.73528">
        <ele>271.71</ele>
        <time>2023-04-17T08:42:01Z</time>
      </trkpt>
      <trkpt lat="44.41725" lon="1.73553">
        <ele>269.31</ele>
        <time>2023-04-17T08:42:16Z</time>
      </trkpt>
      <trkpt lat="44.41732" lon="1.73583">
        <ele>272.67</ele>
        <time>2023-04-17T08:42:33Z</time>
      </trkpt>
      <trkpt lat="44.41736" lon="1.736">
        <ele>270.75</ele>
        <time>2023-04-17T08:42:45Z</time>
      </trkpt>
      <trkpt lat="44.41744" lon="1.73624">
        <ele>268.83</ele>
        <time>2023-04-17T08:43:02Z</time>
      </trkpt>
      <trkpt lat="44.41755" lon="1.7364">
        <ele>267.86</ele>
        <time>2023-04-17T08:43:18Z</time>
      </trkpt>
      <trkpt lat="44.41757" lon="1.73641">
        <ele>267.86</ele>
        <time>2023-04-17T08:43:20Z</time>
      </trkpt>
      <trkpt lat="44.41766" lon="1.73641">
        <ele>265.94</ele>
        <time>2023-04-17T08:43:30Z</time>
      </trkpt>
      <trkpt lat="44.41767" lon="1.73641">
        <ele>265.94</ele>
        <time>2023-04-17T08:43:31Z</time>
      </trkpt>
      <trkpt lat="44.4179" lon="1.73635">
        <ele>266.9</ele>
        <time>2023-04-17T08:43:51Z</time>
      </trkpt>
      <trkpt lat="44.41813" lon="1.73627">
        <ele>264.98</ele>
        <time>2023-04-17T08:44:11Z</time>
      </trkpt>
      <trkpt lat="44.41835" lon="1.73622">
        <ele>261.62</ele>
        <time>2023-04-17T08:44:29Z</time>
      </trkpt>
      <trkpt lat="44.41857" lon="1.73619">
        <ele>261.62</ele>
        <time>2023-04-17T08:44:48Z</time>
      </trkpt>
      <trkpt lat="44.41883" lon="1.73611">
        <ele>262.58</ele>
        <time>2023-04-17T08:45:07Z</time>
      </trkpt>
      <trkpt lat="44.41884" lon="1.73611">
        <ele>262.1</ele>
        <time>2023-04-17T08:45:08Z</time>
      </trkpt>
      <trkpt lat="44.41904" lon="1.73605">
        <ele>262.1</ele>
        <time>2023-04-17T08:45:24Z</time>
      </trkpt>
      <trkpt lat="44.41929" lon="1.73601">
        <ele>265.94</ele>
        <time>2023-04-17T08:45:45Z</time>
      </trkpt>
      <trkpt lat="44.41944" lon="1.73608">
        <ele>266.42</ele>
        <time>2023-04-17T08:45:59Z</time>
      </trkpt>
      <trkpt lat="44.41951" lon="1.73617">
        <ele>264.5</ele>
        <time>2023-04-17T08:46:08Z</time>
      </trkpt>
      <trkpt lat="44.41964" lon="1.7364">
        <ele>265.94</ele>
        <time>2023-04-17T08:46:24Z</time>
      </trkpt>
      <trkpt lat="44.41972" lon="1.73668">
        <ele>264.5</ele>
        <time>2023-04-17T08:46:42Z</time>
      </trkpt>
      <trkpt lat="44.41982" lon="1.73697">
        <ele>264.98</ele>
        <time>2023-04-17T08:47:01Z</time>
      </trkpt>
      <trkpt lat="44.41996" lon="1.73727">
        <ele>265.46</ele>
        <time>2023-04-17T08:47:21Z</time>
      </trkpt>
      <trkpt lat="44.42013" lon="1.73748">
        <ele>265.94</ele>
        <time>2023-04-17T08:47:39Z</time>
      </trkpt>
      <trkpt lat="44.42034" lon="1.73758">
        <ele>266.9</ele>
        <time>2023-04-17T08:47:58Z</time>
      </trkpt>
      <trkpt lat="44.4205" lon="1.73763">
        <ele>268.35</ele>
        <time>2023-04-17T08:48:15Z</time>
      </trkpt>
      <trkpt lat="44.42072" lon="1.73766">
        <ele>271.71</ele>
        <time>2023-04-17T08:48:34Z</time>
      </trkpt>
      <trkpt lat="44.42087" lon="1.73764">
        <ele>274.11</ele>
        <time>2023-04-17T08:48:50Z</time>
      </trkpt>
      <trkpt lat="44.42097" lon="1.73758">
        <ele>274.11</ele>
        <time>2023-04-17T08:49:05Z</time>
      </trkpt>
      <trkpt lat="44.421" lon="1.73756">
        <ele>274.11</ele>
        <time>2023-04-17T08:49:09Z</time>
      </trkpt>
      <trkpt lat="44.42102" lon="1.73754">
        <ele>274.11</ele>
        <time>2023-04-17T08:49:11Z</time>
      </trkpt>
      <trkpt lat="44.42114" lon="1.7375">
        <ele>274.59</ele>
        <time>2023-04-17T08:49:24Z</time>
      </trkpt>
      <trkpt lat="44.4213" lon="1.73753">
        <ele>278.92</ele>
        <time>2023-04-17T08:49:41Z</time>
      </trkpt>
      <trkpt lat="44.42147" lon="1.73757">
        <ele>279.4</ele>
        <time>2023-04-17T08:49:57Z</time>
      </trkpt>
      <trkpt lat="44.42163" lon="1.73761">
        <ele>280.84</ele>
        <time>2023-04-17T08:50:13Z</time>
      </trkpt>
      <trkpt lat="44.42179" lon="1.73768">
        <ele>281.8</ele>
        <time>2023-04-17T08:50:29Z</time>
      </trkpt>
      <trkpt lat="44.42198" lon="1.7378">
        <ele>280.36</ele>
        <time>2023-04-17T08:50:48Z</time>
      </trkpt>
      <trkpt lat="44.42215" lon="1.73793">
        <ele>279.88</ele>
        <time>2023-04-17T08:51:06Z</time>
      </trkpt>
      <trkpt lat="44.42229" lon="1.73794">
        <ele>279.4</ele>
        <time>2023-04-17T08:51:21Z</time>
      </trkpt>
      <trkpt lat="44.42235" lon="1.73789">
        <ele>279.88</ele>
        <time>2023-04-17T08:51:40Z</time>
      </trkpt>
      <trkpt lat="44.42244" lon="1.73793">
        <ele>280.84</ele>
        <time>2023-04-17T08:51:54Z</time>
      </trkpt>
      <trkpt lat="44.42256" lon="1.73802">
        <ele>281.32</ele>
        <time>2023-04-17T08:52:11Z</time>
      </trkpt>
      <trkpt lat="44.4226" lon="1.738">
        <ele>281.8</ele>
        <time>2023-04-17T08:52:27Z</time>
      </trkpt>
      <trkpt lat="44.4226" lon="1.73804">
        <ele>283.73</ele>
        <time>2023-04-17T08:52:42Z</time>
      </trkpt>
      <trkpt lat="44.42261" lon="1.73804">
        <ele>286.61</ele>
        <time>2023-04-17T08:52:54Z</time>
      </trkpt>
      <trkpt lat="44.42259" lon="1.73803">
        <ele>286.61</ele>
        <time>2023-04-17T08:53:08Z</time>
      </trkpt>
      <trkpt lat="44.4226" lon="1.73804">
        <ele>286.13</ele>
        <time>2023-04-17T08:53:27Z</time>
      </trkpt>
      <trkpt lat="44.42261" lon="1.73802">
        <ele>286.61</ele>
        <time>2023-04-17T08:53:42Z</time>
      </trkpt>
      <trkpt lat="44.42259" lon="1.73807">
        <ele>286.13</ele>
        <time>2023-04-17T08:53:59Z</time>
      </trkpt>
      <trkpt lat="44.42258" lon="1.73808">
        <ele>286.61</ele>
        <time>2023-04-17T08:54:21Z</time>
      </trkpt>
      <trkpt lat="44.42252" lon="1.73806">
        <ele>285.65</ele>
        <time>2023-04-17T08:54:40Z</time>
      </trkpt>
      <trkpt lat="44.42247" lon="1.738">
        <ele>283.25</ele>
        <time>2023-04-17T08:55:02Z</time>
      </trkpt>
      <trkpt lat="44.42233" lon="1.73792">
        <ele>280.36</ele>
        <time>2023-04-17T08:55:20Z</time>
      </trkpt>
      <trkpt lat="44.42233" lon="1.73801">
        <ele>282.77</ele>
        <time>2023-04-17T08:55:35Z</time>
      </trkpt>
      <trkpt lat="44.4224" lon="1.73812">
        <ele>282.77</ele>
        <time>2023-04-17T08:55:46Z</time>
      </trkpt>
      <trkpt lat="44.42252" lon="1.73826">
        <ele>283.25</ele>
        <time>2023-04-17T08:56:01Z</time>
      </trkpt>
      <trkpt lat="44.4227" lon="1.7384">
        <ele>284.69</ele>
        <time>2023-04-17T08:56:18Z</time>
      </trkpt>
      <trkpt lat="44.42283" lon="1.73847">
        <ele>286.13</ele>
        <time>2023-04-17T08:56:33Z</time>
      </trkpt>
      <trkpt lat="44.42286" lon="1.73847">
        <ele>286.13</ele>
        <time>2023-04-17T08:56:50Z</time>
      </trkpt>
      <trkpt lat="44.42293" lon="1.73854">
        <ele>285.17</ele>
        <time>2023-04-17T08:57:02Z</time>
      </trkpt>
      <trkpt lat="44.42306" lon="1.73867">
        <ele>280.36</ele>
        <time>2023-04-17T08:57:18Z</time>
      </trkpt>
      <trkpt lat="44.42321" lon="1.73877">
        <ele>280.36</ele>
        <time>2023-04-17T08:57:32Z</time>
      </trkpt>
      <trkpt lat="44.42343" lon="1.73889">
        <ele>278.44</ele>
        <time>2023-04-17T08:57:49Z</time>
      </trkpt>
      <trkpt lat="44.42363" lon="1.73908">
        <ele>279.88</ele>
        <time>2023-04-17T08:58:08Z</time>
      </trkpt>
      <trkpt lat="44.42376" lon="1.73928">
        <ele>281.32</ele>
        <time>2023-04-17T08:58:23Z</time>
      </trkpt>
      <trkpt lat="44.42392" lon="1.73952">
        <ele>283.73</ele>
        <time>2023-04-17T08:58:39Z</time>
      </trkpt>
      <trkpt lat="44.42399" lon="1.73972">
        <ele>279.88</ele>
        <time>2023-04-17T08:58:55Z</time>
      </trkpt>
      <trkpt lat="44.42402" lon="1.73999">
        <ele>277.96</ele>
        <time>2023-04-17T08:59:11Z</time>
      </trkpt>
      <trkpt lat="44.42404" lon="1.7402">
        <ele>276.04</ele>
        <time>2023-04-17T08:59:25Z</time>
      </trkpt>
      <trkpt lat="44.42406" lon="1.74025">
        <ele>274.59</ele>
        <time>2023-04-17T08:59:28Z</time>
      </trkpt>
      <trkpt lat="44.42412" lon="1.74055">
        <ele>276.04</ele>
        <time>2023-04-17T08:59:44Z</time>
      </trkpt>
      <trkpt lat="44.42419" lon="1.74071">
        <ele>276.04</ele>
        <time>2023-04-17T08:59:55Z</time>
      </trkpt>
      <trkpt lat="44.42422" lon="1.74079">
        <ele>275.56</ele>
        <time>2023-04-17T09:00:01Z</time>
      </trkpt>
      <trkpt lat="44.42435" lon="1.74102">
        <ele>275.07</ele>
        <time>2023-04-17T09:00:19Z</time>
      </trkpt>
      <trkpt lat="44.4245" lon="1.74119">
        <ele>277</ele>
        <time>2023-04-17T09:00:31Z</time>
      </trkpt>
      <trkpt lat="44.42451" lon="1.7412">
        <ele>277.48</ele>
        <time>2023-04-17T09:00:32Z</time>
      </trkpt>
      <trkpt lat="44.42463" lon="1.74135">
        <ele>275.56</ele>
        <time>2023-04-17T09:00:46Z</time>
      </trkpt>
      <trkpt lat="44.42479" lon="1.74151">
        <ele>274.59</ele>
        <time>2023-04-17T09:01:00Z</time>
      </trkpt>
      <trkpt lat="44.42492" lon="1.74158">
        <ele>274.11</ele>
        <time>2023-04-17T09:01:11Z</time>
      </trkpt>
      <trkpt lat="44.42509" lon="1.74165">
        <ele>272.19</ele>
        <time>2023-04-17T09:01:27Z</time>
      </trkpt>
      <trkpt lat="44.42523" lon="1.74165">
        <ele>271.23</ele>
        <time>2023-04-17T09:01:40Z</time>
      </trkpt>
      <trkpt lat="44.42547" lon="1.7416">
        <ele>271.71</ele>
        <time>2023-04-17T09:01:57Z</time>
      </trkpt>
      <trkpt lat="44.42572" lon="1.74153">
        <ele>273.15</ele>
        <time>2023-04-17T09:02:15Z</time>
      </trkpt>
      <trkpt lat="44.42598" lon="1.74148">
        <ele>273.63</ele>
        <time>2023-04-17T09:02:34Z</time>
      </trkpt>
      <trkpt lat="44.42613" lon="1.74146">
        <ele>272.67</ele>
        <time>2023-04-17T09:02:48Z</time>
      </trkpt>
      <trkpt lat="44.42625" lon="1.74152">
        <ele>276.04</ele>
        <time>2023-04-17T09:02:59Z</time>
      </trkpt>
      <trkpt lat="44.42639" lon="1.7417">
        <ele>276.04</ele>
        <time>2023-04-17T09:03:16Z</time>
      </trkpt>
      <trkpt lat="44.42651" lon="1.74189">
        <ele>275.56</ele>
        <time>2023-04-17T09:03:30Z</time>
      </trkpt>
      <trkpt lat="44.42657" lon="1.74201">
        <ele>277</ele>
        <time>2023-04-17T09:03:41Z</time>
      </trkpt>
      <trkpt lat="44.42661" lon="1.74211">
        <ele>277</ele>
        <time>2023-04-17T09:03:53Z</time>
      </trkpt>
      <trkpt lat="44.42667" lon="1.74227">
        <ele>278.92</ele>
        <time>2023-04-17T09:04:05Z</time>
      </trkpt>
      <trkpt lat="44.42671" lon="1.74244">
        <ele>279.88</ele>
        <time>2023-04-17T09:04:18Z</time>
      </trkpt>
      <trkpt lat="44.42675" lon="1.74261">
        <ele>281.8</ele>
        <time>2023-04-17T09:04:29Z</time>
      </trkpt>
      <trkpt lat="44.42676" lon="1.74263">
        <ele>282.28</ele>
        <time>2023-04-17T09:04:30Z</time>
      </trkpt>
      <trkpt lat="44.42677" lon="1.74264">
        <ele>282.28</ele>
        <time>2023-04-17T09:04:31Z</time>
      </trkpt>
      <trkpt lat="44.42678" lon="1.74265">
        <ele>282.77</ele>
        <time>2023-04-17T09:04:32Z</time>
      </trkpt>
      <trkpt lat="44.42679" lon="1.74266">
        <ele>282.77</ele>
        <time>2023-04-17T09:04:33Z</time>
      </trkpt>
      <trkpt lat="44.4268" lon="1.74267">
        <ele>282.77</ele>
        <time>2023-04-17T09:04:34Z</time>
      </trkpt>
      <trkpt lat="44.42681" lon="1.74267">
        <ele>282.77</ele>
        <time>2023-04-17T09:04:35Z</time>
      </trkpt>
      <trkpt lat="44.42684" lon="1.74266">
        <ele>283.73</ele>
        <time>2023-04-17T09:04:40Z</time>
      </trkpt>
      <trkpt lat="44.42685" lon="1.74266">
        <ele>284.21</ele>
        <time>2023-04-17T09:04:41Z</time>
      </trkpt>
      <trkpt lat="44.42686" lon="1.74266">
        <ele>284.21</ele>
        <time>2023-04-17T09:04:42Z</time>
      </trkpt>
      <trkpt lat="44.42706" lon="1.74257">
        <ele>284.69</ele>
        <time>2023-04-17T09:04:59Z</time>
      </trkpt>
      <trkpt lat="44.42715" lon="1.7425">
        <ele>285.65</ele>
        <time>2023-04-17T09:05:06Z</time>
      </trkpt>
      <trkpt lat="44.42724" lon="1.74243">
        <ele>286.13</ele>
        <time>2023-04-17T09:05:17Z</time>
      </trkpt>
      <trkpt lat="44.42742" lon="1.74235">
        <ele>288.05</ele>
        <time>2023-04-17T09:05:30Z</time>
      </trkpt>
      <trkpt lat="44.42756" lon="1.74232">
        <ele>288.53</ele>
        <time>2023-04-17T09:05:43Z</time>
      </trkpt>
      <trkpt lat="44.42757" lon="1.74233">
        <ele>289.01</ele>
        <time>2023-04-17T09:05:44Z</time>
      </trkpt>
      <trkpt lat="44.42758" lon="1.74234">
        <ele>289.01</ele>
        <time>2023-04-17T09:05:45Z</time>
      </trkpt>
      <trkpt lat="44.42759" lon="1.74235">
        <ele>289.49</ele>
        <time>2023-04-17T09:05:46Z</time>
      </trkpt>
      <trkpt lat="44.42764" lon="1.74251">
        <ele>289.01</ele>
        <time>2023-04-17T09:06:00Z</time>
      </trkpt>
      <trkpt lat="44.42767" lon="1.74267">
        <ele>288.53</ele>
        <time>2023-04-17T09:06:12Z</time>
      </trkpt>
      <trkpt lat="44.42768" lon="1.74272">
        <ele>288.53</ele>
        <time>2023-04-17T09:06:18Z</time>
      </trkpt>
      <trkpt lat="44.42769" lon="1.74274">
        <ele>288.53</ele>
        <time>2023-04-17T09:06:19Z</time>
      </trkpt>
      <trkpt lat="44.42769" lon="1.74276">
        <ele>288.53</ele>
        <time>2023-04-17T09:06:20Z</time>
      </trkpt>
      <trkpt lat="44.4277" lon="1.74278">
        <ele>288.53</ele>
        <time>2023-04-17T09:06:21Z</time>
      </trkpt>
      <trkpt lat="44.4277" lon="1.7428">
        <ele>289.01</ele>
        <time>2023-04-17T09:06:22Z</time>
      </trkpt>
      <trkpt lat="44.4277" lon="1.74282">
        <ele>289.49</ele>
        <time>2023-04-17T09:06:23Z</time>
      </trkpt>
      <trkpt lat="44.42772" lon="1.74298">
        <ele>292.38</ele>
        <time>2023-04-17T09:06:36Z</time>
      </trkpt>
      <trkpt lat="44.42771" lon="1.74311">
        <ele>293.82</ele>
        <time>2023-04-17T09:06:47Z</time>
      </trkpt>
      <trkpt lat="44.42771" lon="1.74321">
        <ele>294.3</ele>
        <time>2023-04-17T09:06:59Z</time>
      </trkpt>
      <trkpt lat="44.42771" lon="1.74328">
        <ele>293.82</ele>
        <time>2023-04-17T09:07:04Z</time>
      </trkpt>
      <trkpt lat="44.42771" lon="1.74329">
        <ele>293.82</ele>
        <time>2023-04-17T09:07:05Z</time>
      </trkpt>
      <trkpt lat="44.42771" lon="1.74331">
        <ele>293.82</ele>
        <time>2023-04-17T09:07:06Z</time>
      </trkpt>
      <trkpt lat="44.42771" lon="1.74336">
        <ele>293.34</ele>
        <time>2023-04-17T09:07:10Z</time>
      </trkpt>
      <trkpt lat="44.42771" lon="1.74338">
        <ele>293.34</ele>
        <time>2023-04-17T09:07:11Z</time>
      </trkpt>
      <trkpt lat="44.42771" lon="1.7434">
        <ele>293.34</ele>
        <time>2023-04-17T09:07:12Z</time>
      </trkpt>
      <trkpt lat="44.42771" lon="1.74342">
        <ele>293.82</ele>
        <time>2023-04-17T09:07:13Z</time>
      </trkpt>
      <trkpt lat="44.42772" lon="1.74343">
        <ele>293.82</ele>
        <time>2023-04-17T09:07:14Z</time>
      </trkpt>
      <trkpt lat="44.42776" lon="1.74365">
        <ele>294.3</ele>
        <time>2023-04-17T09:07:29Z</time>
      </trkpt>
      <trkpt lat="44.42776" lon="1.74367">
        <ele>294.3</ele>
        <time>2023-04-17T09:07:30Z</time>
      </trkpt>
      <trkpt lat="44.42777" lon="1.74386">
        <ele>294.3</ele>
        <time>2023-04-17T09:07:43Z</time>
      </trkpt>
      <trkpt lat="44.4278" lon="1.74397">
        <ele>294.78</ele>
        <time>2023-04-17T09:07:53Z</time>
      </trkpt>
      <trkpt lat="44.42776" lon="1.74415">
        <ele>293.82</ele>
        <time>2023-04-17T09:08:06Z</time>
      </trkpt>
      <trkpt lat="44.4277" lon="1.74431">
        <ele>294.3</ele>
        <time>2023-04-17T09:08:19Z</time>
      </trkpt>
      <trkpt lat="44.42766" lon="1.74448">
        <ele>295.74</ele>
        <time>2023-04-17T09:08:31Z</time>
      </trkpt>
      <trkpt lat="44.42762" lon="1.74468">
        <ele>295.74</ele>
        <time>2023-04-17T09:08:44Z</time>
      </trkpt>
      <trkpt lat="44.42763" lon="1.74472">
        <ele>295.26</ele>
        <time>2023-04-17T09:08:47Z</time>
      </trkpt>
      <trkpt lat="44.42766" lon="1.74483">
        <ele>294.78</ele>
        <time>2023-04-17T09:08:58Z</time>
      </trkpt>
      <trkpt lat="44.42766" lon="1.74483">
        <ele>295.74</ele>
        <time>2023-04-17T09:09:11Z</time>
      </trkpt>
      <trkpt lat="44.42766" lon="1.74485">
        <ele>295.74</ele>
        <time>2023-04-17T09:09:22Z</time>
      </trkpt>
      <trkpt lat="44.42771" lon="1.74486">
        <ele>296.22</ele>
        <time>2023-04-17T09:09:29Z</time>
      </trkpt>
      <trkpt lat="44.42773" lon="1.74488">
        <ele>296.7</ele>
        <time>2023-04-17T09:09:33Z</time>
      </trkpt>
      <trkpt lat="44.42775" lon="1.74489">
        <ele>297.18</ele>
        <time>2023-04-17T09:09:47Z</time>
      </trkpt>
      <trkpt lat="44.42774" lon="1.74489">
        <ele>296.7</ele>
        <time>2023-04-17T09:10:06Z</time>
      </trkpt>
      <trkpt lat="44.42774" lon="1.74489">
        <ele>298.63</ele>
        <time>2023-04-17T09:10:18Z</time>
      </trkpt>
      <trkpt lat="44.42774" lon="1.74489">
        <ele>298.63</ele>
        <time>2023-04-17T09:10:32Z</time>
      </trkpt>
      <trkpt lat="44.42774" lon="1.74488">
        <ele>298.15</ele>
        <time>2023-04-17T09:10:49Z</time>
      </trkpt>
      <trkpt lat="44.42773" lon="1.74487">
        <ele>299.59</ele>
        <time>2023-04-17T09:11:08Z</time>
      </trkpt>
      <trkpt lat="44.42774" lon="1.74488">
        <ele>301.03</ele>
        <time>2023-04-17T09:11:22Z</time>
      </trkpt>
      <trkpt lat="44.42773" lon="1.74489">
        <ele>302.95</ele>
        <time>2023-04-17T09:11:36Z</time>
      </trkpt>
      <trkpt lat="44.42775" lon="1.74488">
        <ele>300.55</ele>
        <time>2023-04-17T09:11:51Z</time>
      </trkpt>
      <trkpt lat="44.42779" lon="1.74488">
        <ele>300.07</ele>
        <time>2023-04-17T09:12:00Z</time>
      </trkpt>
      <trkpt lat="44.42785" lon="1.74489">
        <ele>299.11</ele>
        <time>2023-04-17T09:12:07Z</time>
      </trkpt>
      <trkpt lat="44.42803" lon="1.74482">
        <ele>298.63</ele>
        <time>2023-04-17T09:12:23Z</time>
      </trkpt>
      <trkpt lat="44.42808" lon="1.7448">
        <ele>299.11</ele>
        <time>2023-04-17T09:12:28Z</time>
      </trkpt>
      <trkpt lat="44.42809" lon="1.74479">
        <ele>299.11</ele>
        <time>2023-04-17T09:12:29Z</time>
      </trkpt>
      <trkpt lat="44.4281" lon="1.74478">
        <ele>299.59</ele>
        <time>2023-04-17T09:12:30Z</time>
      </trkpt>
      <trkpt lat="44.42812" lon="1.74478">
        <ele>299.59</ele>
        <time>2023-04-17T09:12:31Z</time>
      </trkpt>
      <trkpt lat="44.42813" lon="1.74478">
        <ele>300.07</ele>
        <time>2023-04-17T09:12:32Z</time>
      </trkpt>
      <trkpt lat="44.42814" lon="1.74478">
        <ele>300.55</ele>
        <time>2023-04-17T09:12:33Z</time>
      </trkpt>
      <trkpt lat="44.42815" lon="1.74477">
        <ele>300.55</ele>
        <time>2023-04-17T09:12:34Z</time>
      </trkpt>
      <trkpt lat="44.42816" lon="1.74477">
        <ele>300.55</ele>
        <time>2023-04-17T09:12:35Z</time>
      </trkpt>
      <trkpt lat="44.42824" lon="1.74476">
        <ele>301.51</ele>
        <time>2023-04-17T09:12:42Z</time>
      </trkpt>
      <trkpt lat="44.42844" lon="1.7449">
        <ele>298.15</ele>
        <time>2023-04-17T09:13:01Z</time>
      </trkpt>
      <trkpt lat="44.42858" lon="1.745">
        <ele>294.3</ele>
        <time>2023-04-17T09:13:16Z</time>
      </trkpt>
      <trkpt lat="44.42875" lon="1.74502">
        <ele>294.78</ele>
        <time>2023-04-17T09:13:28Z</time>
      </trkpt>
      <trkpt lat="44.42895" lon="1.74505">
        <ele>293.82</ele>
        <time>2023-04-17T09:13:45Z</time>
      </trkpt>
      <trkpt lat="44.42903" lon="1.74512">
        <ele>295.26</ele>
        <time>2023-04-17T09:13:54Z</time>
      </trkpt>
      <trkpt lat="44.4291" lon="1.74516">
        <ele>295.74</ele>
        <time>2023-04-17T09:14:02Z</time>
      </trkpt>
      <trkpt lat="44.42912" lon="1.74516">
        <ele>295.74</ele>
        <time>2023-04-17T09:14:03Z</time>
      </trkpt>
      <trkpt lat="44.42932" lon="1.74521">
        <ele>296.22</ele>
        <time>2023-04-17T09:14:21Z</time>
      </trkpt>
      <trkpt lat="44.42938" lon="1.74526">
        <ele>295.74</ele>
        <time>2023-04-17T09:14:27Z</time>
      </trkpt>
      <trkpt lat="44.42939" lon="1.74527">
        <ele>296.22</ele>
        <time>2023-04-17T09:14:28Z</time>
      </trkpt>
      <trkpt lat="44.42944" lon="1.7453">
        <ele>296.7</ele>
        <time>2023-04-17T09:14:32Z</time>
      </trkpt>
      <trkpt lat="44.42961" lon="1.74542">
        <ele>298.15</ele>
        <time>2023-04-17T09:14:49Z</time>
      </trkpt>
      <trkpt lat="44.42954" lon="1.74536">
        <ele>297.67</ele>
        <time>2023-04-17T09:15:03Z</time>
      </trkpt>
      <trkpt lat="44.42953" lon="1.74535">
        <ele>297.67</ele>
        <time>2023-04-17T09:15:04Z</time>
      </trkpt>
      <trkpt lat="44.42952" lon="1.74535">
        <ele>297.67</ele>
        <time>2023-04-17T09:15:05Z</time>
      </trkpt>
      <trkpt lat="44.42946" lon="1.74525">
        <ele>297.18</ele>
        <time>2023-04-17T09:15:19Z</time>
      </trkpt>
      <trkpt lat="44.42955" lon="1.74514">
        <ele>299.11</ele>
        <time>2023-04-17T09:15:33Z</time>
      </trkpt>
      <trkpt lat="44.42961" lon="1.74507">
        <ele>300.07</ele>
        <time>2023-04-17T09:15:42Z</time>
      </trkpt>
      <trkpt lat="44.42963" lon="1.74506">
        <ele>300.07</ele>
        <time>2023-04-17T09:15:44Z</time>
      </trkpt>
      <trkpt lat="44.42969" lon="1.74502">
        <ele>300.07</ele>
        <time>2023-04-17T09:15:51Z</time>
      </trkpt>
      <trkpt lat="44.42985" lon="1.74497">
        <ele>300.55</ele>
        <time>2023-04-17T09:16:07Z</time>
      </trkpt>
      <trkpt lat="44.42999" lon="1.74493">
        <ele>302.47</ele>
        <time>2023-04-17T09:16:22Z</time>
      </trkpt>
      <trkpt lat="44.43014" lon="1.74491">
        <ele>304.39</ele>
        <time>2023-04-17T09:16:38Z</time>
      </trkpt>
      <trkpt lat="44.43015" lon="1.7449">
        <ele>304.88</ele>
        <time>2023-04-17T09:16:39Z</time>
      </trkpt>
      <trkpt lat="44.43031" lon="1.74488">
        <ele>308.24</ele>
        <time>2023-04-17T09:16:56Z</time>
      </trkpt>
      <trkpt lat="44.43046" lon="1.74482">
        <ele>310.64</ele>
        <time>2023-04-17T09:17:13Z</time>
      </trkpt>
      <trkpt lat="44.43059" lon="1.74479">
        <ele>311.6</ele>
        <time>2023-04-17T09:17:26Z</time>
      </trkpt>
      <trkpt lat="44.43071" lon="1.74481">
        <ele>314.01</ele>
        <time>2023-04-17T09:17:38Z</time>
      </trkpt>
      <trkpt lat="44.43081" lon="1.74487">
        <ele>314.49</ele>
        <time>2023-04-17T09:17:49Z</time>
      </trkpt>
      <trkpt lat="44.43093" lon="1.74494">
        <ele>315.45</ele>
        <time>2023-04-17T09:18:04Z</time>
      </trkpt>
      <trkpt lat="44.43102" lon="1.74503">
        <ele>314.49</ele>
        <time>2023-04-17T09:18:14Z</time>
      </trkpt>
      <trkpt lat="44.43118" lon="1.74513">
        <ele>314.01</ele>
        <time>2023-04-17T09:18:30Z</time>
      </trkpt>
      <trkpt lat="44.43135" lon="1.74528">
        <ele>312.09</ele>
        <time>2023-04-17T09:18:47Z</time>
      </trkpt>
      <trkpt lat="44.43143" lon="1.74534">
        <ele>312.09</ele>
        <time>2023-04-17T09:18:55Z</time>
      </trkpt>
      <trkpt lat="44.43147" lon="1.74539">
        <ele>312.09</ele>
        <time>2023-04-17T09:19:02Z</time>
      </trkpt>
      <trkpt lat="44.43151" lon="1.7454">
        <ele>312.09</ele>
        <time>2023-04-17T09:19:05Z</time>
      </trkpt>
      <trkpt lat="44.43152" lon="1.7454">
        <ele>312.09</ele>
        <time>2023-04-17T09:19:06Z</time>
      </trkpt>
      <trkpt lat="44.43154" lon="1.74539">
        <ele>312.09</ele>
        <time>2023-04-17T09:19:08Z</time>
      </trkpt>
      <trkpt lat="44.43158" lon="1.74526">
        <ele>311.6</ele>
        <time>2023-04-17T09:19:20Z</time>
      </trkpt>
      <trkpt lat="44.43158" lon="1.74524">
        <ele>311.6</ele>
        <time>2023-04-17T09:19:21Z</time>
      </trkpt>
      <trkpt lat="44.43158" lon="1.74522">
        <ele>311.6</ele>
        <time>2023-04-17T09:19:22Z</time>
      </trkpt>
      <trkpt lat="44.43159" lon="1.74519">
        <ele>311.6</ele>
        <time>2023-04-17T09:19:24Z</time>
      </trkpt>
      <trkpt lat="44.43159" lon="1.74514">
        <ele>311.6</ele>
        <time>2023-04-17T09:19:28Z</time>
      </trkpt>
      <trkpt lat="44.43159" lon="1.74512">
        <ele>311.6</ele>
        <time>2023-04-17T09:19:29Z</time>
      </trkpt>
      <trkpt lat="44.4316" lon="1.74511">
        <ele>311.6</ele>
        <time>2023-04-17T09:19:30Z</time>
      </trkpt>
      <trkpt lat="44.4316" lon="1.74509">
        <ele>312.09</ele>
        <time>2023-04-17T09:19:31Z</time>
      </trkpt>
      <trkpt lat="44.4316" lon="1.74507">
        <ele>312.09</ele>
        <time>2023-04-17T09:19:32Z</time>
      </trkpt>
      <trkpt lat="44.43169" lon="1.7449">
        <ele>313.53</ele>
        <time>2023-04-17T09:19:46Z</time>
      </trkpt>
      <trkpt lat="44.43179" lon="1.74472">
        <ele>314.49</ele>
        <time>2023-04-17T09:20:01Z</time>
      </trkpt>
      <trkpt lat="44.43188" lon="1.74456">
        <ele>314.01</ele>
        <time>2023-04-17T09:20:12Z</time>
      </trkpt>
      <trkpt lat="44.43189" lon="1.74455">
        <ele>314.01</ele>
        <time>2023-04-17T09:20:13Z</time>
      </trkpt>
      <trkpt lat="44.43201" lon="1.74437">
        <ele>314.49</ele>
        <time>2023-04-17T09:20:30Z</time>
      </trkpt>
      <trkpt lat="44.43212" lon="1.74412">
        <ele>315.45</ele>
        <time>2023-04-17T09:20:45Z</time>
      </trkpt>
      <trkpt lat="44.43225" lon="1.74397">
        <ele>315.93</ele>
        <time>2023-04-17T09:20:59Z</time>
      </trkpt>
      <trkpt lat="44.43231" lon="1.74385">
        <ele>313.05</ele>
        <time>2023-04-17T09:21:13Z</time>
      </trkpt>
      <trkpt lat="44.43241" lon="1.74369">
        <ele>308.72</ele>
        <time>2023-04-17T09:21:26Z</time>
      </trkpt>
      <trkpt lat="44.43253" lon="1.74348">
        <ele>308.24</ele>
        <time>2023-04-17T09:21:39Z</time>
      </trkpt>
      <trkpt lat="44.43252" lon="1.74325">
        <ele>310.16</ele>
        <time>2023-04-17T09:21:50Z</time>
      </trkpt>
      <trkpt lat="44.43245" lon="1.74311">
        <ele>313.05</ele>
        <time>2023-04-17T09:22:03Z</time>
      </trkpt>
      <trkpt lat="44.43244" lon="1.7431">
        <ele>313.05</ele>
        <time>2023-04-17T09:22:04Z</time>
      </trkpt>
      <trkpt lat="44.43235" lon="1.74296">
        <ele>311.12</ele>
        <time>2023-04-17T09:22:18Z</time>
      </trkpt>
      <trkpt lat="44.43227" lon="1.74276">
        <ele>308.24</ele>
        <time>2023-04-17T09:22:32Z</time>
      </trkpt>
      <trkpt lat="44.43223" lon="1.74253">
        <ele>308.72</ele>
        <time>2023-04-17T09:22:45Z</time>
      </trkpt>
      <trkpt lat="44.43221" lon="1.74235">
        <ele>307.28</ele>
        <time>2023-04-17T09:22:55Z</time>
      </trkpt>
      <trkpt lat="44.4322" lon="1.74226">
        <ele>306.32</ele>
        <time>2023-04-17T09:23:01Z</time>
      </trkpt>
      <trkpt lat="44.4322" lon="1.74224">
        <ele>306.32</ele>
        <time>2023-04-17T09:23:02Z</time>
      </trkpt>
      <trkpt lat="44.43222" lon="1.74199">
        <ele>305.36</ele>
        <time>2023-04-17T09:23:15Z</time>
      </trkpt>
      <trkpt lat="44.43228" lon="1.74177">
        <ele>305.36</ele>
        <time>2023-04-17T09:23:27Z</time>
      </trkpt>
      <trkpt lat="44.43236" lon="1.74156">
        <ele>303.43</ele>
        <time>2023-04-17T09:23:42Z</time>
      </trkpt>
      <trkpt lat="44.43241" lon="1.74137">
        <ele>301.99</ele>
        <time>2023-04-17T09:23:58Z</time>
      </trkpt>
      <trkpt lat="44.43243" lon="1.74119">
        <ele>301.03</ele>
        <time>2023-04-17T09:24:10Z</time>
      </trkpt>
      <trkpt lat="44.43248" lon="1.7409">
        <ele>301.99</ele>
        <time>2023-04-17T09:24:24Z</time>
      </trkpt>
      <trkpt lat="44.4325" lon="1.74071">
        <ele>301.03</ele>
        <time>2023-04-17T09:24:35Z</time>
      </trkpt>
      <trkpt lat="44.4325" lon="1.74069">
        <ele>301.03</ele>
        <time>2023-04-17T09:24:36Z</time>
      </trkpt>
      <trkpt lat="44.4325" lon="1.74067">
        <ele>300.55</ele>
        <time>2023-04-17T09:24:37Z</time>
      </trkpt>
      <trkpt lat="44.43245" lon="1.74034">
        <ele>304.88</ele>
        <time>2023-04-17T09:24:53Z</time>
      </trkpt>
      <trkpt lat="44.43244" lon="1.74018">
        <ele>303.91</ele>
        <time>2023-04-17T09:25:06Z</time>
      </trkpt>
      <trkpt lat="44.43242" lon="1.74003">
        <ele>302.47</ele>
        <time>2023-04-17T09:25:18Z</time>
      </trkpt>
      <trkpt lat="44.43233" lon="1.73975">
        <ele>300.07</ele>
        <time>2023-04-17T09:25:33Z</time>
      </trkpt>
      <trkpt lat="44.4322" lon="1.73949">
        <ele>300.07</ele>
        <time>2023-04-17T09:25:47Z</time>
      </trkpt>
      <trkpt lat="44.43214" lon="1.73935">
        <ele>300.07</ele>
        <time>2023-04-17T09:26:00Z</time>
      </trkpt>
      <trkpt lat="44.43217" lon="1.73924">
        <ele>300.55</ele>
        <time>2023-04-17T09:26:13Z</time>
      </trkpt>
      <trkpt lat="44.43218" lon="1.73923">
        <ele>300.55</ele>
        <time>2023-04-17T09:26:15Z</time>
      </trkpt>
      <trkpt lat="44.43234" lon="1.73919">
        <ele>300.55</ele>
        <time>2023-04-17T09:26:31Z</time>
      </trkpt>
      <trkpt lat="44.43249" lon="1.73916">
        <ele>301.51</ele>
        <time>2023-04-17T09:26:45Z</time>
      </trkpt>
      <trkpt lat="44.43251" lon="1.73919">
        <ele>300.07</ele>
        <time>2023-04-17T09:26:57Z</time>
      </trkpt>
      <trkpt lat="44.43252" lon="1.73917">
        <ele>301.03</ele>
        <time>2023-04-17T09:27:13Z</time>
      </trkpt>
      <trkpt lat="44.43253" lon="1.73918">
        <ele>300.55</ele>
        <time>2023-04-17T09:27:28Z</time>
      </trkpt>
      <trkpt lat="44.43253" lon="1.73917">
        <ele>303.91</ele>
        <time>2023-04-17T09:27:46Z</time>
      </trkpt>
      <trkpt lat="44.43254" lon="1.73917">
        <ele>305.36</ele>
        <time>2023-04-17T09:28:07Z</time>
      </trkpt>
      <trkpt lat="44.43254" lon="1.73917">
        <ele>305.36</ele>
        <time>2023-04-17T09:28:26Z</time>
      </trkpt>
      <trkpt lat="44.43254" lon="1.73917">
        <ele>303.91</ele>
        <time>2023-04-17T09:28:44Z</time>
      </trkpt>
      <trkpt lat="44.43255" lon="1.73917">
        <ele>303.43</ele>
        <time>2023-04-17T09:28:47Z</time>
      </trkpt>
      <trkpt lat="44.43266" lon="1.73911">
        <ele>302.47</ele>
        <time>2023-04-17T09:29:01Z</time>
      </trkpt>
      <trkpt lat="44.43268" lon="1.7391">
        <ele>302.47</ele>
        <time>2023-04-17T09:29:03Z</time>
      </trkpt>
      <trkpt lat="44.4328" lon="1.73913">
        <ele>300.55</ele>
        <time>2023-04-17T09:29:15Z</time>
      </trkpt>
      <trkpt lat="44.4328" lon="1.73918">
        <ele>298.15</ele>
        <time>2023-04-17T09:29:31Z</time>
      </trkpt>
      <trkpt lat="44.43281" lon="1.73915">
        <ele>295.26</ele>
        <time>2023-04-17T09:29:50Z</time>
      </trkpt>
      <trkpt lat="44.43278" lon="1.73899">
        <ele>294.3</ele>
        <time>2023-04-17T09:30:14Z</time>
      </trkpt>
      <trkpt lat="44.4328" lon="1.73899">
        <ele>301.99</ele>
        <time>2023-04-17T09:30:33Z</time>
      </trkpt>
      <trkpt lat="44.43273" lon="1.73905">
        <ele>299.11</ele>
        <time>2023-04-17T09:30:44Z</time>
      </trkpt>
      <trkpt lat="44.43263" lon="1.73916">
        <ele>293.82</ele>
        <time>2023-04-17T09:30:58Z</time>
      </trkpt>
      <trkpt lat="44.43265" lon="1.73917">
        <ele>293.34</ele>
        <time>2023-04-17T09:31:01Z</time>
      </trkpt>
      <trkpt lat="44.43281" lon="1.73919">
        <ele>293.34</ele>
        <time>2023-04-17T09:31:18Z</time>
      </trkpt>
      <trkpt lat="44.4329" lon="1.73917">
        <ele>289.49</ele>
        <time>2023-04-17T09:31:31Z</time>
      </trkpt>
      <trkpt lat="44.43297" lon="1.73917">
        <ele>289.01</ele>
        <time>2023-04-17T09:31:38Z</time>
      </trkpt>
      <trkpt lat="44.43304" lon="1.73919">
        <ele>289.49</ele>
        <time>2023-04-17T09:31:42Z</time>
      </trkpt>
      <trkpt lat="44.43306" lon="1.7392">
        <ele>289.49</ele>
        <time>2023-04-17T09:31:43Z</time>
      </trkpt>
      <trkpt lat="44.43308" lon="1.73921">
        <ele>289.49</ele>
        <time>2023-04-17T09:31:44Z</time>
      </trkpt>
      <trkpt lat="44.4331" lon="1.73922">
        <ele>289.49</ele>
        <time>2023-04-17T09:31:45Z</time>
      </trkpt>
      <trkpt lat="44.43312" lon="1.73923">
        <ele>289.49</ele>
        <time>2023-04-17T09:31:46Z</time>
      </trkpt>
      <trkpt lat="44.43314" lon="1.73924">
        <ele>289.49</ele>
        <time>2023-04-17T09:31:47Z</time>
      </trkpt>
      <trkpt lat="44.43344" lon="1.73928">
        <ele>292.38</ele>
        <time>2023-04-17T09:32:00Z</time>
      </trkpt>
      <trkpt lat="44.43354" lon="1.73926">
        <ele>295.26</ele>
        <time>2023-04-17T09:32:12Z</time>
      </trkpt>
      <trkpt lat="44.43365" lon="1.73924">
        <ele>295.26</ele>
        <time>2023-04-17T09:32:27Z</time>
      </trkpt>
      <trkpt lat="44.43375" lon="1.73923">
        <ele>292.38</ele>
        <time>2023-04-17T09:32:40Z</time>
      </trkpt>
      <trkpt lat="44.43376" lon="1.73923">
        <ele>292.86</ele>
        <time>2023-04-17T09:32:41Z</time>
      </trkpt>
      <trkpt lat="44.43383" lon="1.73923">
        <ele>292.38</ele>
        <time>2023-04-17T09:32:47Z</time>
      </trkpt>
      <trkpt lat="44.43384" lon="1.73924">
        <ele>292.38</ele>
        <time>2023-04-17T09:32:48Z</time>
      </trkpt>
      <trkpt lat="44.43402" lon="1.73933">
        <ele>291.9</ele>
        <time>2023-04-17T09:32:59Z</time>
      </trkpt>
      <trkpt lat="44.43425" lon="1.7395">
        <ele>287.09</ele>
        <time>2023-04-17T09:33:13Z</time>
      </trkpt>
      <trkpt lat="44.43441" lon="1.73949">
        <ele>285.65</ele>
        <time>2023-04-17T09:33:27Z</time>
      </trkpt>
      <trkpt lat="44.43454" lon="1.73952">
        <ele>283.25</ele>
        <time>2023-04-17T09:33:42Z</time>
      </trkpt>
      <trkpt lat="44.43471" lon="1.7396">
        <ele>279.88</ele>
        <time>2023-04-17T09:33:57Z</time>
      </trkpt>
      <trkpt lat="44.43486" lon="1.73973">
        <ele>273.15</ele>
        <time>2023-04-17T09:34:13Z</time>
      </trkpt>
      <trkpt lat="44.43499" lon="1.73979">
        <ele>268.83</ele>
        <time>2023-04-17T09:34:28Z</time>
      </trkpt>
      <trkpt lat="44.43517" lon="1.73984">
        <ele>268.35</ele>
        <time>2023-04-17T09:34:43Z</time>
      </trkpt>
      <trkpt lat="44.4354" lon="1.73985">
        <ele>269.79</ele>
        <time>2023-04-17T09:35:00Z</time>
      </trkpt>
      <trkpt lat="44.43562" lon="1.73989">
        <ele>272.19</ele>
        <time>2023-04-17T09:35:15Z</time>
      </trkpt>
      <trkpt lat="44.43583" lon="1.74">
        <ele>270.27</ele>
        <time>2023-04-17T09:35:33Z</time>
      </trkpt>
      <trkpt lat="44.43598" lon="1.74014">
        <ele>268.83</ele>
        <time>2023-04-17T09:35:49Z</time>
      </trkpt>
      <trkpt lat="44.43613" lon="1.74032">
        <ele>270.27</ele>
        <time>2023-04-17T09:36:05Z</time>
      </trkpt>
      <trkpt lat="44.43626" lon="1.74046">
        <ele>269.79</ele>
        <time>2023-04-17T09:36:18Z</time>
      </trkpt>
      <trkpt lat="44.43646" lon="1.74062">
        <ele>269.31</ele>
        <time>2023-04-17T09:36:35Z</time>
      </trkpt>
      <trkpt lat="44.43655" lon="1.74068">
        <ele>269.31</ele>
        <time>2023-04-17T09:36:43Z</time>
      </trkpt>
      <trkpt lat="44.43674" lon="1.74076">
        <ele>267.86</ele>
        <time>2023-04-17T09:36:58Z</time>
      </trkpt>
      <trkpt lat="44.43689" lon="1.74084">
        <ele>266.9</ele>
        <time>2023-04-17T09:37:13Z</time>
      </trkpt>
      <trkpt lat="44.43704" lon="1.74096">
        <ele>266.9</ele>
        <time>2023-04-17T09:37:28Z</time>
      </trkpt>
      <trkpt lat="44.4372" lon="1.74108">
        <ele>267.86</ele>
        <time>2023-04-17T09:37:41Z</time>
      </trkpt>
      <trkpt lat="44.43734" lon="1.7412">
        <ele>265.94</ele>
        <time>2023-04-17T09:37:55Z</time>
      </trkpt>
      <trkpt lat="44.43753" lon="1.74135">
        <ele>265.46</ele>
        <time>2023-04-17T09:38:12Z</time>
      </trkpt>
      <trkpt lat="44.43776" lon="1.74145">
        <ele>268.35</ele>
        <time>2023-04-17T09:38:30Z</time>
      </trkpt>
      <trkpt lat="44.43797" lon="1.74138">
        <ele>268.35</ele>
        <time>2023-04-17T09:38:47Z</time>
      </trkpt>
      <trkpt lat="44.4381" lon="1.74121">
        <ele>266.9</ele>
        <time>2023-04-17T09:39:03Z</time>
      </trkpt>
      <trkpt lat="44.43812" lon="1.7412">
        <ele>266.9</ele>
        <time>2023-04-17T09:39:05Z</time>
      </trkpt>
      <trkpt lat="44.4383" lon="1.74112">
        <ele>264.5</ele>
        <time>2023-04-17T09:39:21Z</time>
      </trkpt>
      <trkpt lat="44.43851" lon="1.74108">
        <ele>264.02</ele>
        <time>2023-04-17T09:39:38Z</time>
      </trkpt>
      <trkpt lat="44.43869" lon="1.74099">
        <ele>260.17</ele>
        <time>2023-04-17T09:39:55Z</time>
      </trkpt>
      <trkpt lat="44.43885" lon="1.74092">
        <ele>257.77</ele>
        <time>2023-04-17T09:40:09Z</time>
      </trkpt>
      <trkpt lat="44.43898" lon="1.74079">
        <ele>256.33</ele>
        <time>2023-04-17T09:40:23Z</time>
      </trkpt>
      <trkpt lat="44.43913" lon="1.74062">
        <ele>254.89</ele>
        <time>2023-04-17T09:40:38Z</time>
      </trkpt>
      <trkpt lat="44.43932" lon="1.74051">
        <ele>255.37</ele>
        <time>2023-04-17T09:40:55Z</time>
      </trkpt>
      <trkpt lat="44.43944" lon="1.74054">
        <ele>253.93</ele>
        <time>2023-04-17T09:41:09Z</time>
      </trkpt>
      <trkpt lat="44.43962" lon="1.7406">
        <ele>254.41</ele>
        <time>2023-04-17T09:41:23Z</time>
      </trkpt>
      <trkpt lat="44.43967" lon="1.74059">
        <ele>254.89</ele>
        <time>2023-04-17T09:41:27Z</time>
      </trkpt>
      <trkpt lat="44.43969" lon="1.74059">
        <ele>255.37</ele>
        <time>2023-04-17T09:41:28Z</time>
      </trkpt>
      <trkpt lat="44.43993" lon="1.74048">
        <ele>255.85</ele>
        <time>2023-04-17T09:41:47Z</time>
      </trkpt>
      <trkpt lat="44.44004" lon="1.74042">
        <ele>255.85</ele>
        <time>2023-04-17T09:41:56Z</time>
      </trkpt>
      <trkpt lat="44.44016" lon="1.74024">
        <ele>254.41</ele>
        <time>2023-04-17T09:42:12Z</time>
      </trkpt>
      <trkpt lat="44.4403" lon="1.74006">
        <ele>249.6</ele>
        <time>2023-04-17T09:42:29Z</time>
      </trkpt>
      <trkpt lat="44.44047" lon="1.73996">
        <ele>254.41</ele>
        <time>2023-04-17T09:42:43Z</time>
      </trkpt>
      <trkpt lat="44.44047" lon="1.73995">
        <ele>254.41</ele>
        <time>2023-04-17T09:42:45Z</time>
      </trkpt>
      <trkpt lat="44.44046" lon="1.73994">
        <ele>254.41</ele>
        <time>2023-04-17T09:42:46Z</time>
      </trkpt>
      <trkpt lat="44.44045" lon="1.73991">
        <ele>254.89</ele>
        <time>2023-04-17T09:42:48Z</time>
      </trkpt>
      <trkpt lat="44.44049" lon="1.73986">
        <ele>256.81</ele>
        <time>2023-04-17T09:43:01Z</time>
      </trkpt>
      <trkpt lat="44.44049" lon="1.73985">
        <ele>257.29</ele>
        <time>2023-04-17T09:43:09Z</time>
      </trkpt>
      <trkpt lat="44.44058" lon="1.73973">
        <ele>255.85</ele>
        <time>2023-04-17T09:43:22Z</time>
      </trkpt>
      <trkpt lat="44.4407" lon="1.73958">
        <ele>258.25</ele>
        <time>2023-04-17T09:43:38Z</time>
      </trkpt>
      <trkpt lat="44.44071" lon="1.73957">
        <ele>258.25</ele>
        <time>2023-04-17T09:43:39Z</time>
      </trkpt>
      <trkpt lat="44.44072" lon="1.73957">
        <ele>258.73</ele>
        <time>2023-04-17T09:43:40Z</time>
      </trkpt>
      <trkpt lat="44.44088" lon="1.7395">
        <ele>261.62</ele>
        <time>2023-04-17T09:43:54Z</time>
      </trkpt>
      <trkpt lat="44.44103" lon="1.73939">
        <ele>263.06</ele>
        <time>2023-04-17T09:44:10Z</time>
      </trkpt>
      <trkpt lat="44.44117" lon="1.73933">
        <ele>265.94</ele>
        <time>2023-04-17T09:44:24Z</time>
      </trkpt>
      <trkpt lat="44.44118" lon="1.73933">
        <ele>266.42</ele>
        <time>2023-04-17T09:44:25Z</time>
      </trkpt>
      <trkpt lat="44.44127" lon="1.73937">
        <ele>266.42</ele>
        <time>2023-04-17T09:44:38Z</time>
      </trkpt>
      <trkpt lat="44.44144" lon="1.7394">
        <ele>266.9</ele>
        <time>2023-04-17T09:44:55Z</time>
      </trkpt>
      <trkpt lat="44.44155" lon="1.73944">
        <ele>265.94</ele>
        <time>2023-04-17T09:45:08Z</time>
      </trkpt>
      <trkpt lat="44.44168" lon="1.73944">
        <ele>267.38</ele>
        <time>2023-04-17T09:45:20Z</time>
      </trkpt>
      <trkpt lat="44.4418" lon="1.73946">
        <ele>265.94</ele>
        <time>2023-04-17T09:45:34Z</time>
      </trkpt>
      <trkpt lat="44.44183" lon="1.7396">
        <ele>264.98</ele>
        <time>2023-04-17T09:45:46Z</time>
      </trkpt>
      <trkpt lat="44.44184" lon="1.73962">
        <ele>264.5</ele>
        <time>2023-04-17T09:45:47Z</time>
      </trkpt>
      <trkpt lat="44.44182" lon="1.7397">
        <ele>261.14</ele>
        <time>2023-04-17T09:45:54Z</time>
      </trkpt>
      <trkpt lat="44.44182" lon="1.73972">
        <ele>260.65</ele>
        <time>2023-04-17T09:45:55Z</time>
      </trkpt>
      <trkpt lat="44.44184" lon="1.73981">
        <ele>259.21</ele>
        <time>2023-04-17T09:46:00Z</time>
      </trkpt>
      <trkpt lat="44.44184" lon="1.73982">
        <ele>259.21</ele>
        <time>2023-04-17T09:46:01Z</time>
      </trkpt>
      <trkpt lat="44.44183" lon="1.73993">
        <ele>253.93</ele>
        <time>2023-04-17T09:46:13Z</time>
      </trkpt>
      <trkpt lat="44.44186" lon="1.74017">
        <ele>257.29</ele>
        <time>2023-04-17T09:46:28Z</time>
      </trkpt>
      <trkpt lat="44.44187" lon="1.74019">
        <ele>257.77</ele>
        <time>2023-04-17T09:46:29Z</time>
      </trkpt>
      <trkpt lat="44.44187" lon="1.7402">
        <ele>257.77</ele>
        <time>2023-04-17T09:46:30Z</time>
      </trkpt>
      <trkpt lat="44.44187" lon="1.74027">
        <ele>259.21</ele>
        <time>2023-04-17T09:46:40Z</time>
      </trkpt>
      <trkpt lat="44.44186" lon="1.74033">
        <ele>262.1</ele>
        <time>2023-04-17T09:46:53Z</time>
      </trkpt>
      <trkpt lat="44.44184" lon="1.74042">
        <ele>264.02</ele>
        <time>2023-04-17T09:47:05Z</time>
      </trkpt>
      <trkpt lat="44.44183" lon="1.74043">
        <ele>264.02</ele>
        <time>2023-04-17T09:47:06Z</time>
      </trkpt>
      <trkpt lat="44.44182" lon="1.74044">
        <ele>264.5</ele>
        <time>2023-04-17T09:47:07Z</time>
      </trkpt>
      <trkpt lat="44.44168" lon="1.74064">
        <ele>262.1</ele>
        <time>2023-04-17T09:47:24Z</time>
      </trkpt>
      <trkpt lat="44.44154" lon="1.74078">
        <ele>260.17</ele>
        <time>2023-04-17T09:47:39Z</time>
      </trkpt>
      <trkpt lat="44.44144" lon="1.74092">
        <ele>258.73</ele>
        <time>2023-04-17T09:47:52Z</time>
      </trkpt>
      <trkpt lat="44.44131" lon="1.74103">
        <ele>257.77</ele>
        <time>2023-04-17T09:48:07Z</time>
      </trkpt>
      <trkpt lat="44.44124" lon="1.74113">
        <ele>256.81</ele>
        <time>2023-04-17T09:48:16Z</time>
      </trkpt>
      <trkpt lat="44.44124" lon="1.74115">
        <ele>256.33</ele>
        <time>2023-04-17T09:48:17Z</time>
      </trkpt>
      <trkpt lat="44.44123" lon="1.74117">
        <ele>256.33</ele>
        <time>2023-04-17T09:48:18Z</time>
      </trkpt>
      <trkpt lat="44.44123" lon="1.74118">
        <ele>256.33</ele>
        <time>2023-04-17T09:48:19Z</time>
      </trkpt>
      <trkpt lat="44.44122" lon="1.7412">
        <ele>255.85</ele>
        <time>2023-04-17T09:48:20Z</time>
      </trkpt>
      <trkpt lat="44.44122" lon="1.74122">
        <ele>255.37</ele>
        <time>2023-04-17T09:48:21Z</time>
      </trkpt>
      <trkpt lat="44.44122" lon="1.74124">
        <ele>255.37</ele>
        <time>2023-04-17T09:48:22Z</time>
      </trkpt>
      <trkpt lat="44.44121" lon="1.74126">
        <ele>255.37</ele>
        <time>2023-04-17T09:48:23Z</time>
      </trkpt>
      <trkpt lat="44.44122" lon="1.74129">
        <ele>255.37</ele>
        <time>2023-04-17T09:48:24Z</time>
      </trkpt>
      <trkpt lat="44.44122" lon="1.74131">
        <ele>255.37</ele>
        <time>2023-04-17T09:48:25Z</time>
      </trkpt>
      <trkpt lat="44.44122" lon="1.74132">
        <ele>255.37</ele>
        <time>2023-04-17T09:48:26Z</time>
      </trkpt>
      <trkpt lat="44.44122" lon="1.74133">
        <ele>254.89</ele>
        <time>2023-04-17T09:48:27Z</time>
      </trkpt>
      <trkpt lat="44.44132" lon="1.74157">
        <ele>257.77</ele>
        <time>2023-04-17T09:48:41Z</time>
      </trkpt>
      <trkpt lat="44.44139" lon="1.74174">
        <ele>256.33</ele>
        <time>2023-04-17T09:48:55Z</time>
      </trkpt>
      <trkpt lat="44.44137" lon="1.74199">
        <ele>254.41</ele>
        <time>2023-04-17T09:49:11Z</time>
      </trkpt>
      <trkpt lat="44.44126" lon="1.74216">
        <ele>254.89</ele>
        <time>2023-04-17T09:49:25Z</time>
      </trkpt>
      <trkpt lat="44.44121" lon="1.74222">
        <ele>253.93</ele>
        <time>2023-04-17T09:49:31Z</time>
      </trkpt>
      <trkpt lat="44.44108" lon="1.74246">
        <ele>253.93</ele>
        <time>2023-04-17T09:49:48Z</time>
      </trkpt>
      <trkpt lat="44.44095" lon="1.74268">
        <ele>252.96</ele>
        <time>2023-04-17T09:50:04Z</time>
      </trkpt>
      <trkpt lat="44.44083" lon="1.74296">
        <ele>252</ele>
        <time>2023-04-17T09:50:19Z</time>
      </trkpt>
      <trkpt lat="44.44078" lon="1.74318">
        <ele>254.41</ele>
        <time>2023-04-17T09:50:32Z</time>
      </trkpt>
      <trkpt lat="44.44077" lon="1.74318">
        <ele>254.41</ele>
        <time>2023-04-17T09:50:33Z</time>
      </trkpt>
      <trkpt lat="44.44077" lon="1.74319">
        <ele>254.41</ele>
        <time>2023-04-17T09:50:34Z</time>
      </trkpt>
      <trkpt lat="44.44065" lon="1.74335">
        <ele>254.89</ele>
        <time>2023-04-17T09:50:49Z</time>
      </trkpt>
      <trkpt lat="44.44061" lon="1.7434">
        <ele>255.85</ele>
        <time>2023-04-17T09:50:54Z</time>
      </trkpt>
      <trkpt lat="44.44061" lon="1.74342">
        <ele>255.85</ele>
        <time>2023-04-17T09:50:55Z</time>
      </trkpt>
      <trkpt lat="44.4406" lon="1.74343">
        <ele>255.85</ele>
        <time>2023-04-17T09:50:56Z</time>
      </trkpt>
      <trkpt lat="44.44051" lon="1.74355">
        <ele>255.85</ele>
        <time>2023-04-17T09:51:09Z</time>
      </trkpt>
      <trkpt lat="44.44041" lon="1.74371">
        <ele>258.73</ele>
        <time>2023-04-17T09:51:20Z</time>
      </trkpt>
      <trkpt lat="44.44028" lon="1.74396">
        <ele>263.06</ele>
        <time>2023-04-17T09:51:33Z</time>
      </trkpt>
      <trkpt lat="44.44023" lon="1.74417">
        <ele>264.02</ele>
        <time>2023-04-17T09:51:47Z</time>
      </trkpt>
      <trkpt lat="44.44024" lon="1.74428">
        <ele>263.54</ele>
        <time>2023-04-17T09:51:56Z</time>
      </trkpt>
      <trkpt lat="44.44024" lon="1.7443">
        <ele>263.54</ele>
        <time>2023-04-17T09:51:57Z</time>
      </trkpt>
      <trkpt lat="44.44024" lon="1.74432">
        <ele>263.54</ele>
        <time>2023-04-17T09:51:58Z</time>
      </trkpt>
      <trkpt lat="44.44024" lon="1.74435">
        <ele>264.02</ele>
        <time>2023-04-17T09:51:59Z</time>
      </trkpt>
      <trkpt lat="44.44024" lon="1.74437">
        <ele>264.02</ele>
        <time>2023-04-17T09:52:00Z</time>
      </trkpt>
      <trkpt lat="44.44025" lon="1.74439">
        <ele>264.02</ele>
        <time>2023-04-17T09:52:01Z</time>
      </trkpt>
      <trkpt lat="44.44025" lon="1.74441">
        <ele>264.02</ele>
        <time>2023-04-17T09:52:02Z</time>
      </trkpt>
      <trkpt lat="44.44025" lon="1.74443">
        <ele>264.02</ele>
        <time>2023-04-17T09:52:03Z</time>
      </trkpt>
      <trkpt lat="44.44026" lon="1.74445">
        <ele>264.02</ele>
        <time>2023-04-17T09:52:04Z</time>
      </trkpt>
      <trkpt lat="44.44026" lon="1.74447">
        <ele>264.02</ele>
        <time>2023-04-17T09:52:05Z</time>
      </trkpt>
      <trkpt lat="44.44026" lon="1.74449">
        <ele>264.5</ele>
        <time>2023-04-17T09:52:06Z</time>
      </trkpt>
      <trkpt lat="44.44026" lon="1.74451">
        <ele>264.5</ele>
        <time>2023-04-17T09:52:07Z</time>
      </trkpt>
      <trkpt lat="44.44026" lon="1.74453">
        <ele>264.5</ele>
        <time>2023-04-17T09:52:08Z</time>
      </trkpt>
      <trkpt lat="44.44025" lon="1.74455">
        <ele>264.98</ele>
        <time>2023-04-17T09:52:09Z</time>
      </trkpt>
      <trkpt lat="44.44022" lon="1.7448">
        <ele>269.31</ele>
        <time>2023-04-17T09:52:23Z</time>
      </trkpt>
      <trkpt lat="44.44018" lon="1.74501">
        <ele>268.83</ele>
        <time>2023-04-17T09:52:37Z</time>
      </trkpt>
      <trkpt lat="44.44016" lon="1.74514">
        <ele>268.83</ele>
        <time>2023-04-17T09:52:43Z</time>
      </trkpt>
      <trkpt lat="44.44009" lon="1.74533">
        <ele>268.83</ele>
        <time>2023-04-17T09:52:57Z</time>
      </trkpt>
      <trkpt lat="44.44001" lon="1.74555">
        <ele>269.79</ele>
        <time>2023-04-17T09:53:10Z</time>
      </trkpt>
      <trkpt lat="44.44" lon="1.7458">
        <ele>270.75</ele>
        <time>2023-04-17T09:53:25Z</time>
      </trkpt>
      <trkpt lat="44.43999" lon="1.74599">
        <ele>270.75</ele>
        <time>2023-04-17T09:53:39Z</time>
      </trkpt>
      <trkpt lat="44.43992" lon="1.74624">
        <ele>265.46</ele>
        <time>2023-04-17T09:53:55Z</time>
      </trkpt>
      <trkpt lat="44.43984" lon="1.74648">
        <ele>266.9</ele>
        <time>2023-04-17T09:54:07Z</time>
      </trkpt>
      <trkpt lat="44.43981" lon="1.74662">
        <ele>265.46</ele>
        <time>2023-04-17T09:54:20Z</time>
      </trkpt>
      <trkpt lat="44.43985" lon="1.74674">
        <ele>264.98</ele>
        <time>2023-04-17T09:54:29Z</time>
      </trkpt>
      <trkpt lat="44.43986" lon="1.74675">
        <ele>264.98</ele>
        <time>2023-04-17T09:54:30Z</time>
      </trkpt>
      <trkpt lat="44.43996" lon="1.74697">
        <ele>266.9</ele>
        <time>2023-04-17T09:54:47Z</time>
      </trkpt>
      <trkpt lat="44.44006" lon="1.74722">
        <ele>267.38</ele>
        <time>2023-04-17T09:55:03Z</time>
      </trkpt>
      <trkpt lat="44.44017" lon="1.74748">
        <ele>269.31</ele>
        <time>2023-04-17T09:55:20Z</time>
      </trkpt>
      <trkpt lat="44.44025" lon="1.74774">
        <ele>268.83</ele>
        <time>2023-04-17T09:55:37Z</time>
      </trkpt>
      <trkpt lat="44.44033" lon="1.74788">
        <ele>269.79</ele>
        <time>2023-04-17T09:55:49Z</time>
      </trkpt>
      <trkpt lat="44.44047" lon="1.74793">
        <ele>273.63</ele>
        <time>2023-04-17T09:56:03Z</time>
      </trkpt>
      <trkpt lat="44.44063" lon="1.748">
        <ele>275.07</ele>
        <time>2023-04-17T09:56:20Z</time>
      </trkpt>
      <trkpt lat="44.44078" lon="1.7481">
        <ele>274.59</ele>
        <time>2023-04-17T09:56:38Z</time>
      </trkpt>
      <trkpt lat="44.44088" lon="1.74825">
        <ele>274.11</ele>
        <time>2023-04-17T09:56:55Z</time>
      </trkpt>
      <trkpt lat="44.44092" lon="1.74844">
        <ele>274.11</ele>
        <time>2023-04-17T09:57:11Z</time>
      </trkpt>
      <trkpt lat="44.44093" lon="1.74866">
        <ele>273.15</ele>
        <time>2023-04-17T09:57:30Z</time>
      </trkpt>
      <trkpt lat="44.44095" lon="1.74883">
        <ele>274.11</ele>
        <time>2023-04-17T09:57:44Z</time>
      </trkpt>
      <trkpt lat="44.44096" lon="1.74905">
        <ele>275.56</ele>
        <time>2023-04-17T09:58:03Z</time>
      </trkpt>
      <trkpt lat="44.44098" lon="1.74922">
        <ele>275.56</ele>
        <time>2023-04-17T09:58:18Z</time>
      </trkpt>
      <trkpt lat="44.44099" lon="1.74937">
        <ele>277.96</ele>
        <time>2023-04-17T09:58:33Z</time>
      </trkpt>
      <trkpt lat="44.441" lon="1.74956">
        <ele>279.88</ele>
        <time>2023-04-17T09:58:51Z</time>
      </trkpt>
      <trkpt lat="44.44103" lon="1.74973">
        <ele>282.77</ele>
        <time>2023-04-17T09:59:08Z</time>
      </trkpt>
      <trkpt lat="44.44105" lon="1.74989">
        <ele>287.09</ele>
        <time>2023-04-17T09:59:24Z</time>
      </trkpt>
      <trkpt lat="44.44109" lon="1.75011">
        <ele>289.01</ele>
        <time>2023-04-17T09:59:42Z</time>
      </trkpt>
      <trkpt lat="44.44109" lon="1.75016">
        <ele>289.01</ele>
        <time>2023-04-17T09:59:46Z</time>
      </trkpt>
      <trkpt lat="44.44111" lon="1.75034">
        <ele>290.46</ele>
        <time>2023-04-17T10:00:02Z</time>
      </trkpt>
      <trkpt lat="44.44114" lon="1.75052">
        <ele>292.38</ele>
        <time>2023-04-17T10:00:18Z</time>
      </trkpt>
      <trkpt lat="44.44116" lon="1.75074">
        <ele>294.3</ele>
        <time>2023-04-17T10:00:36Z</time>
      </trkpt>
      <trkpt lat="44.44117" lon="1.75091">
        <ele>296.22</ele>
        <time>2023-04-17T10:00:51Z</time>
      </trkpt>
      <trkpt lat="44.44114" lon="1.75097">
        <ele>296.22</ele>
        <time>2023-04-17T10:01:06Z</time>
      </trkpt>
      <trkpt lat="44.44114" lon="1.75097">
        <ele>298.15</ele>
        <time>2023-04-17T10:01:20Z</time>
      </trkpt>
      <trkpt lat="44.44115" lon="1.75093">
        <ele>299.59</ele>
        <time>2023-04-17T10:01:40Z</time>
      </trkpt>
      <trkpt lat="44.44116" lon="1.75092">
        <ele>301.99</ele>
        <time>2023-04-17T10:02:04Z</time>
      </trkpt>
      <trkpt lat="44.44114" lon="1.75092">
        <ele>303.91</ele>
        <time>2023-04-17T10:02:30Z</time>
      </trkpt>
      <trkpt lat="44.44115" lon="1.75092">
        <ele>303.43</ele>
        <time>2023-04-17T10:02:50Z</time>
      </trkpt>
      <trkpt lat="44.44116" lon="1.75094">
        <ele>303.91</ele>
        <time>2023-04-17T10:03:09Z</time>
      </trkpt>
      <trkpt lat="44.44118" lon="1.75095">
        <ele>304.88</ele>
        <time>2023-04-17T10:03:25Z</time>
      </trkpt>
      <trkpt lat="44.44117" lon="1.75093">
        <ele>302.95</ele>
        <time>2023-04-17T10:03:46Z</time>
      </trkpt>
      <trkpt lat="44.44119" lon="1.75094">
        <ele>301.51</ele>
        <time>2023-04-17T10:04:22Z</time>
      </trkpt>
      <trkpt lat="44.44119" lon="1.75096">
        <ele>300.55</ele>
        <time>2023-04-17T10:04:46Z</time>
      </trkpt>
      <trkpt lat="44.44117" lon="1.75098">
        <ele>300.07</ele>
        <time>2023-04-17T10:05:11Z</time>
      </trkpt>
      <trkpt lat="44.4411" lon="1.75104">
        <ele>301.99</ele>
        <time>2023-04-17T10:05:29Z</time>
      </trkpt>
      <trkpt lat="44.44099" lon="1.75111">
        <ele>300.07</ele>
        <time>2023-04-17T10:05:44Z</time>
      </trkpt>
      <trkpt lat="44.44083" lon="1.75123">
        <ele>298.15</ele>
        <time>2023-04-17T10:06:02Z</time>
      </trkpt>
      <trkpt lat="44.44082" lon="1.75124">
        <ele>298.63</ele>
        <time>2023-04-17T10:06:03Z</time>
      </trkpt>
      <trkpt lat="44.44081" lon="1.75125">
        <ele>298.63</ele>
        <time>2023-04-17T10:06:04Z</time>
      </trkpt>
      <trkpt lat="44.44079" lon="1.75126">
        <ele>298.63</ele>
        <time>2023-04-17T10:06:05Z</time>
      </trkpt>
      <trkpt lat="44.44067" lon="1.75135">
        <ele>297.67</ele>
        <time>2023-04-17T10:06:17Z</time>
      </trkpt>
      <trkpt lat="44.4405" lon="1.75154">
        <ele>295.74</ele>
        <time>2023-04-17T10:06:35Z</time>
      </trkpt>
      <trkpt lat="44.44032" lon="1.75182">
        <ele>296.22</ele>
        <time>2023-04-17T10:06:56Z</time>
      </trkpt>
      <trkpt lat="44.44022" lon="1.7521">
        <ele>297.67</ele>
        <time>2023-04-17T10:07:14Z</time>
      </trkpt>
      <trkpt lat="44.44017" lon="1.75227">
        <ele>296.22</ele>
        <time>2023-04-17T10:07:27Z</time>
      </trkpt>
      <trkpt lat="44.44014" lon="1.75258">
        <ele>297.18</ele>
        <time>2023-04-17T10:07:46Z</time>
      </trkpt>
      <trkpt lat="44.44007" lon="1.75283">
        <ele>296.7</ele>
        <time>2023-04-17T10:08:03Z</time>
      </trkpt>
      <trkpt lat="44.44002" lon="1.75297">
        <ele>297.67</ele>
        <time>2023-04-17T10:08:18Z</time>
      </trkpt>
      <trkpt lat="44.43999" lon="1.75296">
        <ele>298.15</ele>
        <time>2023-04-17T10:08:28Z</time>
      </trkpt>
      <trkpt lat="44.43998" lon="1.7531">
        <ele>300.07</ele>
        <time>2023-04-17T10:08:39Z</time>
      </trkpt>
      <trkpt lat="44.43997" lon="1.75316">
        <ele>299.59</ele>
        <time>2023-04-17T10:08:45Z</time>
      </trkpt>
      <trkpt lat="44.43995" lon="1.75319">
        <ele>300.07</ele>
        <time>2023-04-17T10:08:47Z</time>
      </trkpt>
      <trkpt lat="44.43995" lon="1.75321">
        <ele>300.07</ele>
        <time>2023-04-17T10:08:48Z</time>
      </trkpt>
      <trkpt lat="44.43994" lon="1.75327">
        <ele>301.51</ele>
        <time>2023-04-17T10:09:02Z</time>
      </trkpt>
      <trkpt lat="44.43996" lon="1.75339">
        <ele>299.11</ele>
        <time>2023-04-17T10:09:16Z</time>
      </trkpt>
      <trkpt lat="44.43997" lon="1.75357">
        <ele>298.15</ele>
        <time>2023-04-17T10:09:27Z</time>
      </trkpt>
      <trkpt lat="44.43997" lon="1.75358">
        <ele>298.15</ele>
        <time>2023-04-17T10:09:28Z</time>
      </trkpt>
      <trkpt lat="44.43999" lon="1.75375">
        <ele>296.7</ele>
        <time>2023-04-17T10:09:41Z</time>
      </trkpt>
      <trkpt lat="44.43999" lon="1.75377">
        <ele>296.22</ele>
        <time>2023-04-17T10:09:42Z</time>
      </trkpt>
      <trkpt lat="44.43996" lon="1.75397">
        <ele>295.74</ele>
        <time>2023-04-17T10:09:56Z</time>
      </trkpt>
      <trkpt lat="44.43998" lon="1.75415">
        <ele>293.82</ele>
        <time>2023-04-17T10:10:09Z</time>
      </trkpt>
      <trkpt lat="44.43998" lon="1.75431">
        <ele>293.34</ele>
        <time>2023-04-17T10:10:21Z</time>
      </trkpt>
      <trkpt lat="44.44" lon="1.75436">
        <ele>292.86</ele>
        <time>2023-04-17T10:10:31Z</time>
      </trkpt>
      <trkpt lat="44.44002" lon="1.75438">
        <ele>292.86</ele>
        <time>2023-04-17T10:10:33Z</time>
      </trkpt>
      <trkpt lat="44.44007" lon="1.75445">
        <ele>295.26</ele>
        <time>2023-04-17T10:10:43Z</time>
      </trkpt>
      <trkpt lat="44.4402" lon="1.75461">
        <ele>297.18</ele>
        <time>2023-04-17T10:10:54Z</time>
      </trkpt>
      <trkpt lat="44.44025" lon="1.75471">
        <ele>298.63</ele>
        <time>2023-04-17T10:11:06Z</time>
      </trkpt>
      <trkpt lat="44.44026" lon="1.75472">
        <ele>298.15</ele>
        <time>2023-04-17T10:11:07Z</time>
      </trkpt>
      <trkpt lat="44.44028" lon="1.75476">
        <ele>297.67</ele>
        <time>2023-04-17T10:11:10Z</time>
      </trkpt>
      <trkpt lat="44.44029" lon="1.7548">
        <ele>297.67</ele>
        <time>2023-04-17T10:11:12Z</time>
      </trkpt>
      <trkpt lat="44.44029" lon="1.75483">
        <ele>297.18</ele>
        <time>2023-04-17T10:11:13Z</time>
      </trkpt>
      <trkpt lat="44.4403" lon="1.75485">
        <ele>297.18</ele>
        <time>2023-04-17T10:11:14Z</time>
      </trkpt>
      <trkpt lat="44.4403" lon="1.75487">
        <ele>297.18</ele>
        <time>2023-04-17T10:11:15Z</time>
      </trkpt>
      <trkpt lat="44.4403" lon="1.7549">
        <ele>297.67</ele>
        <time>2023-04-17T10:11:16Z</time>
      </trkpt>
      <trkpt lat="44.4403" lon="1.75493">
        <ele>297.67</ele>
        <time>2023-04-17T10:11:17Z</time>
      </trkpt>
      <trkpt lat="44.44033" lon="1.75517">
        <ele>297.18</ele>
        <time>2023-04-17T10:11:30Z</time>
      </trkpt>
      <trkpt lat="44.44035" lon="1.75525">
        <ele>295.74</ele>
        <time>2023-04-17T10:11:42Z</time>
      </trkpt>
      <trkpt lat="44.44034" lon="1.75529">
        <ele>295.26</ele>
        <time>2023-04-17T10:11:57Z</time>
      </trkpt>
      <trkpt lat="44.4403" lon="1.75536">
        <ele>291.9</ele>
        <time>2023-04-17T10:12:11Z</time>
      </trkpt>
      <trkpt lat="44.44033" lon="1.75537">
        <ele>288.05</ele>
        <time>2023-04-17T10:12:29Z</time>
      </trkpt>
      <trkpt lat="44.44035" lon="1.75533">
        <ele>287.09</ele>
        <time>2023-04-17T10:12:40Z</time>
      </trkpt>
      <trkpt lat="44.44036" lon="1.7553">
        <ele>287.57</ele>
        <time>2023-04-17T10:12:44Z</time>
      </trkpt>
      <trkpt lat="44.44038" lon="1.75533">
        <ele>288.53</ele>
        <time>2023-04-17T10:12:56Z</time>
      </trkpt>
      <trkpt lat="44.44043" lon="1.75535">
        <ele>287.57</ele>
        <time>2023-04-17T10:13:14Z</time>
      </trkpt>
      <trkpt lat="44.44044" lon="1.75537">
        <ele>285.17</ele>
        <time>2023-04-17T10:13:35Z</time>
      </trkpt>
      <trkpt lat="44.44044" lon="1.75538">
        <ele>285.17</ele>
        <time>2023-04-17T10:13:41Z</time>
      </trkpt>
      <trkpt lat="44.44045" lon="1.7554">
        <ele>285.17</ele>
        <time>2023-04-17T10:13:42Z</time>
      </trkpt>
      <trkpt lat="44.44047" lon="1.75558">
        <ele>285.65</ele>
        <time>2023-04-17T10:13:56Z</time>
      </trkpt>
      <trkpt lat="44.44047" lon="1.75563">
        <ele>286.13</ele>
        <time>2023-04-17T10:13:59Z</time>
      </trkpt>
      <trkpt lat="44.44048" lon="1.75584">
        <ele>288.05</ele>
        <time>2023-04-17T10:14:14Z</time>
      </trkpt>
      <trkpt lat="44.44049" lon="1.75592">
        <ele>286.61</ele>
        <time>2023-04-17T10:14:34Z</time>
      </trkpt>
      <trkpt lat="44.44037" lon="1.75599">
        <ele>285.17</ele>
        <time>2023-04-17T10:14:51Z</time>
      </trkpt>
      <trkpt lat="44.44035" lon="1.756">
        <ele>285.65</ele>
        <time>2023-04-17T10:14:52Z</time>
      </trkpt>
      <trkpt lat="44.44022" lon="1.75603">
        <ele>285.65</ele>
        <time>2023-04-17T10:15:02Z</time>
      </trkpt>
      <trkpt lat="44.44016" lon="1.75608">
        <ele>284.69</ele>
        <time>2023-04-17T10:15:15Z</time>
      </trkpt>
      <trkpt lat="44.44012" lon="1.7561">
        <ele>284.21</ele>
        <time>2023-04-17T10:15:27Z</time>
      </trkpt>
      <trkpt lat="44.44002" lon="1.75614">
        <ele>283.25</ele>
        <time>2023-04-17T10:15:42Z</time>
      </trkpt>
      <trkpt lat="44.43994" lon="1.75616">
        <ele>282.77</ele>
        <time>2023-04-17T10:15:55Z</time>
      </trkpt>
      <trkpt lat="44.43984" lon="1.7562">
        <ele>281.8</ele>
        <time>2023-04-17T10:16:06Z</time>
      </trkpt>
      <trkpt lat="44.43976" lon="1.75624">
        <ele>280.36</ele>
        <time>2023-04-17T10:16:19Z</time>
      </trkpt>
      <trkpt lat="44.43968" lon="1.75627">
        <ele>277.48</ele>
        <time>2023-04-17T10:16:34Z</time>
      </trkpt>
      <trkpt lat="44.43957" lon="1.7563">
        <ele>274.11</ele>
        <time>2023-04-17T10:16:49Z</time>
      </trkpt>
      <trkpt lat="44.4395" lon="1.75633">
        <ele>270.75</ele>
        <time>2023-04-17T10:17:01Z</time>
      </trkpt>
      <trkpt lat="44.43944" lon="1.75639">
        <ele>270.27</ele>
        <time>2023-04-17T10:17:16Z</time>
      </trkpt>
      <trkpt lat="44.43936" lon="1.75643">
        <ele>269.79</ele>
        <time>2023-04-17T10:17:28Z</time>
      </trkpt>
      <trkpt lat="44.43929" lon="1.75646">
        <ele>270.27</ele>
        <time>2023-04-17T10:17:38Z</time>
      </trkpt>
      <trkpt lat="44.43916" lon="1.75652">
        <ele>267.38</ele>
        <time>2023-04-17T10:17:54Z</time>
      </trkpt>
      <trkpt lat="44.43902" lon="1.75665">
        <ele>264.02</ele>
        <time>2023-04-17T10:18:10Z</time>
      </trkpt>
      <trkpt lat="44.43899" lon="1.75679">
        <ele>262.58</ele>
        <time>2023-04-17T10:18:20Z</time>
      </trkpt>
      <trkpt lat="44.43889" lon="1.75698">
        <ele>262.1</ele>
        <time>2023-04-17T10:18:37Z</time>
      </trkpt>
      <trkpt lat="44.43878" lon="1.757">
        <ele>261.62</ele>
        <time>2023-04-17T10:18:50Z</time>
      </trkpt>
      <trkpt lat="44.43878" lon="1.757">
        <ele>261.14</ele>
        <time>2023-04-17T10:18:51Z</time>
      </trkpt>
      <trkpt lat="44.43867" lon="1.75703">
        <ele>260.65</ele>
        <time>2023-04-17T10:19:04Z</time>
      </trkpt>
      <trkpt lat="44.43856" lon="1.75713">
        <ele>259.21</ele>
        <time>2023-04-17T10:19:18Z</time>
      </trkpt>
      <trkpt lat="44.43848" lon="1.75712">
        <ele>257.29</ele>
        <time>2023-04-17T10:19:38Z</time>
      </trkpt>
      <trkpt lat="44.43842" lon="1.75714">
        <ele>258.25</ele>
        <time>2023-04-17T10:19:49Z</time>
      </trkpt>
      <trkpt lat="44.43829" lon="1.75719">
        <ele>258.25</ele>
        <time>2023-04-17T10:20:04Z</time>
      </trkpt>
      <trkpt lat="44.43815" lon="1.75726">
        <ele>256.81</ele>
        <time>2023-04-17T10:20:18Z</time>
      </trkpt>
      <trkpt lat="44.43798" lon="1.75733">
        <ele>256.81</ele>
        <time>2023-04-17T10:20:34Z</time>
      </trkpt>
      <trkpt lat="44.43786" lon="1.75737">
        <ele>257.77</ele>
        <time>2023-04-17T10:20:46Z</time>
      </trkpt>
      <trkpt lat="44.43773" lon="1.7574">
        <ele>258.25</ele>
        <time>2023-04-17T10:20:58Z</time>
      </trkpt>
      <trkpt lat="44.43757" lon="1.75743">
        <ele>258.73</ele>
        <time>2023-04-17T10:21:10Z</time>
      </trkpt>
      <trkpt lat="44.43738" lon="1.75748">
        <ele>261.62</ele>
        <time>2023-04-17T10:21:26Z</time>
      </trkpt>
      <trkpt lat="44.4372" lon="1.75754">
        <ele>263.54</ele>
        <time>2023-04-17T10:21:41Z</time>
      </trkpt>
      <trkpt lat="44.43703" lon="1.75756">
        <ele>264.02</ele>
        <time>2023-04-17T10:21:53Z</time>
      </trkpt>
      <trkpt lat="44.43693" lon="1.75762">
        <ele>262.1</ele>
        <time>2023-04-17T10:22:03Z</time>
      </trkpt>
      <trkpt lat="44.43684" lon="1.75764">
        <ele>262.58</ele>
        <time>2023-04-17T10:22:10Z</time>
      </trkpt>
      <trkpt lat="44.43676" lon="1.75767">
        <ele>262.58</ele>
        <time>2023-04-17T10:22:24Z</time>
      </trkpt>
      <trkpt lat="44.43661" lon="1.75764">
        <ele>263.54</ele>
        <time>2023-04-17T10:22:34Z</time>
      </trkpt>
      <trkpt lat="44.43648" lon="1.75764">
        <ele>264.02</ele>
        <time>2023-04-17T10:22:48Z</time>
      </trkpt>
      <trkpt lat="44.43645" lon="1.75763">
        <ele>264.02</ele>
        <time>2023-04-17T10:22:52Z</time>
      </trkpt>
      <trkpt lat="44.43633" lon="1.75758">
        <ele>264.5</ele>
        <time>2023-04-17T10:23:05Z</time>
      </trkpt>
      <trkpt lat="44.43628" lon="1.75756">
        <ele>264.5</ele>
        <time>2023-04-17T10:23:09Z</time>
      </trkpt>
      <trkpt lat="44.43626" lon="1.75756">
        <ele>264.5</ele>
        <time>2023-04-17T10:23:10Z</time>
      </trkpt>
      <trkpt lat="44.43612" lon="1.75748">
        <ele>265.46</ele>
        <time>2023-04-17T10:23:25Z</time>
      </trkpt>
      <trkpt lat="44.43596" lon="1.75742">
        <ele>264.02</ele>
        <time>2023-04-17T10:23:38Z</time>
      </trkpt>
      <trkpt lat="44.43589" lon="1.75736">
        <ele>264.98</ele>
        <time>2023-04-17T10:23:43Z</time>
      </trkpt>
      <trkpt lat="44.43583" lon="1.75732">
        <ele>265.94</ele>
        <time>2023-04-17T10:23:50Z</time>
      </trkpt>
      <trkpt lat="44.43579" lon="1.75722">
        <ele>267.86</ele>
        <time>2023-04-17T10:23:58Z</time>
      </trkpt>
      <trkpt lat="44.43578" lon="1.75721">
        <ele>267.86</ele>
        <time>2023-04-17T10:23:59Z</time>
      </trkpt>
      <trkpt lat="44.43574" lon="1.75709">
        <ele>267.38</ele>
        <time>2023-04-17T10:24:11Z</time>
      </trkpt>
      <trkpt lat="44.43569" lon="1.75697">
        <ele>267.38</ele>
        <time>2023-04-17T10:24:23Z</time>
      </trkpt>
      <trkpt lat="44.43561" lon="1.75681">
        <ele>267.38</ele>
        <time>2023-04-17T10:24:36Z</time>
      </trkpt>
      <trkpt lat="44.43554" lon="1.75668">
        <ele>267.38</ele>
        <time>2023-04-17T10:24:48Z</time>
      </trkpt>
      <trkpt lat="44.4354" lon="1.75659">
        <ele>266.42</ele>
        <time>2023-04-17T10:25:03Z</time>
      </trkpt>
      <trkpt lat="44.43526" lon="1.75651">
        <ele>266.9</ele>
        <time>2023-04-17T10:25:16Z</time>
      </trkpt>
      <trkpt lat="44.43508" lon="1.75637">
        <ele>265.46</ele>
        <time>2023-04-17T10:25:33Z</time>
      </trkpt>
      <trkpt lat="44.43492" lon="1.7563">
        <ele>264.5</ele>
        <time>2023-04-17T10:25:50Z</time>
      </trkpt>
      <trkpt lat="44.43479" lon="1.75614">
        <ele>264.02</ele>
        <time>2023-04-17T10:26:04Z</time>
      </trkpt>
      <trkpt lat="44.43475" lon="1.7561">
        <ele>265.46</ele>
        <time>2023-04-17T10:26:19Z</time>
      </trkpt>
      <trkpt lat="44.4347" lon="1.75612">
        <ele>264.5</ele>
        <time>2023-04-17T10:26:33Z</time>
      </trkpt>
      <trkpt lat="44.43468" lon="1.75611">
        <ele>263.54</ele>
        <time>2023-04-17T10:26:53Z</time>
      </trkpt>
      <trkpt lat="44.4347" lon="1.75609">
        <ele>264.98</ele>
        <time>2023-04-17T10:27:17Z</time>
      </trkpt>
      <trkpt lat="44.43472" lon="1.75606">
        <ele>267.38</ele>
        <time>2023-04-17T10:27:40Z</time>
      </trkpt>
      <trkpt lat="44.43471" lon="1.75607">
        <ele>270.27</ele>
        <time>2023-04-17T10:28:06Z</time>
      </trkpt>
      <trkpt lat="44.43471" lon="1.75605">
        <ele>270.27</ele>
        <time>2023-04-17T10:28:28Z</time>
      </trkpt>
      <trkpt lat="44.43466" lon="1.75599">
        <ele>267.86</ele>
        <time>2023-04-17T10:28:41Z</time>
      </trkpt>
      <trkpt lat="44.43463" lon="1.75596">
        <ele>267.86</ele>
        <time>2023-04-17T10:28:44Z</time>
      </trkpt>
      <trkpt lat="44.43455" lon="1.75588">
        <ele>267.38</ele>
        <time>2023-04-17T10:28:57Z</time>
      </trkpt>
      <trkpt lat="44.43447" lon="1.75577">
        <ele>267.38</ele>
        <time>2023-04-17T10:29:11Z</time>
      </trkpt>
      <trkpt lat="44.43438" lon="1.75565">
        <ele>266.9</ele>
        <time>2023-04-17T10:29:25Z</time>
      </trkpt>
      <trkpt lat="44.43438" lon="1.75564">
        <ele>267.38</ele>
        <time>2023-04-17T10:29:26Z</time>
      </trkpt>
      <trkpt lat="44.43428" lon="1.75552">
        <ele>267.86</ele>
        <time>2023-04-17T10:29:38Z</time>
      </trkpt>
      <trkpt lat="44.43421" lon="1.75542">
        <ele>267.86</ele>
        <time>2023-04-17T10:29:47Z</time>
      </trkpt>
      <trkpt lat="44.43421" lon="1.75541">
        <ele>267.86</ele>
        <time>2023-04-17T10:29:48Z</time>
      </trkpt>
      <trkpt lat="44.4342" lon="1.75539">
        <ele>267.86</ele>
        <time>2023-04-17T10:29:49Z</time>
      </trkpt>
      <trkpt lat="44.43414" lon="1.75533">
        <ele>267.38</ele>
        <time>2023-04-17T10:29:59Z</time>
      </trkpt>
      <trkpt lat="44.43406" lon="1.75526">
        <ele>266.42</ele>
        <time>2023-04-17T10:30:10Z</time>
      </trkpt>
      <trkpt lat="44.43402" lon="1.75516">
        <ele>266.42</ele>
        <time>2023-04-17T10:30:24Z</time>
      </trkpt>
      <trkpt lat="44.43403" lon="1.75521">
        <ele>265.94</ele>
        <time>2023-04-17T10:30:37Z</time>
      </trkpt>
      <trkpt lat="44.43398" lon="1.75532">
        <ele>265.94</ele>
        <time>2023-04-17T10:30:51Z</time>
      </trkpt>
      <trkpt lat="44.43392" lon="1.7554">
        <ele>266.42</ele>
        <time>2023-04-17T10:31:04Z</time>
      </trkpt>
      <trkpt lat="44.43387" lon="1.75548">
        <ele>267.86</ele>
        <time>2023-04-17T10:31:15Z</time>
      </trkpt>
      <trkpt lat="44.4338" lon="1.75557">
        <ele>267.86</ele>
        <time>2023-04-17T10:31:24Z</time>
      </trkpt>
      <trkpt lat="44.43378" lon="1.75559">
        <ele>267.38</ele>
        <time>2023-04-17T10:31:26Z</time>
      </trkpt>
      <trkpt lat="44.43378" lon="1.7556">
        <ele>266.9</ele>
        <time>2023-04-17T10:31:27Z</time>
      </trkpt>
      <trkpt lat="44.43377" lon="1.75562">
        <ele>266.9</ele>
        <time>2023-04-17T10:31:28Z</time>
      </trkpt>
      <trkpt lat="44.43376" lon="1.75563">
        <ele>266.9</ele>
        <time>2023-04-17T10:31:29Z</time>
      </trkpt>
      <trkpt lat="44.43375" lon="1.75564">
        <ele>266.9</ele>
        <time>2023-04-17T10:31:30Z</time>
      </trkpt>
      <trkpt lat="44.43373" lon="1.75565">
        <ele>266.9</ele>
        <time>2023-04-17T10:31:31Z</time>
      </trkpt>
      <trkpt lat="44.43372" lon="1.75566">
        <ele>266.9</ele>
        <time>2023-04-17T10:31:32Z</time>
      </trkpt>
      <trkpt lat="44.43371" lon="1.75567">
        <ele>266.9</ele>
        <time>2023-04-17T10:31:33Z</time>
      </trkpt>
      <trkpt lat="44.43364" lon="1.75574">
        <ele>265.94</ele>
        <time>2023-04-17T10:31:43Z</time>
      </trkpt>
      <trkpt lat="44.43363" lon="1.75574">
        <ele>265.46</ele>
        <time>2023-04-17T10:31:44Z</time>
      </trkpt>
      <trkpt lat="44.43351" lon="1.75582">
        <ele>261.62</ele>
        <time>2023-04-17T10:31:56Z</time>
      </trkpt>
      <trkpt lat="44.43348" lon="1.75584">
        <ele>261.14</ele>
        <time>2023-04-17T10:32:00Z</time>
      </trkpt>
      <trkpt lat="44.43345" lon="1.7559">
        <ele>259.21</ele>
        <time>2023-04-17T10:32:08Z</time>
      </trkpt>
      <trkpt lat="44.43345" lon="1.75595">
        <ele>259.21</ele>
        <time>2023-04-17T10:32:14Z</time>
      </trkpt>
      <trkpt lat="44.43347" lon="1.75593">
        <ele>259.21</ele>
        <time>2023-04-17T10:32:30Z</time>
      </trkpt>
      <trkpt lat="44.43343" lon="1.75598">
        <ele>261.14</ele>
        <time>2023-04-17T10:32:56Z</time>
      </trkpt>
      <trkpt lat="44.43345" lon="1.75594">
        <ele>261.62</ele>
        <time>2023-04-17T10:33:18Z</time>
      </trkpt>
      <trkpt lat="44.43347" lon="1.75585">
        <ele>262.1</ele>
        <time>2023-04-17T10:33:31Z</time>
      </trkpt>
      <trkpt lat="44.43351" lon="1.75572">
        <ele>261.62</ele>
        <time>2023-04-17T10:33:44Z</time>
      </trkpt>
      <trkpt lat="44.4335" lon="1.7556">
        <ele>262.1</ele>
        <time>2023-04-17T10:33:58Z</time>
      </trkpt>
      <trkpt lat="44.4334" lon="1.75551">
        <ele>260.65</ele>
        <time>2023-04-17T10:34:10Z</time>
      </trkpt>
      <trkpt lat="44.43334" lon="1.75539">
        <ele>260.17</ele>
        <time>2023-04-17T10:34:18Z</time>
      </trkpt>
      <trkpt lat="44.43319" lon="1.75517">
        <ele>257.77</ele>
        <time>2023-04-17T10:34:37Z</time>
      </trkpt>
      <trkpt lat="44.43307" lon="1.75503">
        <ele>258.73</ele>
        <time>2023-04-17T10:34:49Z</time>
      </trkpt>
      <trkpt lat="44.43304" lon="1.75503">
        <ele>258.73</ele>
        <time>2023-04-17T10:34:52Z</time>
      </trkpt>
      <trkpt lat="44.43296" lon="1.75496">
        <ele>256.81</ele>
        <time>2023-04-17T10:35:04Z</time>
      </trkpt>
      <trkpt lat="44.43296" lon="1.75495">
        <ele>256.33</ele>
        <time>2023-04-17T10:35:05Z</time>
      </trkpt>
      <trkpt lat="44.43282" lon="1.75482">
        <ele>255.37</ele>
        <time>2023-04-17T10:35:18Z</time>
      </trkpt>
      <trkpt lat="44.43272" lon="1.75476">
        <ele>252.96</ele>
        <time>2023-04-17T10:35:30Z</time>
      </trkpt>
      <trkpt lat="44.43267" lon="1.75474">
        <ele>252</ele>
        <time>2023-04-17T10:35:39Z</time>
      </trkpt>
      <trkpt lat="44.43262" lon="1.75483">
        <ele>252.48</ele>
        <time>2023-04-17T10:35:49Z</time>
      </trkpt>
      <trkpt lat="44.43258" lon="1.75496">
        <ele>253.93</ele>
        <time>2023-04-17T10:36:02Z</time>
      </trkpt>
      <trkpt lat="44.43258" lon="1.75497">
        <ele>253.93</ele>
        <time>2023-04-17T10:36:03Z</time>
      </trkpt>
      <trkpt lat="44.43251" lon="1.75514">
        <ele>255.37</ele>
        <time>2023-04-17T10:36:16Z</time>
      </trkpt>
      <trkpt lat="44.43242" lon="1.75537">
        <ele>252.48</ele>
        <time>2023-04-17T10:36:29Z</time>
      </trkpt>
      <trkpt lat="44.43237" lon="1.75555">
        <ele>251.52</ele>
        <time>2023-04-17T10:36:45Z</time>
      </trkpt>
      <trkpt lat="44.43228" lon="1.75574">
        <ele>251.52</ele>
        <time>2023-04-17T10:37:02Z</time>
      </trkpt>
      <trkpt lat="44.43217" lon="1.75585">
        <ele>252.48</ele>
        <time>2023-04-17T10:37:15Z</time>
      </trkpt>
      <trkpt lat="44.43204" lon="1.75599">
        <ele>254.89</ele>
        <time>2023-04-17T10:37:28Z</time>
      </trkpt>
      <trkpt lat="44.43195" lon="1.75623">
        <ele>258.25</ele>
        <time>2023-04-17T10:37:45Z</time>
      </trkpt>
      <trkpt lat="44.43189" lon="1.75649">
        <ele>262.1</ele>
        <time>2023-04-17T10:38:05Z</time>
      </trkpt>
      <trkpt lat="44.43174" lon="1.75668">
        <ele>265.94</ele>
        <time>2023-04-17T10:38:23Z</time>
      </trkpt>
      <trkpt lat="44.43155" lon="1.75685">
        <ele>268.35</ele>
        <time>2023-04-17T10:38:41Z</time>
      </trkpt>
      <trkpt lat="44.4314" lon="1.75703">
        <ele>268.83</ele>
        <time>2023-04-17T10:38:56Z</time>
      </trkpt>
      <trkpt lat="44.43117" lon="1.75717">
        <ele>264.98</ele>
        <time>2023-04-17T10:39:12Z</time>
      </trkpt>
      <trkpt lat="44.43101" lon="1.75724">
        <ele>261.14</ele>
        <time>2023-04-17T10:39:29Z</time>
      </trkpt>
      <trkpt lat="44.4308" lon="1.7573">
        <ele>260.65</ele>
        <time>2023-04-17T10:39:43Z</time>
      </trkpt>
      <trkpt lat="44.43062" lon="1.75734">
        <ele>257.77</ele>
        <time>2023-04-17T10:39:58Z</time>
      </trkpt>
      <trkpt lat="44.43042" lon="1.75735">
        <ele>262.58</ele>
        <time>2023-04-17T10:40:16Z</time>
      </trkpt>
      <trkpt lat="44.43031" lon="1.75733">
        <ele>261.62</ele>
        <time>2023-04-17T10:40:27Z</time>
      </trkpt>
      <trkpt lat="44.4302" lon="1.75732">
        <ele>260.65</ele>
        <time>2023-04-17T10:40:43Z</time>
      </trkpt>
      <trkpt lat="44.43012" lon="1.75733">
        <ele>261.14</ele>
        <time>2023-04-17T10:40:50Z</time>
      </trkpt>
      <trkpt lat="44.4301" lon="1.75733">
        <ele>261.14</ele>
        <time>2023-04-17T10:40:51Z</time>
      </trkpt>
      <trkpt lat="44.43009" lon="1.75733">
        <ele>260.65</ele>
        <time>2023-04-17T10:40:52Z</time>
      </trkpt>
      <trkpt lat="44.43007" lon="1.75733">
        <ele>260.65</ele>
        <time>2023-04-17T10:40:53Z</time>
      </trkpt>
      <trkpt lat="44.43006" lon="1.75732">
        <ele>260.65</ele>
        <time>2023-04-17T10:40:54Z</time>
      </trkpt>
      <trkpt lat="44.43005" lon="1.75731">
        <ele>260.65</ele>
        <time>2023-04-17T10:40:55Z</time>
      </trkpt>
      <trkpt lat="44.43003" lon="1.7573">
        <ele>260.65</ele>
        <time>2023-04-17T10:40:56Z</time>
      </trkpt>
      <trkpt lat="44.42982" lon="1.75725">
        <ele>260.65</ele>
        <time>2023-04-17T10:41:13Z</time>
      </trkpt>
      <trkpt lat="44.42966" lon="1.75728">
        <ele>259.69</ele>
        <time>2023-04-17T10:41:29Z</time>
      </trkpt>
      <trkpt lat="44.42958" lon="1.75729">
        <ele>258.25</ele>
        <time>2023-04-17T10:41:44Z</time>
      </trkpt>
      <trkpt lat="44.42948" lon="1.75725">
        <ele>257.29</ele>
        <time>2023-04-17T10:41:57Z</time>
      </trkpt>
      <trkpt lat="44.42935" lon="1.75721">
        <ele>256.81</ele>
        <time>2023-04-17T10:42:09Z</time>
      </trkpt>
      <trkpt lat="44.42933" lon="1.75719">
        <ele>257.29</ele>
        <time>2023-04-17T10:42:11Z</time>
      </trkpt>
      <trkpt lat="44.42918" lon="1.75706">
        <ele>258.73</ele>
        <time>2023-04-17T10:42:27Z</time>
      </trkpt>
      <trkpt lat="44.42904" lon="1.75699">
        <ele>259.21</ele>
        <time>2023-04-17T10:42:42Z</time>
      </trkpt>
      <trkpt lat="44.42887" lon="1.75688">
        <ele>259.69</ele>
        <time>2023-04-17T10:42:59Z</time>
      </trkpt>
      <trkpt lat="44.42873" lon="1.75678">
        <ele>261.14</ele>
        <time>2023-04-17T10:43:16Z</time>
      </trkpt>
      <trkpt lat="44.42858" lon="1.75665">
        <ele>261.62</ele>
        <time>2023-04-17T10:43:35Z</time>
      </trkpt>
      <trkpt lat="44.4284" lon="1.75658">
        <ele>262.58</ele>
        <time>2023-04-17T10:43:53Z</time>
      </trkpt>
      <trkpt lat="44.42824" lon="1.75641">
        <ele>261.62</ele>
        <time>2023-04-17T10:44:13Z</time>
      </trkpt>
      <trkpt lat="44.42812" lon="1.7563">
        <ele>260.17</ele>
        <time>2023-04-17T10:44:26Z</time>
      </trkpt>
      <trkpt lat="44.42791" lon="1.75634">
        <ele>256.81</ele>
        <time>2023-04-17T10:44:44Z</time>
      </trkpt>
      <trkpt lat="44.4277" lon="1.75631">
        <ele>253.44</ele>
        <time>2023-04-17T10:45:04Z</time>
      </trkpt>
      <trkpt lat="44.42752" lon="1.7562">
        <ele>255.37</ele>
        <time>2023-04-17T10:45:23Z</time>
      </trkpt>
      <trkpt lat="44.4274" lon="1.75608">
        <ele>257.29</ele>
        <time>2023-04-17T10:45:38Z</time>
      </trkpt>
      <trkpt lat="44.4273" lon="1.75592">
        <ele>258.25</ele>
        <time>2023-04-17T10:45:53Z</time>
      </trkpt>
      <trkpt lat="44.42718" lon="1.75582">
        <ele>258.25</ele>
        <time>2023-04-17T10:46:04Z</time>
      </trkpt>
      <trkpt lat="44.42704" lon="1.75569">
        <ele>258.25</ele>
        <time>2023-04-17T10:46:19Z</time>
      </trkpt>
      <trkpt lat="44.42691" lon="1.75558">
        <ele>258.73</ele>
        <time>2023-04-17T10:46:34Z</time>
      </trkpt>
      <trkpt lat="44.42676" lon="1.75546">
        <ele>259.21</ele>
        <time>2023-04-17T10:46:49Z</time>
      </trkpt>
      <trkpt lat="44.4266" lon="1.7553">
        <ele>260.17</ele>
        <time>2023-04-17T10:47:06Z</time>
      </trkpt>
      <trkpt lat="44.42643" lon="1.75513">
        <ele>261.14</ele>
        <time>2023-04-17T10:47:23Z</time>
      </trkpt>
      <trkpt lat="44.42626" lon="1.75496">
        <ele>259.69</ele>
        <time>2023-04-17T10:47:42Z</time>
      </trkpt>
      <trkpt lat="44.42608" lon="1.75481">
        <ele>258.25</ele>
        <time>2023-04-17T10:48:01Z</time>
      </trkpt>
      <trkpt lat="44.42601" lon="1.75473">
        <ele>258.25</ele>
        <time>2023-04-17T10:48:11Z</time>
      </trkpt>
      <trkpt lat="44.42589" lon="1.75454">
        <ele>259.69</ele>
        <time>2023-04-17T10:48:29Z</time>
      </trkpt>
      <trkpt lat="44.42581" lon="1.75438">
        <ele>263.06</ele>
        <time>2023-04-17T10:48:43Z</time>
      </trkpt>
      <trkpt lat="44.42573" lon="1.7542">
        <ele>264.5</ele>
        <time>2023-04-17T10:48:58Z</time>
      </trkpt>
      <trkpt lat="44.42568" lon="1.75403">
        <ele>264.98</ele>
        <time>2023-04-17T10:49:12Z</time>
      </trkpt>
      <trkpt lat="44.42566" lon="1.75391">
        <ele>265.46</ele>
        <time>2023-04-17T10:49:25Z</time>
      </trkpt>
      <trkpt lat="44.42558" lon="1.75372">
        <ele>264.5</ele>
        <time>2023-04-17T10:49:41Z</time>
      </trkpt>
      <trkpt lat="44.42548" lon="1.75354">
        <ele>263.06</ele>
        <time>2023-04-17T10:49:55Z</time>
      </trkpt>
      <trkpt lat="44.42542" lon="1.75338">
        <ele>257.29</ele>
        <time>2023-04-17T10:50:09Z</time>
      </trkpt>
      <trkpt lat="44.42534" lon="1.75328">
        <ele>258.25</ele>
        <time>2023-04-17T10:50:26Z</time>
      </trkpt>
      <trkpt lat="44.42529" lon="1.75319">
        <ele>259.21</ele>
        <time>2023-04-17T10:50:42Z</time>
      </trkpt>
      <trkpt lat="44.42526" lon="1.75309">
        <ele>261.14</ele>
        <time>2023-04-17T10:50:55Z</time>
      </trkpt>
      <trkpt lat="44.42522" lon="1.75288">
        <ele>261.62</ele>
        <time>2023-04-17T10:51:11Z</time>
      </trkpt>
      <trkpt lat="44.42516" lon="1.75267">
        <ele>261.14</ele>
        <time>2023-04-17T10:51:25Z</time>
      </trkpt>
      <trkpt lat="44.42503" lon="1.75248">
        <ele>259.69</ele>
        <time>2023-04-17T10:51:41Z</time>
      </trkpt>
      <trkpt lat="44.42487" lon="1.75231">
        <ele>255.37</ele>
        <time>2023-04-17T10:51:58Z</time>
      </trkpt>
      <trkpt lat="44.42473" lon="1.75211">
        <ele>252</ele>
        <time>2023-04-17T10:52:15Z</time>
      </trkpt>
      <trkpt lat="44.42466" lon="1.75191">
        <ele>252</ele>
        <time>2023-04-17T10:52:30Z</time>
      </trkpt>
      <trkpt lat="44.42458" lon="1.75166">
        <ele>250.08</ele>
        <time>2023-04-17T10:52:46Z</time>
      </trkpt>
      <trkpt lat="44.42455" lon="1.7515">
        <ele>252.48</ele>
        <time>2023-04-17T10:52:55Z</time>
      </trkpt>
      <trkpt lat="44.4245" lon="1.75131">
        <ele>257.77</ele>
        <time>2023-04-17T10:53:11Z</time>
      </trkpt>
      <trkpt lat="44.42451" lon="1.75131">
        <ele>258.25</ele>
        <time>2023-04-17T10:53:32Z</time>
      </trkpt>
      <trkpt lat="44.42443" lon="1.75125">
        <ele>257.77</ele>
        <time>2023-04-17T10:53:46Z</time>
      </trkpt>
      <trkpt lat="44.42436" lon="1.75124">
        <ele>258.25</ele>
        <time>2023-04-17T10:54:05Z</time>
      </trkpt>
      <trkpt lat="44.42437" lon="1.75123">
        <ele>261.14</ele>
        <time>2023-04-17T10:54:25Z</time>
      </trkpt>
      <trkpt lat="44.42437" lon="1.7512">
        <ele>264.02</ele>
        <time>2023-04-17T10:54:47Z</time>
      </trkpt>
      <trkpt lat="44.42443" lon="1.75116">
        <ele>263.54</ele>
        <time>2023-04-17T10:55:02Z</time>
      </trkpt>
      <trkpt lat="44.42451" lon="1.75107">
        <ele>262.1</ele>
        <time>2023-04-17T10:55:17Z</time>
      </trkpt>
      <trkpt lat="44.4246" lon="1.75091">
        <ele>259.21</ele>
        <time>2023-04-17T10:55:34Z</time>
      </trkpt>
      <trkpt lat="44.42463" lon="1.75087">
        <ele>258.73</ele>
        <time>2023-04-17T10:55:38Z</time>
      </trkpt>
      <trkpt lat="44.42465" lon="1.75069">
        <ele>258.73</ele>
        <time>2023-04-17T10:55:54Z</time>
      </trkpt>
      <trkpt lat="44.42457" lon="1.75064">
        <ele>259.69</ele>
        <time>2023-04-17T10:56:09Z</time>
      </trkpt>
      <trkpt lat="44.42456" lon="1.75067">
        <ele>261.14</ele>
        <time>2023-04-17T10:56:27Z</time>
      </trkpt>
      <trkpt lat="44.42456" lon="1.75065">
        <ele>262.58</ele>
        <time>2023-04-17T10:56:45Z</time>
      </trkpt>
      <trkpt lat="44.42457" lon="1.75064">
        <ele>266.42</ele>
        <time>2023-04-17T10:57:01Z</time>
      </trkpt>
      <trkpt lat="44.42457" lon="1.75065">
        <ele>268.83</ele>
        <time>2023-04-17T10:57:16Z</time>
      </trkpt>
      <trkpt lat="44.42458" lon="1.75066">
        <ele>273.15</ele>
        <time>2023-04-17T10:57:29Z</time>
      </trkpt>
      <trkpt lat="44.42458" lon="1.75066">
        <ele>273.63</ele>
        <time>2023-04-17T10:57:31Z</time>
      </trkpt>
      <trkpt lat="44.4247" lon="1.75051">
        <ele>269.79</ele>
        <time>2023-04-17T11:55:38Z</time>
      </trkpt>
      <trkpt lat="44.42464" lon="1.75052">
        <ele>258.25</ele>
        <time>2023-04-17T11:55:58Z</time>
      </trkpt>
      <trkpt lat="44.4246" lon="1.75057">
        <ele>262.1</ele>
        <time>2023-04-17T11:56:25Z</time>
      </trkpt>
      <trkpt lat="44.42455" lon="1.75065">
        <ele>263.54</ele>
        <time>2023-04-17T11:56:53Z</time>
      </trkpt>
      <trkpt lat="44.42453" lon="1.75066">
        <ele>265.46</ele>
        <time>2023-04-17T11:57:15Z</time>
      </trkpt>
      <trkpt lat="44.42452" lon="1.75067">
        <ele>264.98</ele>
        <time>2023-04-17T11:57:34Z</time>
      </trkpt>
      <trkpt lat="44.42454" lon="1.75068">
        <ele>264.02</ele>
        <time>2023-04-17T11:57:49Z</time>
      </trkpt>
      <trkpt lat="44.42455" lon="1.75069">
        <ele>263.06</ele>
        <time>2023-04-17T11:58:10Z</time>
      </trkpt>
      <trkpt lat="44.42457" lon="1.75071">
        <ele>263.54</ele>
        <time>2023-04-17T11:58:26Z</time>
      </trkpt>
      <trkpt lat="44.42456" lon="1.7507">
        <ele>264.02</ele>
        <time>2023-04-17T11:58:42Z</time>
      </trkpt>
      <trkpt lat="44.42457" lon="1.7507">
        <ele>264.5</ele>
        <time>2023-04-17T11:59:00Z</time>
      </trkpt>
      <trkpt lat="44.42456" lon="1.75067">
        <ele>263.54</ele>
        <time>2023-04-17T11:59:16Z</time>
      </trkpt>
      <trkpt lat="44.42459" lon="1.75068">
        <ele>263.06</ele>
        <time>2023-04-17T11:59:33Z</time>
      </trkpt>
      <trkpt lat="44.42459" lon="1.75067">
        <ele>263.54</ele>
        <time>2023-04-17T11:59:50Z</time>
      </trkpt>
      <trkpt lat="44.42457" lon="1.7507">
        <ele>262.58</ele>
        <time>2023-04-17T12:00:08Z</time>
      </trkpt>
      <trkpt lat="44.4246" lon="1.75069">
        <ele>262.1</ele>
        <time>2023-04-17T12:00:58Z</time>
      </trkpt>
      <trkpt lat="44.42458" lon="1.75069">
        <ele>262.58</ele>
        <time>2023-04-17T12:01:41Z</time>
      </trkpt>
      <trkpt lat="44.42457" lon="1.75071">
        <ele>263.54</ele>
        <time>2023-04-17T12:02:26Z</time>
      </trkpt>
      <trkpt lat="44.42459" lon="1.75071">
        <ele>265.46</ele>
        <time>2023-04-17T12:02:51Z</time>
      </trkpt>
      <trkpt lat="44.42466" lon="1.75074">
        <ele>266.42</ele>
        <time>2023-04-17T12:02:58Z</time>
      </trkpt>
      <trkpt lat="44.4247" lon="1.75085">
        <ele>266.42</ele>
        <time>2023-04-17T12:03:12Z</time>
      </trkpt>
      <trkpt lat="44.4247" lon="1.75086">
        <ele>266.42</ele>
        <time>2023-04-17T12:03:13Z</time>
      </trkpt>
      <trkpt lat="44.42459" lon="1.751">
        <ele>267.38</ele>
        <time>2023-04-17T12:03:29Z</time>
      </trkpt>
      <trkpt lat="44.42448" lon="1.75118">
        <ele>265.94</ele>
        <time>2023-04-17T12:03:46Z</time>
      </trkpt>
      <trkpt lat="44.42443" lon="1.75119">
        <ele>265.94</ele>
        <time>2023-04-17T12:03:50Z</time>
      </trkpt>
      <trkpt lat="44.42437" lon="1.75123">
        <ele>264.5</ele>
        <time>2023-04-17T12:04:04Z</time>
      </trkpt>
      <trkpt lat="44.42437" lon="1.75122">
        <ele>264.5</ele>
        <time>2023-04-17T12:04:21Z</time>
      </trkpt>
      <trkpt lat="44.42437" lon="1.75121">
        <ele>264.98</ele>
        <time>2023-04-17T12:04:40Z</time>
      </trkpt>
      <trkpt lat="44.42436" lon="1.75121">
        <ele>264.02</ele>
        <time>2023-04-17T12:05:05Z</time>
      </trkpt>
      <trkpt lat="44.42435" lon="1.75122">
        <ele>262.58</ele>
        <time>2023-04-17T12:05:23Z</time>
      </trkpt>
      <trkpt lat="44.42437" lon="1.75122">
        <ele>262.1</ele>
        <time>2023-04-17T12:05:46Z</time>
      </trkpt>
      <trkpt lat="44.42435" lon="1.75122">
        <ele>261.62</ele>
        <time>2023-04-17T12:06:05Z</time>
      </trkpt>
      <trkpt lat="44.42436" lon="1.75123">
        <ele>260.65</ele>
        <time>2023-04-17T12:06:37Z</time>
      </trkpt>
      <trkpt lat="44.42433" lon="1.75121">
        <ele>262.1</ele>
        <time>2023-04-17T12:06:59Z</time>
      </trkpt>
      <trkpt lat="44.42421" lon="1.75115">
        <ele>263.54</ele>
        <time>2023-04-17T12:07:14Z</time>
      </trkpt>
      <trkpt lat="44.42408" lon="1.75112">
        <ele>263.54</ele>
        <time>2023-04-17T12:07:30Z</time>
      </trkpt>
      <trkpt lat="44.42397" lon="1.75116">
        <ele>261.14</ele>
        <time>2023-04-17T12:07:44Z</time>
      </trkpt>
      <trkpt lat="44.42384" lon="1.75126">
        <ele>261.14</ele>
        <time>2023-04-17T12:07:59Z</time>
      </trkpt>
      <trkpt lat="44.42368" lon="1.75135">
        <ele>262.1</ele>
        <time>2023-04-17T12:08:16Z</time>
      </trkpt>
      <trkpt lat="44.42364" lon="1.75136">
        <ele>261.62</ele>
        <time>2023-04-17T12:08:34Z</time>
      </trkpt>
      <trkpt lat="44.42354" lon="1.75142">
        <ele>261.62</ele>
        <time>2023-04-17T12:08:48Z</time>
      </trkpt>
      <trkpt lat="44.42339" lon="1.75148">
        <ele>260.65</ele>
        <time>2023-04-17T12:09:06Z</time>
      </trkpt>
      <trkpt lat="44.42324" lon="1.75158">
        <ele>260.17</ele>
        <time>2023-04-17T12:09:21Z</time>
      </trkpt>
      <trkpt lat="44.42306" lon="1.75168">
        <ele>260.17</ele>
        <time>2023-04-17T12:09:39Z</time>
      </trkpt>
      <trkpt lat="44.42289" lon="1.75174">
        <ele>261.14</ele>
        <time>2023-04-17T12:09:56Z</time>
      </trkpt>
      <trkpt lat="44.4227" lon="1.75181">
        <ele>265.46</ele>
        <time>2023-04-17T12:10:11Z</time>
      </trkpt>
      <trkpt lat="44.42255" lon="1.7519">
        <ele>266.9</ele>
        <time>2023-04-17T12:10:26Z</time>
      </trkpt>
      <trkpt lat="44.42251" lon="1.75193">
        <ele>268.35</ele>
        <time>2023-04-17T12:10:43Z</time>
      </trkpt>
      <trkpt lat="44.4224" lon="1.75195">
        <ele>267.86</ele>
        <time>2023-04-17T12:11:05Z</time>
      </trkpt>
      <trkpt lat="44.42221" lon="1.75203">
        <ele>265.46</ele>
        <time>2023-04-17T12:11:22Z</time>
      </trkpt>
      <trkpt lat="44.42203" lon="1.75209">
        <ele>264.02</ele>
        <time>2023-04-17T12:11:39Z</time>
      </trkpt>
      <trkpt lat="44.42183" lon="1.75217">
        <ele>262.58</ele>
        <time>2023-04-17T12:11:57Z</time>
      </trkpt>
      <trkpt lat="44.42165" lon="1.75231">
        <ele>262.1</ele>
        <time>2023-04-17T12:12:16Z</time>
      </trkpt>
      <trkpt lat="44.42151" lon="1.75241">
        <ele>263.06</ele>
        <time>2023-04-17T12:12:28Z</time>
      </trkpt>
      <trkpt lat="44.42135" lon="1.75248">
        <ele>264.02</ele>
        <time>2023-04-17T12:12:44Z</time>
      </trkpt>
      <trkpt lat="44.4212" lon="1.75255">
        <ele>264.02</ele>
        <time>2023-04-17T12:12:59Z</time>
      </trkpt>
      <trkpt lat="44.42107" lon="1.75266">
        <ele>264.98</ele>
        <time>2023-04-17T12:13:14Z</time>
      </trkpt>
      <trkpt lat="44.42088" lon="1.75286">
        <ele>266.42</ele>
        <time>2023-04-17T12:13:32Z</time>
      </trkpt>
      <trkpt lat="44.42075" lon="1.75304">
        <ele>265.46</ele>
        <time>2023-04-17T12:13:50Z</time>
      </trkpt>
      <trkpt lat="44.42062" lon="1.7532">
        <ele>264.5</ele>
        <time>2023-04-17T12:14:06Z</time>
      </trkpt>
      <trkpt lat="44.42046" lon="1.75335">
        <ele>264.5</ele>
        <time>2023-04-17T12:14:23Z</time>
      </trkpt>
      <trkpt lat="44.4203" lon="1.75348">
        <ele>265.46</ele>
        <time>2023-04-17T12:14:41Z</time>
      </trkpt>
      <trkpt lat="44.42016" lon="1.75364">
        <ele>265.94</ele>
        <time>2023-04-17T12:14:58Z</time>
      </trkpt>
      <trkpt lat="44.42001" lon="1.75379">
        <ele>268.35</ele>
        <time>2023-04-17T12:15:17Z</time>
      </trkpt>
      <trkpt lat="44.4199" lon="1.7539">
        <ele>268.83</ele>
        <time>2023-04-17T12:15:32Z</time>
      </trkpt>
      <trkpt lat="44.41973" lon="1.75412">
        <ele>269.31</ele>
        <time>2023-04-17T12:15:53Z</time>
      </trkpt>
      <trkpt lat="44.41954" lon="1.7543">
        <ele>272.67</ele>
        <time>2023-04-17T12:16:11Z</time>
      </trkpt>
      <trkpt lat="44.41938" lon="1.75434">
        <ele>271.23</ele>
        <time>2023-04-17T12:16:29Z</time>
      </trkpt>
      <trkpt lat="44.41916" lon="1.75432">
        <ele>272.19</ele>
        <time>2023-04-17T12:16:50Z</time>
      </trkpt>
      <trkpt lat="44.41915" lon="1.75432">
        <ele>272.19</ele>
        <time>2023-04-17T12:16:51Z</time>
      </trkpt>
      <trkpt lat="44.41896" lon="1.75425">
        <ele>271.71</ele>
        <time>2023-04-17T12:17:09Z</time>
      </trkpt>
      <trkpt lat="44.41881" lon="1.75418">
        <ele>271.71</ele>
        <time>2023-04-17T12:17:23Z</time>
      </trkpt>
      <trkpt lat="44.41864" lon="1.75413">
        <ele>270.75</ele>
        <time>2023-04-17T12:17:39Z</time>
      </trkpt>
      <trkpt lat="44.41848" lon="1.75412">
        <ele>272.19</ele>
        <time>2023-04-17T12:17:54Z</time>
      </trkpt>
      <trkpt lat="44.4184" lon="1.75407">
        <ele>270.27</ele>
        <time>2023-04-17T12:18:09Z</time>
      </trkpt>
      <trkpt lat="44.41825" lon="1.75397">
        <ele>266.42</ele>
        <time>2023-04-17T12:18:26Z</time>
      </trkpt>
      <trkpt lat="44.41817" lon="1.75392">
        <ele>266.42</ele>
        <time>2023-04-17T12:18:35Z</time>
      </trkpt>
      <trkpt lat="44.41801" lon="1.75378">
        <ele>267.86</ele>
        <time>2023-04-17T12:18:51Z</time>
      </trkpt>
      <trkpt lat="44.41786" lon="1.75365">
        <ele>267.86</ele>
        <time>2023-04-17T12:19:09Z</time>
      </trkpt>
      <trkpt lat="44.41773" lon="1.75355">
        <ele>267.86</ele>
        <time>2023-04-17T12:19:25Z</time>
      </trkpt>
      <trkpt lat="44.41756" lon="1.75348">
        <ele>269.79</ele>
        <time>2023-04-17T12:19:41Z</time>
      </trkpt>
      <trkpt lat="44.41742" lon="1.7534">
        <ele>269.79</ele>
        <time>2023-04-17T12:19:56Z</time>
      </trkpt>
      <trkpt lat="44.4173" lon="1.75329">
        <ele>271.23</ele>
        <time>2023-04-17T12:20:10Z</time>
      </trkpt>
      <trkpt lat="44.41718" lon="1.7531">
        <ele>275.56</ele>
        <time>2023-04-17T12:20:27Z</time>
      </trkpt>
      <trkpt lat="44.4171" lon="1.75296">
        <ele>278.44</ele>
        <time>2023-04-17T12:20:42Z</time>
      </trkpt>
      <trkpt lat="44.417" lon="1.75279">
        <ele>279.88</ele>
        <time>2023-04-17T12:20:59Z</time>
      </trkpt>
      <trkpt lat="44.4169" lon="1.7526">
        <ele>280.84</ele>
        <time>2023-04-17T12:21:15Z</time>
      </trkpt>
      <trkpt lat="44.41676" lon="1.7524">
        <ele>282.77</ele>
        <time>2023-04-17T12:21:33Z</time>
      </trkpt>
      <trkpt lat="44.41664" lon="1.75218">
        <ele>283.25</ele>
        <time>2023-04-17T12:21:50Z</time>
      </trkpt>
      <trkpt lat="44.41651" lon="1.75198">
        <ele>284.21</ele>
        <time>2023-04-17T12:22:08Z</time>
      </trkpt>
      <trkpt lat="44.4164" lon="1.75177">
        <ele>282.77</ele>
        <time>2023-04-17T12:22:26Z</time>
      </trkpt>
      <trkpt lat="44.41631" lon="1.75152">
        <ele>283.25</ele>
        <time>2023-04-17T12:22:44Z</time>
      </trkpt>
      <trkpt lat="44.41622" lon="1.75127">
        <ele>285.17</ele>
        <time>2023-04-17T12:23:03Z</time>
      </trkpt>
      <trkpt lat="44.41615" lon="1.75102">
        <ele>285.65</ele>
        <time>2023-04-17T12:23:22Z</time>
      </trkpt>
      <trkpt lat="44.41604" lon="1.75085">
        <ele>286.13</ele>
        <time>2023-04-17T12:23:39Z</time>
      </trkpt>
      <trkpt lat="44.41588" lon="1.75081">
        <ele>287.57</ele>
        <time>2023-04-17T12:23:56Z</time>
      </trkpt>
      <trkpt lat="44.41571" lon="1.75079">
        <ele>288.53</ele>
        <time>2023-04-17T12:24:13Z</time>
      </trkpt>
      <trkpt lat="44.41556" lon="1.75075">
        <ele>289.97</ele>
        <time>2023-04-17T12:24:30Z</time>
      </trkpt>
      <trkpt lat="44.41541" lon="1.75066">
        <ele>291.9</ele>
        <time>2023-04-17T12:24:47Z</time>
      </trkpt>
      <trkpt lat="44.4154" lon="1.75065">
        <ele>291.9</ele>
        <time>2023-04-17T12:24:48Z</time>
      </trkpt>
      <trkpt lat="44.41527" lon="1.75054">
        <ele>293.34</ele>
        <time>2023-04-17T12:25:04Z</time>
      </trkpt>
      <trkpt lat="44.41516" lon="1.75043">
        <ele>296.22</ele>
        <time>2023-04-17T12:25:20Z</time>
      </trkpt>
      <trkpt lat="44.41503" lon="1.75042">
        <ele>297.67</ele>
        <time>2023-04-17T12:25:34Z</time>
      </trkpt>
      <trkpt lat="44.41497" lon="1.75047">
        <ele>296.7</ele>
        <time>2023-04-17T12:25:50Z</time>
      </trkpt>
      <trkpt lat="44.41494" lon="1.75049">
        <ele>295.74</ele>
        <time>2023-04-17T12:26:03Z</time>
      </trkpt>
      <trkpt lat="44.41495" lon="1.75051">
        <ele>293.34</ele>
        <time>2023-04-17T12:26:21Z</time>
      </trkpt>
      <trkpt lat="44.41485" lon="1.75049">
        <ele>293.34</ele>
        <time>2023-04-17T12:26:37Z</time>
      </trkpt>
      <trkpt lat="44.41473" lon="1.75055">
        <ele>293.34</ele>
        <time>2023-04-17T12:26:52Z</time>
      </trkpt>
      <trkpt lat="44.41462" lon="1.75061">
        <ele>295.26</ele>
        <time>2023-04-17T12:27:08Z</time>
      </trkpt>
      <trkpt lat="44.4146" lon="1.75061">
        <ele>295.26</ele>
        <time>2023-04-17T12:27:11Z</time>
      </trkpt>
      <trkpt lat="44.41442" lon="1.75072">
        <ele>296.22</ele>
        <time>2023-04-17T12:27:30Z</time>
      </trkpt>
      <trkpt lat="44.41431" lon="1.7508">
        <ele>296.7</ele>
        <time>2023-04-17T12:27:46Z</time>
      </trkpt>
      <trkpt lat="44.41424" lon="1.75084">
        <ele>297.18</ele>
        <time>2023-04-17T12:27:59Z</time>
      </trkpt>
      <trkpt lat="44.41409" lon="1.7509">
        <ele>298.63</ele>
        <time>2023-04-17T12:28:18Z</time>
      </trkpt>
      <trkpt lat="44.414" lon="1.75081">
        <ele>299.11</ele>
        <time>2023-04-17T12:28:34Z</time>
      </trkpt>
      <trkpt lat="44.41396" lon="1.7508">
        <ele>299.59</ele>
        <time>2023-04-17T12:28:53Z</time>
      </trkpt>
      <trkpt lat="44.41393" lon="1.7508">
        <ele>300.55</ele>
        <time>2023-04-17T12:29:13Z</time>
      </trkpt>
      <trkpt lat="44.41394" lon="1.75079">
        <ele>302.95</ele>
        <time>2023-04-17T12:29:35Z</time>
      </trkpt>
      <trkpt lat="44.41393" lon="1.75078">
        <ele>302.95</ele>
        <time>2023-04-17T12:30:03Z</time>
      </trkpt>
      <trkpt lat="44.41392" lon="1.7507">
        <ele>303.43</ele>
        <time>2023-04-17T12:30:18Z</time>
      </trkpt>
      <trkpt lat="44.41382" lon="1.75052">
        <ele>307.28</ele>
        <time>2023-04-17T12:30:37Z</time>
      </trkpt>
      <trkpt lat="44.41375" lon="1.7503">
        <ele>308.72</ele>
        <time>2023-04-17T12:30:55Z</time>
      </trkpt>
      <trkpt lat="44.41368" lon="1.75011">
        <ele>309.68</ele>
        <time>2023-04-17T12:31:13Z</time>
      </trkpt>
      <trkpt lat="44.41367" lon="1.75011">
        <ele>308.24</ele>
        <time>2023-04-17T12:31:26Z</time>
      </trkpt>
      <trkpt lat="44.41367" lon="1.75015">
        <ele>307.76</ele>
        <time>2023-04-17T12:31:31Z</time>
      </trkpt>
      <trkpt lat="44.4136" lon="1.75026">
        <ele>307.28</ele>
        <time>2023-04-17T12:31:44Z</time>
      </trkpt>
      <trkpt lat="44.41351" lon="1.75033">
        <ele>307.28</ele>
        <time>2023-04-17T12:31:54Z</time>
      </trkpt>
      <trkpt lat="44.41345" lon="1.7503">
        <ele>306.8</ele>
        <time>2023-04-17T12:31:59Z</time>
      </trkpt>
      <trkpt lat="44.41339" lon="1.75029">
        <ele>305.84</ele>
        <time>2023-04-17T12:32:06Z</time>
      </trkpt>
      <trkpt lat="44.4133" lon="1.75022">
        <ele>305.36</ele>
        <time>2023-04-17T12:32:15Z</time>
      </trkpt>
      <trkpt lat="44.41318" lon="1.75023">
        <ele>304.88</ele>
        <time>2023-04-17T12:32:29Z</time>
      </trkpt>
      <trkpt lat="44.41316" lon="1.75024">
        <ele>304.88</ele>
        <time>2023-04-17T12:32:30Z</time>
      </trkpt>
      <trkpt lat="44.41305" lon="1.75034">
        <ele>304.39</ele>
        <time>2023-04-17T12:32:44Z</time>
      </trkpt>
      <trkpt lat="44.4129" lon="1.75046">
        <ele>302.47</ele>
        <time>2023-04-17T12:32:58Z</time>
      </trkpt>
      <trkpt lat="44.41276" lon="1.75062">
        <ele>299.11</ele>
        <time>2023-04-17T12:33:15Z</time>
      </trkpt>
      <trkpt lat="44.41274" lon="1.75065">
        <ele>298.63</ele>
        <time>2023-04-17T12:33:17Z</time>
      </trkpt>
      <trkpt lat="44.4126" lon="1.75095">
        <ele>296.7</ele>
        <time>2023-04-17T12:33:38Z</time>
      </trkpt>
      <trkpt lat="44.41246" lon="1.75124">
        <ele>296.22</ele>
        <time>2023-04-17T12:33:59Z</time>
      </trkpt>
      <trkpt lat="44.41233" lon="1.75149">
        <ele>297.18</ele>
        <time>2023-04-17T12:34:19Z</time>
      </trkpt>
      <trkpt lat="44.41221" lon="1.75173">
        <ele>297.18</ele>
        <time>2023-04-17T12:34:38Z</time>
      </trkpt>
      <trkpt lat="44.4121" lon="1.75192">
        <ele>300.07</ele>
        <time>2023-04-17T12:34:56Z</time>
      </trkpt>
      <trkpt lat="44.41201" lon="1.7521">
        <ele>301.51</ele>
        <time>2023-04-17T12:35:12Z</time>
      </trkpt>
      <trkpt lat="44.4119" lon="1.75229">
        <ele>301.51</ele>
        <time>2023-04-17T12:35:30Z</time>
      </trkpt>
      <trkpt lat="44.41186" lon="1.75248">
        <ele>302.47</ele>
        <time>2023-04-17T12:35:45Z</time>
      </trkpt>
      <trkpt lat="44.41184" lon="1.75254">
        <ele>302.95</ele>
        <time>2023-04-17T12:36:06Z</time>
      </trkpt>
      <trkpt lat="44.41175" lon="1.75275">
        <ele>304.39</ele>
        <time>2023-04-17T12:36:22Z</time>
      </trkpt>
      <trkpt lat="44.41166" lon="1.75301">
        <ele>304.88</ele>
        <time>2023-04-17T12:36:38Z</time>
      </trkpt>
      <trkpt lat="44.41155" lon="1.75323">
        <ele>300.55</ele>
        <time>2023-04-17T12:36:56Z</time>
      </trkpt>
      <trkpt lat="44.41147" lon="1.75336">
        <ele>299.11</ele>
        <time>2023-04-17T12:37:07Z</time>
      </trkpt>
      <trkpt lat="44.41131" lon="1.75358">
        <ele>296.22</ele>
        <time>2023-04-17T12:37:27Z</time>
      </trkpt>
      <trkpt lat="44.41115" lon="1.75377">
        <ele>295.26</ele>
        <time>2023-04-17T12:37:44Z</time>
      </trkpt>
      <trkpt lat="44.411" lon="1.75392">
        <ele>296.7</ele>
        <time>2023-04-17T12:38:00Z</time>
      </trkpt>
      <trkpt lat="44.41083" lon="1.75404">
        <ele>294.78</ele>
        <time>2023-04-17T12:38:15Z</time>
      </trkpt>
      <trkpt lat="44.41066" lon="1.75418">
        <ele>293.34</ele>
        <time>2023-04-17T12:38:32Z</time>
      </trkpt>
      <trkpt lat="44.4105" lon="1.75431">
        <ele>291.42</ele>
        <time>2023-04-17T12:38:50Z</time>
      </trkpt>
      <trkpt lat="44.41033" lon="1.75447">
        <ele>292.38</ele>
        <time>2023-04-17T12:39:06Z</time>
      </trkpt>
      <trkpt lat="44.41011" lon="1.75467">
        <ele>295.26</ele>
        <time>2023-04-17T12:39:27Z</time>
      </trkpt>
      <trkpt lat="44.40999" lon="1.75494">
        <ele>295.26</ele>
        <time>2023-04-17T12:39:46Z</time>
      </trkpt>
      <trkpt lat="44.40989" lon="1.75529">
        <ele>291.9</ele>
        <time>2023-04-17T12:40:09Z</time>
      </trkpt>
      <trkpt lat="44.40972" lon="1.75548">
        <ele>292.38</ele>
        <time>2023-04-17T12:40:28Z</time>
      </trkpt>
      <trkpt lat="44.40951" lon="1.75563">
        <ele>293.34</ele>
        <time>2023-04-17T12:40:48Z</time>
      </trkpt>
      <trkpt lat="44.40941" lon="1.75569">
        <ele>293.34</ele>
        <time>2023-04-17T12:40:59Z</time>
      </trkpt>
      <trkpt lat="44.40938" lon="1.75569">
        <ele>292.86</ele>
        <time>2023-04-17T12:41:02Z</time>
      </trkpt>
      <trkpt lat="44.40921" lon="1.75561">
        <ele>293.82</ele>
        <time>2023-04-17T12:41:17Z</time>
      </trkpt>
      <trkpt lat="44.40904" lon="1.75578">
        <ele>294.3</ele>
        <time>2023-04-17T12:41:37Z</time>
      </trkpt>
      <trkpt lat="44.409" lon="1.75583">
        <ele>294.78</ele>
        <time>2023-04-17T12:41:42Z</time>
      </trkpt>
      <trkpt lat="44.40886" lon="1.75598">
        <ele>296.22</ele>
        <time>2023-04-17T12:41:59Z</time>
      </trkpt>
      <trkpt lat="44.40874" lon="1.75621">
        <ele>295.74</ele>
        <time>2023-04-17T12:42:18Z</time>
      </trkpt>
      <trkpt lat="44.40871" lon="1.75633">
        <ele>294.3</ele>
        <time>2023-04-17T12:42:27Z</time>
      </trkpt>
      <trkpt lat="44.40877" lon="1.75645">
        <ele>293.82</ele>
        <time>2023-04-17T12:42:36Z</time>
      </trkpt>
      <trkpt lat="44.40877" lon="1.75671">
        <ele>294.3</ele>
        <time>2023-04-17T12:42:53Z</time>
      </trkpt>
      <trkpt lat="44.40871" lon="1.75697">
        <ele>291.9</ele>
        <time>2023-04-17T12:43:11Z</time>
      </trkpt>
      <trkpt lat="44.40865" lon="1.75729">
        <ele>291.9</ele>
        <time>2023-04-17T12:43:30Z</time>
      </trkpt>
      <trkpt lat="44.4086" lon="1.7575">
        <ele>290.94</ele>
        <time>2023-04-17T12:43:47Z</time>
      </trkpt>
      <trkpt lat="44.40859" lon="1.75777">
        <ele>289.01</ele>
        <time>2023-04-17T12:44:03Z</time>
      </trkpt>
      <trkpt lat="44.40861" lon="1.75808">
        <ele>287.57</ele>
        <time>2023-04-17T12:44:22Z</time>
      </trkpt>
      <trkpt lat="44.40862" lon="1.75839">
        <ele>288.53</ele>
        <time>2023-04-17T12:44:39Z</time>
      </trkpt>
      <trkpt lat="44.40865" lon="1.75861">
        <ele>289.01</ele>
        <time>2023-04-17T12:44:55Z</time>
      </trkpt>
      <trkpt lat="44.40869" lon="1.75891">
        <ele>287.09</ele>
        <time>2023-04-17T12:45:14Z</time>
      </trkpt>
      <trkpt lat="44.40873" lon="1.75921">
        <ele>286.61</ele>
        <time>2023-04-17T12:45:32Z</time>
      </trkpt>
      <trkpt lat="44.40875" lon="1.75946">
        <ele>287.57</ele>
        <time>2023-04-17T12:45:48Z</time>
      </trkpt>
      <trkpt lat="44.40875" lon="1.75974">
        <ele>291.9</ele>
        <time>2023-04-17T12:46:05Z</time>
      </trkpt>
      <trkpt lat="44.40875" lon="1.75978">
        <ele>291.42</ele>
        <time>2023-04-17T12:46:08Z</time>
      </trkpt>
      <trkpt lat="44.40873" lon="1.76001">
        <ele>294.78</ele>
        <time>2023-04-17T12:46:21Z</time>
      </trkpt>
      <trkpt lat="44.40873" lon="1.76002">
        <ele>294.78</ele>
        <time>2023-04-17T12:46:22Z</time>
      </trkpt>
      <trkpt lat="44.40875" lon="1.76029">
        <ele>293.34</ele>
        <time>2023-04-17T12:46:41Z</time>
      </trkpt>
      <trkpt lat="44.40877" lon="1.7604">
        <ele>291.9</ele>
        <time>2023-04-17T12:46:53Z</time>
      </trkpt>
      <trkpt lat="44.40877" lon="1.76046">
        <ele>291.42</ele>
        <time>2023-04-17T12:47:04Z</time>
      </trkpt>
      <trkpt lat="44.40877" lon="1.76045">
        <ele>291.9</ele>
        <time>2023-04-17T12:47:15Z</time>
      </trkpt>
      <trkpt lat="44.40865" lon="1.76058">
        <ele>292.38</ele>
        <time>2023-04-17T12:47:30Z</time>
      </trkpt>
      <trkpt lat="44.40853" lon="1.76065">
        <ele>293.82</ele>
        <time>2023-04-17T12:47:41Z</time>
      </trkpt>
      <trkpt lat="44.40844" lon="1.76077">
        <ele>294.78</ele>
        <time>2023-04-17T12:47:52Z</time>
      </trkpt>
      <trkpt lat="44.40842" lon="1.76082">
        <ele>293.82</ele>
        <time>2023-04-17T12:47:57Z</time>
      </trkpt>
      <trkpt lat="44.40834" lon="1.76089">
        <ele>293.82</ele>
        <time>2023-04-17T12:48:06Z</time>
      </trkpt>
      <trkpt lat="44.40824" lon="1.76102">
        <ele>295.26</ele>
        <time>2023-04-17T12:48:19Z</time>
      </trkpt>
      <trkpt lat="44.40815" lon="1.76116">
        <ele>294.3</ele>
        <time>2023-04-17T12:48:31Z</time>
      </trkpt>
      <trkpt lat="44.40808" lon="1.76127">
        <ele>293.34</ele>
        <time>2023-04-17T12:48:44Z</time>
      </trkpt>
      <trkpt lat="44.40799" lon="1.76137">
        <ele>293.34</ele>
        <time>2023-04-17T12:48:56Z</time>
      </trkpt>
      <trkpt lat="44.40792" lon="1.76146">
        <ele>292.86</ele>
        <time>2023-04-17T12:49:03Z</time>
      </trkpt>
      <trkpt lat="44.40781" lon="1.76151">
        <ele>291.42</ele>
        <time>2023-04-17T12:49:16Z</time>
      </trkpt>
      <trkpt lat="44.40779" lon="1.76151">
        <ele>290.94</ele>
        <time>2023-04-17T12:49:18Z</time>
      </trkpt>
      <trkpt lat="44.40774" lon="1.76155">
        <ele>289.49</ele>
        <time>2023-04-17T12:49:22Z</time>
      </trkpt>
      <trkpt lat="44.4076" lon="1.76166">
        <ele>290.46</ele>
        <time>2023-04-17T12:49:36Z</time>
      </trkpt>
      <trkpt lat="44.40741" lon="1.76177">
        <ele>288.05</ele>
        <time>2023-04-17T12:49:53Z</time>
      </trkpt>
      <trkpt lat="44.40734" lon="1.7618">
        <ele>286.61</ele>
        <time>2023-04-17T12:50:03Z</time>
      </trkpt>
      <trkpt lat="44.40728" lon="1.76184">
        <ele>286.13</ele>
        <time>2023-04-17T12:50:08Z</time>
      </trkpt>
      <trkpt lat="44.40723" lon="1.76188">
        <ele>285.17</ele>
        <time>2023-04-17T12:50:19Z</time>
      </trkpt>
      <trkpt lat="44.40723" lon="1.76187">
        <ele>284.69</ele>
        <time>2023-04-17T12:50:20Z</time>
      </trkpt>
      <trkpt lat="44.40719" lon="1.7619">
        <ele>286.13</ele>
        <time>2023-04-17T12:50:34Z</time>
      </trkpt>
      <trkpt lat="44.40714" lon="1.76192">
        <ele>285.65</ele>
        <time>2023-04-17T12:50:46Z</time>
      </trkpt>
      <trkpt lat="44.40701" lon="1.76204">
        <ele>285.17</ele>
        <time>2023-04-17T12:50:57Z</time>
      </trkpt>
      <trkpt lat="44.40699" lon="1.76206">
        <ele>285.17</ele>
        <time>2023-04-17T12:51:01Z</time>
      </trkpt>
      <trkpt lat="44.40698" lon="1.76207">
        <ele>285.17</ele>
        <time>2023-04-17T12:51:03Z</time>
      </trkpt>
      <trkpt lat="44.40696" lon="1.76207">
        <ele>284.69</ele>
        <time>2023-04-17T12:51:05Z</time>
      </trkpt>
      <trkpt lat="44.40693" lon="1.76211">
        <ele>284.69</ele>
        <time>2023-04-17T12:51:09Z</time>
      </trkpt>
      <trkpt lat="44.40682" lon="1.76221">
        <ele>286.13</ele>
        <time>2023-04-17T12:51:24Z</time>
      </trkpt>
      <trkpt lat="44.40665" lon="1.76237">
        <ele>285.17</ele>
        <time>2023-04-17T12:51:37Z</time>
      </trkpt>
      <trkpt lat="44.40662" lon="1.7624">
        <ele>285.17</ele>
        <time>2023-04-17T12:51:43Z</time>
      </trkpt>
      <trkpt lat="44.4066" lon="1.76241">
        <ele>285.17</ele>
        <time>2023-04-17T12:51:44Z</time>
      </trkpt>
      <trkpt lat="44.40651" lon="1.76251">
        <ele>287.09</ele>
        <time>2023-04-17T12:51:56Z</time>
      </trkpt>
      <trkpt lat="44.40647" lon="1.76254">
        <ele>287.09</ele>
        <time>2023-04-17T12:52:07Z</time>
      </trkpt>
      <trkpt lat="44.40644" lon="1.76256">
        <ele>285.17</ele>
        <time>2023-04-17T12:52:11Z</time>
      </trkpt>
      <trkpt lat="44.40633" lon="1.76269">
        <ele>284.69</ele>
        <time>2023-04-17T12:52:26Z</time>
      </trkpt>
      <trkpt lat="44.40625" lon="1.76286">
        <ele>284.21</ele>
        <time>2023-04-17T12:52:40Z</time>
      </trkpt>
      <trkpt lat="44.40623" lon="1.7629">
        <ele>284.21</ele>
        <time>2023-04-17T12:52:44Z</time>
      </trkpt>
      <trkpt lat="44.40623" lon="1.76291">
        <ele>284.21</ele>
        <time>2023-04-17T12:52:45Z</time>
      </trkpt>
      <trkpt lat="44.40622" lon="1.76293">
        <ele>284.21</ele>
        <time>2023-04-17T12:52:46Z</time>
      </trkpt>
      <trkpt lat="44.40621" lon="1.76295">
        <ele>284.69</ele>
        <time>2023-04-17T12:52:47Z</time>
      </trkpt>
      <trkpt lat="44.4062" lon="1.76297">
        <ele>284.69</ele>
        <time>2023-04-17T12:52:48Z</time>
      </trkpt>
      <trkpt lat="44.40619" lon="1.76299">
        <ele>285.17</ele>
        <time>2023-04-17T12:52:49Z</time>
      </trkpt>
      <trkpt lat="44.40618" lon="1.763">
        <ele>285.65</ele>
        <time>2023-04-17T12:52:50Z</time>
      </trkpt>
      <trkpt lat="44.40618" lon="1.76301">
        <ele>286.13</ele>
        <time>2023-04-17T12:52:51Z</time>
      </trkpt>
      <trkpt lat="44.40617" lon="1.76303">
        <ele>286.13</ele>
        <time>2023-04-17T12:52:52Z</time>
      </trkpt>
      <trkpt lat="44.4061" lon="1.76317">
        <ele>285.17</ele>
        <time>2023-04-17T12:53:05Z</time>
      </trkpt>
      <trkpt lat="44.40603" lon="1.76331">
        <ele>283.25</ele>
        <time>2023-04-17T12:53:16Z</time>
      </trkpt>
      <trkpt lat="44.40602" lon="1.76333">
        <ele>283.25</ele>
        <time>2023-04-17T12:53:17Z</time>
      </trkpt>
      <trkpt lat="44.40597" lon="1.76339">
        <ele>280.36</ele>
        <time>2023-04-17T12:53:28Z</time>
      </trkpt>
      <trkpt lat="44.40593" lon="1.76345">
        <ele>280.36</ele>
        <time>2023-04-17T12:53:32Z</time>
      </trkpt>
      <trkpt lat="44.40591" lon="1.76347">
        <ele>280.84</ele>
        <time>2023-04-17T12:53:33Z</time>
      </trkpt>
      <trkpt lat="44.4059" lon="1.76348">
        <ele>280.84</ele>
        <time>2023-04-17T12:53:34Z</time>
      </trkpt>
      <trkpt lat="44.40589" lon="1.7635">
        <ele>281.32</ele>
        <time>2023-04-17T12:53:35Z</time>
      </trkpt>
      <trkpt lat="44.40587" lon="1.76352">
        <ele>281.8</ele>
        <time>2023-04-17T12:53:36Z</time>
      </trkpt>
      <trkpt lat="44.40586" lon="1.76353">
        <ele>281.8</ele>
        <time>2023-04-17T12:53:37Z</time>
      </trkpt>
      <trkpt lat="44.40585" lon="1.76354">
        <ele>282.28</ele>
        <time>2023-04-17T12:53:38Z</time>
      </trkpt>
      <trkpt lat="44.40574" lon="1.7637">
        <ele>279.88</ele>
        <time>2023-04-17T12:53:51Z</time>
      </trkpt>
      <trkpt lat="44.40572" lon="1.76371">
        <ele>279.88</ele>
        <time>2023-04-17T12:53:53Z</time>
      </trkpt>
      <trkpt lat="44.40565" lon="1.76375">
        <ele>278.44</ele>
        <time>2023-04-17T12:54:02Z</time>
      </trkpt>
      <trkpt lat="44.40554" lon="1.76386">
        <ele>277.96</ele>
        <time>2023-04-17T12:54:15Z</time>
      </trkpt>
      <trkpt lat="44.40543" lon="1.76403">
        <ele>277.48</ele>
        <time>2023-04-17T12:54:27Z</time>
      </trkpt>
      <trkpt lat="44.40537" lon="1.76421">
        <ele>278.92</ele>
        <time>2023-04-17T12:54:43Z</time>
      </trkpt>
      <trkpt lat="44.40533" lon="1.7642">
        <ele>278.44</ele>
        <time>2023-04-17T12:54:47Z</time>
      </trkpt>
      <trkpt lat="44.40532" lon="1.7642">
        <ele>278.44</ele>
        <time>2023-04-17T12:54:48Z</time>
      </trkpt>
      <trkpt lat="44.40531" lon="1.76421">
        <ele>278.44</ele>
        <time>2023-04-17T12:54:49Z</time>
      </trkpt>
      <trkpt lat="44.40529" lon="1.76422">
        <ele>278.44</ele>
        <time>2023-04-17T12:54:50Z</time>
      </trkpt>
      <trkpt lat="44.40528" lon="1.76423">
        <ele>278.44</ele>
        <time>2023-04-17T12:54:51Z</time>
      </trkpt>
      <trkpt lat="44.40527" lon="1.76423">
        <ele>278.44</ele>
        <time>2023-04-17T12:54:52Z</time>
      </trkpt>
      <trkpt lat="44.40525" lon="1.76424">
        <ele>278.92</ele>
        <time>2023-04-17T12:54:53Z</time>
      </trkpt>
      <trkpt lat="44.40518" lon="1.76431">
        <ele>278.92</ele>
        <time>2023-04-17T12:55:03Z</time>
      </trkpt>
      <trkpt lat="44.40511" lon="1.76438">
        <ele>278.44</ele>
        <time>2023-04-17T12:55:12Z</time>
      </trkpt>
      <trkpt lat="44.4051" lon="1.76439">
        <ele>278.44</ele>
        <time>2023-04-17T12:55:13Z</time>
      </trkpt>
      <trkpt lat="44.40495" lon="1.76454">
        <ele>280.84</ele>
        <time>2023-04-17T12:55:31Z</time>
      </trkpt>
      <trkpt lat="44.40492" lon="1.76457">
        <ele>280.84</ele>
        <time>2023-04-17T12:55:34Z</time>
      </trkpt>
      <trkpt lat="44.40491" lon="1.76457">
        <ele>280.84</ele>
        <time>2023-04-17T12:55:35Z</time>
      </trkpt>
      <trkpt lat="44.40478" lon="1.76472">
        <ele>281.32</ele>
        <time>2023-04-17T12:55:49Z</time>
      </trkpt>
      <trkpt lat="44.4047" lon="1.76485">
        <ele>280.84</ele>
        <time>2023-04-17T12:56:02Z</time>
      </trkpt>
      <trkpt lat="44.40461" lon="1.76502">
        <ele>280.36</ele>
        <time>2023-04-17T12:56:17Z</time>
      </trkpt>
      <trkpt lat="44.40453" lon="1.76518">
        <ele>280.36</ele>
        <time>2023-04-17T12:56:32Z</time>
      </trkpt>
      <trkpt lat="44.40444" lon="1.76535">
        <ele>280.36</ele>
        <time>2023-04-17T12:56:45Z</time>
      </trkpt>
      <trkpt lat="44.40433" lon="1.76553">
        <ele>279.4</ele>
        <time>2023-04-17T12:57:00Z</time>
      </trkpt>
      <trkpt lat="44.40422" lon="1.76565">
        <ele>281.8</ele>
        <time>2023-04-17T12:57:14Z</time>
      </trkpt>
      <trkpt lat="44.40406" lon="1.76579">
        <ele>283.25</ele>
        <time>2023-04-17T12:57:30Z</time>
      </trkpt>
      <trkpt lat="44.40394" lon="1.7659">
        <ele>283.25</ele>
        <time>2023-04-17T12:57:44Z</time>
      </trkpt>
      <trkpt lat="44.4038" lon="1.76602">
        <ele>284.21</ele>
        <time>2023-04-17T12:57:58Z</time>
      </trkpt>
      <trkpt lat="44.40366" lon="1.76615">
        <ele>284.69</ele>
        <time>2023-04-17T12:58:13Z</time>
      </trkpt>
      <trkpt lat="44.40355" lon="1.76624">
        <ele>283.73</ele>
        <time>2023-04-17T12:58:26Z</time>
      </trkpt>
      <trkpt lat="44.40342" lon="1.76636">
        <ele>282.77</ele>
        <time>2023-04-17T12:58:40Z</time>
      </trkpt>
      <trkpt lat="44.40327" lon="1.76649">
        <ele>283.25</ele>
        <time>2023-04-17T12:58:54Z</time>
      </trkpt>
      <trkpt lat="44.40314" lon="1.76665">
        <ele>283.25</ele>
        <time>2023-04-17T12:59:09Z</time>
      </trkpt>
      <trkpt lat="44.40305" lon="1.76681">
        <ele>284.21</ele>
        <time>2023-04-17T12:59:22Z</time>
      </trkpt>
      <trkpt lat="44.40304" lon="1.76682">
        <ele>284.21</ele>
        <time>2023-04-17T12:59:23Z</time>
      </trkpt>
      <trkpt lat="44.40303" lon="1.76683">
        <ele>284.21</ele>
        <time>2023-04-17T12:59:24Z</time>
      </trkpt>
      <trkpt lat="44.40295" lon="1.76691">
        <ele>284.69</ele>
        <time>2023-04-17T12:59:35Z</time>
      </trkpt>
      <trkpt lat="44.40293" lon="1.76692">
        <ele>285.17</ele>
        <time>2023-04-17T12:59:37Z</time>
      </trkpt>
      <trkpt lat="44.40291" lon="1.76693">
        <ele>284.21</ele>
        <time>2023-04-17T12:59:39Z</time>
      </trkpt>
      <trkpt lat="44.4029" lon="1.76693">
        <ele>284.21</ele>
        <time>2023-04-17T12:59:40Z</time>
      </trkpt>
      <trkpt lat="44.40276" lon="1.7668">
        <ele>284.21</ele>
        <time>2023-04-17T12:59:53Z</time>
      </trkpt>
      <trkpt lat="44.4027" lon="1.76665">
        <ele>285.65</ele>
        <time>2023-04-17T13:00:05Z</time>
      </trkpt>
      <trkpt lat="44.40261" lon="1.76652">
        <ele>287.09</ele>
        <time>2023-04-17T13:00:18Z</time>
      </trkpt>
      <trkpt lat="44.4025" lon="1.76633">
        <ele>288.05</ele>
        <time>2023-04-17T13:00:33Z</time>
      </trkpt>
      <trkpt lat="44.40246" lon="1.76621">
        <ele>289.49</ele>
        <time>2023-04-17T13:00:43Z</time>
      </trkpt>
      <trkpt lat="44.40238" lon="1.76604">
        <ele>291.42</ele>
        <time>2023-04-17T13:00:57Z</time>
      </trkpt>
      <trkpt lat="44.40235" lon="1.76602">
        <ele>291.9</ele>
        <time>2023-04-17T13:01:01Z</time>
      </trkpt>
      <trkpt lat="44.40218" lon="1.76608">
        <ele>292.86</ele>
        <time>2023-04-17T13:01:18Z</time>
      </trkpt>
      <trkpt lat="44.40202" lon="1.76616">
        <ele>293.34</ele>
        <time>2023-04-17T13:01:34Z</time>
      </trkpt>
      <trkpt lat="44.40186" lon="1.76626">
        <ele>294.78</ele>
        <time>2023-04-17T13:01:50Z</time>
      </trkpt>
      <trkpt lat="44.40172" lon="1.76638">
        <ele>296.7</ele>
        <time>2023-04-17T13:02:07Z</time>
      </trkpt>
      <trkpt lat="44.40161" lon="1.76645">
        <ele>297.67</ele>
        <time>2023-04-17T13:02:25Z</time>
      </trkpt>
      <trkpt lat="44.40151" lon="1.76652">
        <ele>298.15</ele>
        <time>2023-04-17T13:02:37Z</time>
      </trkpt>
      <trkpt lat="44.4014" lon="1.76658">
        <ele>296.7</ele>
        <time>2023-04-17T13:02:51Z</time>
      </trkpt>
      <trkpt lat="44.40126" lon="1.76665">
        <ele>294.78</ele>
        <time>2023-04-17T13:03:06Z</time>
      </trkpt>
      <trkpt lat="44.40109" lon="1.76674">
        <ele>297.67</ele>
        <time>2023-04-17T13:03:20Z</time>
      </trkpt>
      <trkpt lat="44.401" lon="1.7668">
        <ele>296.7</ele>
        <time>2023-04-17T13:03:32Z</time>
      </trkpt>
      <trkpt lat="44.40082" lon="1.76686">
        <ele>297.18</ele>
        <time>2023-04-17T13:03:46Z</time>
      </trkpt>
      <trkpt lat="44.40064" lon="1.76692">
        <ele>301.03</ele>
        <time>2023-04-17T13:04:01Z</time>
      </trkpt>
      <trkpt lat="44.40062" lon="1.76693">
        <ele>301.03</ele>
        <time>2023-04-17T13:04:03Z</time>
      </trkpt>
      <trkpt lat="44.40056" lon="1.76696">
        <ele>301.51</ele>
        <time>2023-04-17T13:04:09Z</time>
      </trkpt>
      <trkpt lat="44.40037" lon="1.76702">
        <ele>301.99</ele>
        <time>2023-04-17T13:04:25Z</time>
      </trkpt>
      <trkpt lat="44.40027" lon="1.76707">
        <ele>302.95</ele>
        <time>2023-04-17T13:04:35Z</time>
      </trkpt>
      <trkpt lat="44.40008" lon="1.76715">
        <ele>300.55</ele>
        <time>2023-04-17T13:04:54Z</time>
      </trkpt>
      <trkpt lat="44.40005" lon="1.76717">
        <ele>300.55</ele>
        <time>2023-04-17T13:04:56Z</time>
      </trkpt>
      <trkpt lat="44.39987" lon="1.76722">
        <ele>301.99</ele>
        <time>2023-04-17T13:05:12Z</time>
      </trkpt>
      <trkpt lat="44.39972" lon="1.76728">
        <ele>303.43</ele>
        <time>2023-04-17T13:05:26Z</time>
      </trkpt>
      <trkpt lat="44.39958" lon="1.76734">
        <ele>304.39</ele>
        <time>2023-04-17T13:05:40Z</time>
      </trkpt>
      <trkpt lat="44.39944" lon="1.76742">
        <ele>307.28</ele>
        <time>2023-04-17T13:05:52Z</time>
      </trkpt>
      <trkpt lat="44.39936" lon="1.76742">
        <ele>308.24</ele>
        <time>2023-04-17T13:06:04Z</time>
      </trkpt>
      <trkpt lat="44.39935" lon="1.76748">
        <ele>309.68</ele>
        <time>2023-04-17T13:06:15Z</time>
      </trkpt>
      <trkpt lat="44.39932" lon="1.7675">
        <ele>312.09</ele>
        <time>2023-04-17T13:06:22Z</time>
      </trkpt>
      <trkpt lat="44.39925" lon="1.76759">
        <ele>314.97</ele>
        <time>2023-04-17T13:06:33Z</time>
      </trkpt>
      <trkpt lat="44.39914" lon="1.76775">
        <ele>314.97</ele>
        <time>2023-04-17T13:06:49Z</time>
      </trkpt>
      <trkpt lat="44.39903" lon="1.76785">
        <ele>314.01</ele>
        <time>2023-04-17T13:07:02Z</time>
      </trkpt>
      <trkpt lat="44.39899" lon="1.76788">
        <ele>314.01</ele>
        <time>2023-04-17T13:07:12Z</time>
      </trkpt>
      <trkpt lat="44.399" lon="1.76788">
        <ele>315.45</ele>
        <time>2023-04-17T13:07:19Z</time>
      </trkpt>
      <trkpt lat="44.39902" lon="1.76788">
        <ele>315.93</ele>
        <time>2023-04-17T13:07:28Z</time>
      </trkpt>
      <trkpt lat="44.399" lon="1.7679">
        <ele>316.41</ele>
        <time>2023-04-17T13:07:31Z</time>
      </trkpt>
      <trkpt lat="44.39891" lon="1.76799">
        <ele>313.53</ele>
        <time>2023-04-17T13:07:42Z</time>
      </trkpt>
      <trkpt lat="44.39883" lon="1.7681">
        <ele>312.57</ele>
        <time>2023-04-17T13:07:55Z</time>
      </trkpt>
      <trkpt lat="44.39873" lon="1.76819">
        <ele>312.09</ele>
        <time>2023-04-17T13:08:06Z</time>
      </trkpt>
      <trkpt lat="44.39861" lon="1.76829">
        <ele>310.64</ele>
        <time>2023-04-17T13:08:18Z</time>
      </trkpt>
      <trkpt lat="44.3985" lon="1.76844">
        <ele>308.72</ele>
        <time>2023-04-17T13:08:34Z</time>
      </trkpt>
      <trkpt lat="44.39842" lon="1.76857">
        <ele>307.76</ele>
        <time>2023-04-17T13:08:49Z</time>
      </trkpt>
      <trkpt lat="44.39831" lon="1.76869">
        <ele>310.16</ele>
        <time>2023-04-17T13:09:01Z</time>
      </trkpt>
      <trkpt lat="44.39826" lon="1.76876">
        <ele>312.57</ele>
        <time>2023-04-17T13:09:07Z</time>
      </trkpt>
      <trkpt lat="44.39817" lon="1.7689">
        <ele>313.05</ele>
        <time>2023-04-17T13:09:18Z</time>
      </trkpt>
      <trkpt lat="44.39814" lon="1.76895">
        <ele>312.57</ele>
        <time>2023-04-17T13:09:25Z</time>
      </trkpt>
      <trkpt lat="44.3981" lon="1.76901">
        <ele>311.12</ele>
        <time>2023-04-17T13:09:34Z</time>
      </trkpt>
      <trkpt lat="44.39809" lon="1.76902">
        <ele>311.12</ele>
        <time>2023-04-17T13:09:35Z</time>
      </trkpt>
      <trkpt lat="44.39808" lon="1.76903">
        <ele>311.12</ele>
        <time>2023-04-17T13:09:36Z</time>
      </trkpt>
      <trkpt lat="44.39807" lon="1.76904">
        <ele>311.6</ele>
        <time>2023-04-17T13:09:37Z</time>
      </trkpt>
      <trkpt lat="44.39797" lon="1.76911">
        <ele>311.6</ele>
        <time>2023-04-17T13:09:47Z</time>
      </trkpt>
      <trkpt lat="44.39791" lon="1.76919">
        <ele>310.64</ele>
        <time>2023-04-17T13:09:54Z</time>
      </trkpt>
      <trkpt lat="44.3979" lon="1.76926">
        <ele>309.68</ele>
        <time>2023-04-17T13:10:00Z</time>
      </trkpt>
      <trkpt lat="44.39792" lon="1.76941">
        <ele>308.24</ele>
        <time>2023-04-17T13:10:13Z</time>
      </trkpt>
      <trkpt lat="44.39792" lon="1.76948">
        <ele>307.76</ele>
        <time>2023-04-17T13:10:18Z</time>
      </trkpt>
      <trkpt lat="44.39792" lon="1.7695">
        <ele>307.76</ele>
        <time>2023-04-17T13:10:19Z</time>
      </trkpt>
      <trkpt lat="44.39792" lon="1.76954">
        <ele>307.28</ele>
        <time>2023-04-17T13:10:25Z</time>
      </trkpt>
      <trkpt lat="44.39791" lon="1.76959">
        <ele>306.32</ele>
        <time>2023-04-17T13:10:31Z</time>
      </trkpt>
      <trkpt lat="44.39791" lon="1.76961">
        <ele>305.84</ele>
        <time>2023-04-17T13:10:32Z</time>
      </trkpt>
      <trkpt lat="44.39791" lon="1.76963">
        <ele>305.36</ele>
        <time>2023-04-17T13:10:33Z</time>
      </trkpt>
      <trkpt lat="44.39792" lon="1.76987">
        <ele>302.47</ele>
        <time>2023-04-17T13:10:50Z</time>
      </trkpt>
      <trkpt lat="44.39793" lon="1.76988">
        <ele>302.47</ele>
        <time>2023-04-17T13:10:51Z</time>
      </trkpt>
      <trkpt lat="44.39795" lon="1.77007">
        <ele>302.47</ele>
        <time>2023-04-17T13:11:07Z</time>
      </trkpt>
      <trkpt lat="44.39798" lon="1.77021">
        <ele>305.36</ele>
        <time>2023-04-17T13:11:21Z</time>
      </trkpt>
      <trkpt lat="44.398" lon="1.77024">
        <ele>305.84</ele>
        <time>2023-04-17T13:11:35Z</time>
      </trkpt>
      <trkpt lat="44.39796" lon="1.77022">
        <ele>306.32</ele>
        <time>2023-04-17T13:11:40Z</time>
      </trkpt>
      <trkpt lat="44.39795" lon="1.77022">
        <ele>306.32</ele>
        <time>2023-04-17T13:11:41Z</time>
      </trkpt>
      <trkpt lat="44.39785" lon="1.77029">
        <ele>308.24</ele>
        <time>2023-04-17T13:11:57Z</time>
      </trkpt>
      <trkpt lat="44.39784" lon="1.77029">
        <ele>308.72</ele>
        <time>2023-04-17T13:12:10Z</time>
      </trkpt>
      <trkpt lat="44.39781" lon="1.77031">
        <ele>311.12</ele>
        <time>2023-04-17T13:12:21Z</time>
      </trkpt>
      <trkpt lat="44.3977" lon="1.77033">
        <ele>312.09</ele>
        <time>2023-04-17T13:12:36Z</time>
      </trkpt>
      <trkpt lat="44.39763" lon="1.77033">
        <ele>313.05</ele>
        <time>2023-04-17T13:12:47Z</time>
      </trkpt>
      <trkpt lat="44.39752" lon="1.77038">
        <ele>312.57</ele>
        <time>2023-04-17T13:13:03Z</time>
      </trkpt>
      <trkpt lat="44.39749" lon="1.77039">
        <ele>309.2</ele>
        <time>2023-04-17T13:13:19Z</time>
      </trkpt>
      <trkpt lat="44.39748" lon="1.77037">
        <ele>306.32</ele>
        <time>2023-04-17T13:13:36Z</time>
      </trkpt>
      <trkpt lat="44.3975" lon="1.77039">
        <ele>305.36</ele>
        <time>2023-04-17T13:13:49Z</time>
      </trkpt>
      <trkpt lat="44.39755" lon="1.77046">
        <ele>301.99</ele>
        <time>2023-04-17T13:14:04Z</time>
      </trkpt>
      <trkpt lat="44.39755" lon="1.77044">
        <ele>300.55</ele>
        <time>2023-04-17T13:14:15Z</time>
      </trkpt>
      <trkpt lat="44.39751" lon="1.77043">
        <ele>301.03</ele>
        <time>2023-04-17T13:14:31Z</time>
      </trkpt>
      <trkpt lat="44.39752" lon="1.77044">
        <ele>301.03</ele>
        <time>2023-04-17T13:15:06Z</time>
      </trkpt>
      <trkpt lat="44.39751" lon="1.77044">
        <ele>300.07</ele>
        <time>2023-04-17T13:15:34Z</time>
      </trkpt>
      <trkpt lat="44.39755" lon="1.77046">
        <ele>303.43</ele>
        <time>2023-04-17T13:16:08Z</time>
      </trkpt>
      <trkpt lat="44.39755" lon="1.77046">
        <ele>306.32</ele>
        <time>2023-04-17T13:16:44Z</time>
      </trkpt>
      <trkpt lat="44.39755" lon="1.77046">
        <ele>305.36</ele>
        <time>2023-04-17T13:17:12Z</time>
      </trkpt>
      <trkpt lat="44.39752" lon="1.77045">
        <ele>304.88</ele>
        <time>2023-04-17T13:17:49Z</time>
      </trkpt>
      <trkpt lat="44.3975" lon="1.77044">
        <ele>307.76</ele>
        <time>2023-04-17T13:18:16Z</time>
      </trkpt>
      <trkpt lat="44.3975" lon="1.77044">
        <ele>308.24</ele>
        <time>2023-04-17T13:18:35Z</time>
      </trkpt>
      <trkpt lat="44.39753" lon="1.77049">
        <ele>307.76</ele>
        <time>2023-04-17T13:18:48Z</time>
      </trkpt>
      <trkpt lat="44.39754" lon="1.7705">
        <ele>309.68</ele>
        <time>2023-04-17T13:19:00Z</time>
      </trkpt>
      <trkpt lat="44.39756" lon="1.77053">
        <ele>309.68</ele>
        <time>2023-04-17T13:19:12Z</time>
      </trkpt>
      <trkpt lat="44.39755" lon="1.77057">
        <ele>309.2</ele>
        <time>2023-04-17T13:19:29Z</time>
      </trkpt>
      <trkpt lat="44.39757" lon="1.77068">
        <ele>309.68</ele>
        <time>2023-04-17T13:19:45Z</time>
      </trkpt>
      <trkpt lat="44.3976" lon="1.77081">
        <ele>308.72</ele>
        <time>2023-04-17T13:19:59Z</time>
      </trkpt>
      <trkpt lat="44.39762" lon="1.77105">
        <ele>307.76</ele>
        <time>2023-04-17T13:20:17Z</time>
      </trkpt>
      <trkpt lat="44.39762" lon="1.77128">
        <ele>302.95</ele>
        <time>2023-04-17T13:20:32Z</time>
      </trkpt>
      <trkpt lat="44.39764" lon="1.77153">
        <ele>301.51</ele>
        <time>2023-04-17T13:20:48Z</time>
      </trkpt>
      <trkpt lat="44.39767" lon="1.77184">
        <ele>301.03</ele>
        <time>2023-04-17T13:21:07Z</time>
      </trkpt>
      <trkpt lat="44.39768" lon="1.77205">
        <ele>302.47</ele>
        <time>2023-04-17T13:21:21Z</time>
      </trkpt>
      <trkpt lat="44.39769" lon="1.77236">
        <ele>299.11</ele>
        <time>2023-04-17T13:21:40Z</time>
      </trkpt>
      <trkpt lat="44.39772" lon="1.77264">
        <ele>299.11</ele>
        <time>2023-04-17T13:21:56Z</time>
      </trkpt>
      <trkpt lat="44.39778" lon="1.7729">
        <ele>300.55</ele>
        <time>2023-04-17T13:22:13Z</time>
      </trkpt>
      <trkpt lat="44.39783" lon="1.77322">
        <ele>300.55</ele>
        <time>2023-04-17T13:22:33Z</time>
      </trkpt>
      <trkpt lat="44.39785" lon="1.77329">
        <ele>300.55</ele>
        <time>2023-04-17T13:22:38Z</time>
      </trkpt>
      <trkpt lat="44.39796" lon="1.77352">
        <ele>298.15</ele>
        <time>2023-04-17T13:22:57Z</time>
      </trkpt>
      <trkpt lat="44.398" lon="1.77372">
        <ele>298.15</ele>
        <time>2023-04-17T13:23:12Z</time>
      </trkpt>
      <trkpt lat="44.39798" lon="1.77383">
        <ele>299.11</ele>
        <time>2023-04-17T13:23:20Z</time>
      </trkpt>
      <trkpt lat="44.39801" lon="1.77413">
        <ele>298.63</ele>
        <time>2023-04-17T13:23:40Z</time>
      </trkpt>
      <trkpt lat="44.39809" lon="1.77426">
        <ele>298.63</ele>
        <time>2023-04-17T13:23:51Z</time>
      </trkpt>
      <trkpt lat="44.39813" lon="1.77439">
        <ele>299.59</ele>
        <time>2023-04-17T13:24:05Z</time>
      </trkpt>
      <trkpt lat="44.39812" lon="1.77441">
        <ele>300.55</ele>
        <time>2023-04-17T13:24:09Z</time>
      </trkpt>
      <trkpt lat="44.3981" lon="1.77451">
        <ele>300.55</ele>
        <time>2023-04-17T13:24:16Z</time>
      </trkpt>
      <trkpt lat="44.39809" lon="1.77477">
        <ele>302.47</ele>
        <time>2023-04-17T13:24:34Z</time>
      </trkpt>
      <trkpt lat="44.3981" lon="1.77479">
        <ele>302.95</ele>
        <time>2023-04-17T13:24:36Z</time>
      </trkpt>
      <trkpt lat="44.39822" lon="1.77488">
        <ele>306.32</ele>
        <time>2023-04-17T13:24:49Z</time>
      </trkpt>
      <trkpt lat="44.39835" lon="1.77497">
        <ele>306.8</ele>
        <time>2023-04-17T13:25:03Z</time>
      </trkpt>
      <trkpt lat="44.39836" lon="1.775">
        <ele>306.32</ele>
        <time>2023-04-17T13:25:06Z</time>
      </trkpt>
      <trkpt lat="44.39844" lon="1.77514">
        <ele>303.43</ele>
        <time>2023-04-17T13:25:19Z</time>
      </trkpt>
      <trkpt lat="44.39855" lon="1.77531">
        <ele>303.43</ele>
        <time>2023-04-17T13:25:33Z</time>
      </trkpt>
      <trkpt lat="44.39859" lon="1.77537">
        <ele>303.43</ele>
        <time>2023-04-17T13:25:40Z</time>
      </trkpt>
      <trkpt lat="44.3987" lon="1.7755">
        <ele>305.84</ele>
        <time>2023-04-17T13:25:54Z</time>
      </trkpt>
      <trkpt lat="44.39874" lon="1.77557">
        <ele>308.72</ele>
        <time>2023-04-17T13:26:11Z</time>
      </trkpt>
      <trkpt lat="44.39877" lon="1.77563">
        <ele>308.72</ele>
        <time>2023-04-17T13:26:26Z</time>
      </trkpt>
      <trkpt lat="44.39888" lon="1.7758">
        <ele>309.68</ele>
        <time>2023-04-17T13:26:44Z</time>
      </trkpt>
      <trkpt lat="44.39896" lon="1.77594">
        <ele>312.57</ele>
        <time>2023-04-17T13:26:59Z</time>
      </trkpt>
      <trkpt lat="44.3991" lon="1.77614">
        <ele>313.53</ele>
        <time>2023-04-17T13:27:15Z</time>
      </trkpt>
      <trkpt lat="44.39922" lon="1.77629">
        <ele>313.53</ele>
        <time>2023-04-17T13:27:29Z</time>
      </trkpt>
      <trkpt lat="44.39927" lon="1.77638">
        <ele>313.53</ele>
        <time>2023-04-17T13:27:38Z</time>
      </trkpt>
      <trkpt lat="44.39939" lon="1.77656">
        <ele>315.93</ele>
        <time>2023-04-17T13:27:53Z</time>
      </trkpt>
      <trkpt lat="44.39948" lon="1.77671">
        <ele>317.37</ele>
        <time>2023-04-17T13:28:06Z</time>
      </trkpt>
      <trkpt lat="44.39961" lon="1.77688">
        <ele>318.81</ele>
        <time>2023-04-17T13:28:18Z</time>
      </trkpt>
      <trkpt lat="44.39969" lon="1.77704">
        <ele>320.74</ele>
        <time>2023-04-17T13:28:30Z</time>
      </trkpt>
      <trkpt lat="44.39969" lon="1.77706">
        <ele>320.74</ele>
        <time>2023-04-17T13:28:31Z</time>
      </trkpt>
      <trkpt lat="44.39972" lon="1.77715">
        <ele>321.22</ele>
        <time>2023-04-17T13:28:41Z</time>
      </trkpt>
      <trkpt lat="44.39974" lon="1.7772">
        <ele>321.22</ele>
        <time>2023-04-17T13:28:46Z</time>
      </trkpt>
      <trkpt lat="44.39982" lon="1.77736">
        <ele>319.78</ele>
        <time>2023-04-17T13:29:00Z</time>
      </trkpt>
      <trkpt lat="44.39988" lon="1.7775">
        <ele>316.89</ele>
        <time>2023-04-17T13:29:12Z</time>
      </trkpt>
      <trkpt lat="44.39992" lon="1.77756">
        <ele>314.01</ele>
        <time>2023-04-17T13:29:18Z</time>
      </trkpt>
      <trkpt lat="44.39994" lon="1.77758">
        <ele>313.05</ele>
        <time>2023-04-17T13:29:20Z</time>
      </trkpt>
      <trkpt lat="44.39995" lon="1.77763">
        <ele>311.6</ele>
        <time>2023-04-17T13:29:24Z</time>
      </trkpt>
      <trkpt lat="44.39998" lon="1.77771">
        <ele>308.24</ele>
        <time>2023-04-17T13:29:35Z</time>
      </trkpt>
      <trkpt lat="44.40003" lon="1.77779">
        <ele>307.76</ele>
        <time>2023-04-17T13:29:41Z</time>
      </trkpt>
      <trkpt lat="44.40007" lon="1.77791">
        <ele>306.8</ele>
        <time>2023-04-17T13:29:53Z</time>
      </trkpt>
      <trkpt lat="44.40011" lon="1.7781">
        <ele>306.32</ele>
        <time>2023-04-17T13:30:09Z</time>
      </trkpt>
      <trkpt lat="44.40012" lon="1.77818">
        <ele>305.84</ele>
        <time>2023-04-17T13:30:16Z</time>
      </trkpt>
      <trkpt lat="44.40014" lon="1.7783">
        <ele>305.36</ele>
        <time>2023-04-17T13:30:26Z</time>
      </trkpt>
      <trkpt lat="44.40016" lon="1.7784">
        <ele>305.36</ele>
        <time>2023-04-17T13:30:36Z</time>
      </trkpt>
      <trkpt lat="44.40016" lon="1.77842">
        <ele>305.36</ele>
        <time>2023-04-17T13:30:37Z</time>
      </trkpt>
      <trkpt lat="44.40016" lon="1.77851">
        <ele>302.95</ele>
        <time>2023-04-17T13:30:48Z</time>
      </trkpt>
      <trkpt lat="44.40015" lon="1.7786">
        <ele>301.03</ele>
        <time>2023-04-17T13:30:59Z</time>
      </trkpt>
      <trkpt lat="44.40014" lon="1.77864">
        <ele>299.11</ele>
        <time>2023-04-17T13:31:12Z</time>
      </trkpt>
      <trkpt lat="44.40013" lon="1.77875">
        <ele>297.67</ele>
        <time>2023-04-17T13:31:25Z</time>
      </trkpt>
      <trkpt lat="44.40014" lon="1.77883">
        <ele>297.67</ele>
        <time>2023-04-17T13:31:34Z</time>
      </trkpt>
      <trkpt lat="44.40015" lon="1.77885">
        <ele>297.67</ele>
        <time>2023-04-17T13:31:36Z</time>
      </trkpt>
      <trkpt lat="44.40016" lon="1.77896">
        <ele>295.26</ele>
        <time>2023-04-17T13:31:47Z</time>
      </trkpt>
      <trkpt lat="44.4002" lon="1.77905">
        <ele>296.22</ele>
        <time>2023-04-17T13:31:54Z</time>
      </trkpt>
      <trkpt lat="44.40028" lon="1.77923">
        <ele>297.67</ele>
        <time>2023-04-17T13:32:10Z</time>
      </trkpt>
      <trkpt lat="44.40034" lon="1.77938">
        <ele>301.99</ele>
        <time>2023-04-17T13:32:24Z</time>
      </trkpt>
      <trkpt lat="44.40036" lon="1.77942">
        <ele>302.47</ele>
        <time>2023-04-17T13:32:44Z</time>
      </trkpt>
      <trkpt lat="44.40037" lon="1.77941">
        <ele>301.03</ele>
        <time>2023-04-17T13:33:16Z</time>
      </trkpt>
      <trkpt lat="44.40039" lon="1.7795">
        <ele>300.55</ele>
        <time>2023-04-17T13:33:38Z</time>
      </trkpt>
      <trkpt lat="44.40047" lon="1.77969">
        <ele>301.99</ele>
        <time>2023-04-17T13:33:55Z</time>
      </trkpt>
      <trkpt lat="44.4005" lon="1.77976">
        <ele>302.95</ele>
        <time>2023-04-17T13:34:02Z</time>
      </trkpt>
      <trkpt lat="44.4005" lon="1.77977">
        <ele>302.95</ele>
        <time>2023-04-17T13:34:03Z</time>
      </trkpt>
      <trkpt lat="44.40057" lon="1.77992">
        <ele>301.99</ele>
        <time>2023-04-17T13:34:16Z</time>
      </trkpt>
      <trkpt lat="44.40061" lon="1.78006">
        <ele>301.51</ele>
        <time>2023-04-17T13:34:25Z</time>
      </trkpt>
      <trkpt lat="44.40067" lon="1.7802">
        <ele>301.99</ele>
        <time>2023-04-17T13:34:38Z</time>
      </trkpt>
      <trkpt lat="44.40068" lon="1.78023">
        <ele>302.47</ele>
        <time>2023-04-17T13:34:41Z</time>
      </trkpt>
      <trkpt lat="44.4007" lon="1.78028">
        <ele>302.47</ele>
        <time>2023-04-17T13:34:45Z</time>
      </trkpt>
      <trkpt lat="44.40072" lon="1.78034">
        <ele>302.47</ele>
        <time>2023-04-17T13:34:49Z</time>
      </trkpt>
      <trkpt lat="44.4008" lon="1.78053">
        <ele>303.91</ele>
        <time>2023-04-17T13:35:05Z</time>
      </trkpt>
      <trkpt lat="44.40085" lon="1.78066">
        <ele>304.88</ele>
        <time>2023-04-17T13:35:21Z</time>
      </trkpt>
      <trkpt lat="44.40087" lon="1.78075">
        <ele>305.36</ele>
        <time>2023-04-17T13:35:27Z</time>
      </trkpt>
      <trkpt lat="44.40087" lon="1.78076">
        <ele>305.36</ele>
        <time>2023-04-17T13:35:28Z</time>
      </trkpt>
      <trkpt lat="44.40088" lon="1.78078">
        <ele>305.36</ele>
        <time>2023-04-17T13:35:29Z</time>
      </trkpt>
      <trkpt lat="44.40091" lon="1.78092">
        <ele>306.8</ele>
        <time>2023-04-17T13:35:42Z</time>
      </trkpt>
      <trkpt lat="44.40096" lon="1.78106">
        <ele>307.28</ele>
        <time>2023-04-17T13:35:54Z</time>
      </trkpt>
      <trkpt lat="44.40098" lon="1.78113">
        <ele>307.76</ele>
        <time>2023-04-17T13:36:00Z</time>
      </trkpt>
      <trkpt lat="44.40103" lon="1.78132">
        <ele>310.64</ele>
        <time>2023-04-17T13:36:14Z</time>
      </trkpt>
      <trkpt lat="44.40102" lon="1.78147">
        <ele>312.09</ele>
        <time>2023-04-17T13:36:29Z</time>
      </trkpt>
      <trkpt lat="44.40101" lon="1.78155">
        <ele>312.09</ele>
        <time>2023-04-17T13:36:45Z</time>
      </trkpt>
      <trkpt lat="44.40101" lon="1.78171">
        <ele>313.53</ele>
        <time>2023-04-17T13:36:58Z</time>
      </trkpt>
      <trkpt lat="44.40101" lon="1.78189">
        <ele>312.57</ele>
        <time>2023-04-17T13:37:09Z</time>
      </trkpt>
      <trkpt lat="44.401" lon="1.78197">
        <ele>312.09</ele>
        <time>2023-04-17T13:37:15Z</time>
      </trkpt>
      <trkpt lat="44.40099" lon="1.78204">
        <ele>311.6</ele>
        <time>2023-04-17T13:37:27Z</time>
      </trkpt>
      <trkpt lat="44.40098" lon="1.78207">
        <ele>312.09</ele>
        <time>2023-04-17T13:37:30Z</time>
      </trkpt>
      <trkpt lat="44.40098" lon="1.78208">
        <ele>312.09</ele>
        <time>2023-04-17T13:37:31Z</time>
      </trkpt>
      <trkpt lat="44.401" lon="1.78215">
        <ele>311.6</ele>
        <time>2023-04-17T13:37:40Z</time>
      </trkpt>
      <trkpt lat="44.40101" lon="1.78228">
        <ele>311.6</ele>
        <time>2023-04-17T13:37:52Z</time>
      </trkpt>
      <trkpt lat="44.40098" lon="1.78235">
        <ele>312.09</ele>
        <time>2023-04-17T13:38:08Z</time>
      </trkpt>
      <trkpt lat="44.40096" lon="1.78234">
        <ele>312.09</ele>
        <time>2023-04-17T13:38:24Z</time>
      </trkpt>
      <trkpt lat="44.401" lon="1.78236">
        <ele>311.12</ele>
        <time>2023-04-17T13:38:36Z</time>
      </trkpt>
      <trkpt lat="44.40101" lon="1.78238">
        <ele>311.12</ele>
        <time>2023-04-17T13:38:38Z</time>
      </trkpt>
      <trkpt lat="44.40103" lon="1.78239">
        <ele>310.64</ele>
        <time>2023-04-17T13:38:39Z</time>
      </trkpt>
      <trkpt lat="44.40104" lon="1.78242">
        <ele>310.64</ele>
        <time>2023-04-17T13:38:41Z</time>
      </trkpt>
      <trkpt lat="44.40104" lon="1.78244">
        <ele>310.64</ele>
        <time>2023-04-17T13:38:42Z</time>
      </trkpt>
      <trkpt lat="44.40105" lon="1.78252">
        <ele>309.68</ele>
        <time>2023-04-17T13:38:52Z</time>
      </trkpt>
      <trkpt lat="44.40102" lon="1.7826">
        <ele>309.2</ele>
        <time>2023-04-17T13:38:59Z</time>
      </trkpt>
      <trkpt lat="44.40101" lon="1.78264">
        <ele>308.72</ele>
        <time>2023-04-17T13:39:02Z</time>
      </trkpt>
      <trkpt lat="44.40101" lon="1.78266">
        <ele>309.2</ele>
        <time>2023-04-17T13:39:03Z</time>
      </trkpt>
      <trkpt lat="44.401" lon="1.78282">
        <ele>307.76</ele>
        <time>2023-04-17T13:39:16Z</time>
      </trkpt>
      <trkpt lat="44.40099" lon="1.78284">
        <ele>307.28</ele>
        <time>2023-04-17T13:39:17Z</time>
      </trkpt>
      <trkpt lat="44.40099" lon="1.78285">
        <ele>307.28</ele>
        <time>2023-04-17T13:39:18Z</time>
      </trkpt>
      <trkpt lat="44.40098" lon="1.78287">
        <ele>306.8</ele>
        <time>2023-04-17T13:39:19Z</time>
      </trkpt>
      <trkpt lat="44.40095" lon="1.78304">
        <ele>304.39</ele>
        <time>2023-04-17T13:39:32Z</time>
      </trkpt>
      <trkpt lat="44.40092" lon="1.78319">
        <ele>306.8</ele>
        <time>2023-04-17T13:39:45Z</time>
      </trkpt>
      <trkpt lat="44.40091" lon="1.78332">
        <ele>309.2</ele>
        <time>2023-04-17T13:40:00Z</time>
      </trkpt>
      <trkpt lat="44.40087" lon="1.78353">
        <ele>312.57</ele>
        <time>2023-04-17T13:40:13Z</time>
      </trkpt>
      <trkpt lat="44.40087" lon="1.78354">
        <ele>312.57</ele>
        <time>2023-04-17T13:40:14Z</time>
      </trkpt>
      <trkpt lat="44.40083" lon="1.78371">
        <ele>314.49</ele>
        <time>2023-04-17T13:40:27Z</time>
      </trkpt>
      <trkpt lat="44.4008" lon="1.78389">
        <ele>315.45</ele>
        <time>2023-04-17T13:40:39Z</time>
      </trkpt>
      <trkpt lat="44.40076" lon="1.78412">
        <ele>316.41</ele>
        <time>2023-04-17T13:40:53Z</time>
      </trkpt>
      <trkpt lat="44.40074" lon="1.78428">
        <ele>316.41</ele>
        <time>2023-04-17T13:41:05Z</time>
      </trkpt>
      <trkpt lat="44.40071" lon="1.78436">
        <ele>317.37</ele>
        <time>2023-04-17T13:41:16Z</time>
      </trkpt>
      <trkpt lat="44.40066" lon="1.78432">
        <ele>316.89</ele>
        <time>2023-04-17T13:41:30Z</time>
      </trkpt>
      <trkpt lat="44.40066" lon="1.78435">
        <ele>317.37</ele>
        <time>2023-04-17T13:41:46Z</time>
      </trkpt>
      <trkpt lat="44.4007" lon="1.7844">
        <ele>316.89</ele>
        <time>2023-04-17T13:41:59Z</time>
      </trkpt>
      <trkpt lat="44.40068" lon="1.78455">
        <ele>317.85</ele>
        <time>2023-04-17T13:42:11Z</time>
      </trkpt>
      <trkpt lat="44.40067" lon="1.78463">
        <ele>317.37</ele>
        <time>2023-04-17T13:42:18Z</time>
      </trkpt>
      <trkpt lat="44.40065" lon="1.78476">
        <ele>316.89</ele>
        <time>2023-04-17T13:42:29Z</time>
      </trkpt>
      <trkpt lat="44.40064" lon="1.78482">
        <ele>316.41</ele>
        <time>2023-04-17T13:42:35Z</time>
      </trkpt>
      <trkpt lat="44.40064" lon="1.78483">
        <ele>316.41</ele>
        <time>2023-04-17T13:42:36Z</time>
      </trkpt>
      <trkpt lat="44.40064" lon="1.78485">
        <ele>316.41</ele>
        <time>2023-04-17T13:42:37Z</time>
      </trkpt>
      <trkpt lat="44.40064" lon="1.78489">
        <ele>315.93</ele>
        <time>2023-04-17T13:42:40Z</time>
      </trkpt>
      <trkpt lat="44.40063" lon="1.78492">
        <ele>315.93</ele>
        <time>2023-04-17T13:42:43Z</time>
      </trkpt>
      <trkpt lat="44.40061" lon="1.78498">
        <ele>316.41</ele>
        <time>2023-04-17T13:42:49Z</time>
      </trkpt>
      <trkpt lat="44.40061" lon="1.785">
        <ele>316.89</ele>
        <time>2023-04-17T13:42:50Z</time>
      </trkpt>
      <trkpt lat="44.40061" lon="1.7851">
        <ele>318.81</ele>
        <time>2023-04-17T13:42:57Z</time>
      </trkpt>
      <trkpt lat="44.40062" lon="1.78528">
        <ele>318.33</ele>
        <time>2023-04-17T13:43:09Z</time>
      </trkpt>
      <trkpt lat="44.40063" lon="1.78544">
        <ele>316.89</ele>
        <time>2023-04-17T13:43:21Z</time>
      </trkpt>
      <trkpt lat="44.40067" lon="1.78565">
        <ele>314.97</ele>
        <time>2023-04-17T13:43:35Z</time>
      </trkpt>
      <trkpt lat="44.40075" lon="1.78582">
        <ele>314.01</ele>
        <time>2023-04-17T13:43:49Z</time>
      </trkpt>
      <trkpt lat="44.40079" lon="1.786">
        <ele>315.93</ele>
        <time>2023-04-17T13:44:01Z</time>
      </trkpt>
      <trkpt lat="44.40079" lon="1.78603">
        <ele>316.89</ele>
        <time>2023-04-17T13:44:03Z</time>
      </trkpt>
      <trkpt lat="44.4008" lon="1.78605">
        <ele>316.89</ele>
        <time>2023-04-17T13:44:04Z</time>
      </trkpt>
      <trkpt lat="44.4008" lon="1.78607">
        <ele>317.37</ele>
        <time>2023-04-17T13:44:05Z</time>
      </trkpt>
      <trkpt lat="44.40081" lon="1.78609">
        <ele>317.85</ele>
        <time>2023-04-17T13:44:06Z</time>
      </trkpt>
      <trkpt lat="44.40081" lon="1.78611">
        <ele>317.85</ele>
        <time>2023-04-17T13:44:07Z</time>
      </trkpt>
      <trkpt lat="44.40085" lon="1.78629">
        <ele>319.78</ele>
        <time>2023-04-17T13:44:19Z</time>
      </trkpt>
      <trkpt lat="44.40086" lon="1.7863">
        <ele>319.78</ele>
        <time>2023-04-17T13:44:20Z</time>
      </trkpt>
      <trkpt lat="44.40089" lon="1.78646">
        <ele>321.7</ele>
        <time>2023-04-17T13:44:31Z</time>
      </trkpt>
      <trkpt lat="44.40091" lon="1.78666">
        <ele>323.14</ele>
        <time>2023-04-17T13:44:45Z</time>
      </trkpt>
      <trkpt lat="44.40092" lon="1.78686">
        <ele>324.1</ele>
        <time>2023-04-17T13:44:57Z</time>
      </trkpt>
      <trkpt lat="44.40094" lon="1.78705">
        <ele>321.7</ele>
        <time>2023-04-17T13:45:10Z</time>
      </trkpt>
      <trkpt lat="44.40094" lon="1.78708">
        <ele>321.22</ele>
        <time>2023-04-17T13:45:13Z</time>
      </trkpt>
      <trkpt lat="44.40094" lon="1.7871">
        <ele>321.22</ele>
        <time>2023-04-17T13:45:14Z</time>
      </trkpt>
      <trkpt lat="44.40094" lon="1.78711">
        <ele>321.22</ele>
        <time>2023-04-17T13:45:15Z</time>
      </trkpt>
      <trkpt lat="44.40094" lon="1.78736">
        <ele>320.74</ele>
        <time>2023-04-17T13:45:31Z</time>
      </trkpt>
      <trkpt lat="44.40095" lon="1.78755">
        <ele>321.7</ele>
        <time>2023-04-17T13:45:44Z</time>
      </trkpt>
      <trkpt lat="44.40094" lon="1.78776">
        <ele>320.26</ele>
        <time>2023-04-17T13:45:58Z</time>
      </trkpt>
      <trkpt lat="44.40097" lon="1.78795">
        <ele>315.45</ele>
        <time>2023-04-17T13:46:16Z</time>
      </trkpt>
      <trkpt lat="44.40096" lon="1.78812">
        <ele>313.05</ele>
        <time>2023-04-17T13:46:29Z</time>
      </trkpt>
      <trkpt lat="44.40096" lon="1.78818">
        <ele>311.12</ele>
        <time>2023-04-17T13:46:42Z</time>
      </trkpt>
      <trkpt lat="44.40095" lon="1.78818">
        <ele>311.12</ele>
        <time>2023-04-17T13:46:55Z</time>
      </trkpt>
      <trkpt lat="44.40096" lon="1.78823">
        <ele>310.16</ele>
        <time>2023-04-17T13:47:04Z</time>
      </trkpt>
      <trkpt lat="44.40097" lon="1.78825">
        <ele>309.68</ele>
        <time>2023-04-17T13:47:05Z</time>
      </trkpt>
      <trkpt lat="44.40095" lon="1.78842">
        <ele>309.2</ele>
        <time>2023-04-17T13:47:18Z</time>
      </trkpt>
      <trkpt lat="44.40096" lon="1.78848">
        <ele>308.24</ele>
        <time>2023-04-17T13:47:30Z</time>
      </trkpt>
      <trkpt lat="44.40096" lon="1.7885">
        <ele>308.24</ele>
        <time>2023-04-17T13:47:31Z</time>
      </trkpt>
      <trkpt lat="44.40092" lon="1.78871">
        <ele>307.76</ele>
        <time>2023-04-17T13:47:44Z</time>
      </trkpt>
      <trkpt lat="44.40092" lon="1.78872">
        <ele>307.76</ele>
        <time>2023-04-17T13:47:45Z</time>
      </trkpt>
      <trkpt lat="44.40092" lon="1.78874">
        <ele>307.76</ele>
        <time>2023-04-17T13:47:46Z</time>
      </trkpt>
      <trkpt lat="44.40091" lon="1.78882">
        <ele>308.72</ele>
        <time>2023-04-17T13:47:53Z</time>
      </trkpt>
      <trkpt lat="44.40087" lon="1.78891">
        <ele>309.2</ele>
        <time>2023-04-17T13:47:58Z</time>
      </trkpt>
      <trkpt lat="44.4008" lon="1.78908">
        <ele>308.72</ele>
        <time>2023-04-17T13:48:11Z</time>
      </trkpt>
      <trkpt lat="44.40071" lon="1.78924">
        <ele>309.2</ele>
        <time>2023-04-17T13:48:25Z</time>
      </trkpt>
      <trkpt lat="44.40067" lon="1.78929">
        <ele>306.8</ele>
        <time>2023-04-17T13:48:32Z</time>
      </trkpt>
      <trkpt lat="44.40066" lon="1.7893">
        <ele>306.8</ele>
        <time>2023-04-17T13:48:33Z</time>
      </trkpt>
      <trkpt lat="44.40065" lon="1.78932">
        <ele>306.8</ele>
        <time>2023-04-17T13:48:34Z</time>
      </trkpt>
      <trkpt lat="44.40064" lon="1.78934">
        <ele>306.32</ele>
        <time>2023-04-17T13:48:35Z</time>
      </trkpt>
      <trkpt lat="44.40063" lon="1.78935">
        <ele>306.32</ele>
        <time>2023-04-17T13:48:36Z</time>
      </trkpt>
      <trkpt lat="44.40062" lon="1.78937">
        <ele>306.32</ele>
        <time>2023-04-17T13:48:37Z</time>
      </trkpt>
      <trkpt lat="44.40058" lon="1.78944">
        <ele>306.8</ele>
        <time>2023-04-17T13:48:44Z</time>
      </trkpt>
      <trkpt lat="44.40057" lon="1.78946">
        <ele>306.8</ele>
        <time>2023-04-17T13:48:45Z</time>
      </trkpt>
      <trkpt lat="44.40056" lon="1.78947">
        <ele>306.8</ele>
        <time>2023-04-17T13:48:46Z</time>
      </trkpt>
      <trkpt lat="44.40056" lon="1.78948">
        <ele>306.8</ele>
        <time>2023-04-17T13:48:47Z</time>
      </trkpt>
      <trkpt lat="44.40055" lon="1.7895">
        <ele>306.8</ele>
        <time>2023-04-17T13:48:48Z</time>
      </trkpt>
      <trkpt lat="44.40054" lon="1.78951">
        <ele>306.8</ele>
        <time>2023-04-17T13:48:49Z</time>
      </trkpt>
      <trkpt lat="44.4005" lon="1.78958">
        <ele>307.76</ele>
        <time>2023-04-17T13:48:56Z</time>
      </trkpt>
      <trkpt lat="44.4005" lon="1.78959">
        <ele>308.24</ele>
        <time>2023-04-17T13:48:57Z</time>
      </trkpt>
      <trkpt lat="44.40044" lon="1.78977">
        <ele>310.16</ele>
        <time>2023-04-17T13:49:10Z</time>
      </trkpt>
      <trkpt lat="44.4004" lon="1.78986">
        <ele>310.64</ele>
        <time>2023-04-17T13:49:15Z</time>
      </trkpt>
      <trkpt lat="44.40035" lon="1.79">
        <ele>311.12</ele>
        <time>2023-04-17T13:49:26Z</time>
      </trkpt>
      <trkpt lat="44.40026" lon="1.79014">
        <ele>310.64</ele>
        <time>2023-04-17T13:49:40Z</time>
      </trkpt>
      <trkpt lat="44.40021" lon="1.79029">
        <ele>310.16</ele>
        <time>2023-04-17T13:49:53Z</time>
      </trkpt>
      <trkpt lat="44.40024" lon="1.79041">
        <ele>308.72</ele>
        <time>2023-04-17T13:50:10Z</time>
      </trkpt>
      <trkpt lat="44.40021" lon="1.79038">
        <ele>307.28</ele>
        <time>2023-04-17T13:50:48Z</time>
      </trkpt>
      <trkpt lat="44.40019" lon="1.79042">
        <ele>307.28</ele>
        <time>2023-04-17T13:51:05Z</time>
      </trkpt>
      <trkpt lat="44.40022" lon="1.7903">
        <ele>308.24</ele>
        <time>2023-04-17T13:51:19Z</time>
      </trkpt>
      <trkpt lat="44.40023" lon="1.79028">
        <ele>308.24</ele>
        <time>2023-04-17T13:51:20Z</time>
      </trkpt>
      <trkpt lat="44.40026" lon="1.79021">
        <ele>309.68</ele>
        <time>2023-04-17T13:51:28Z</time>
      </trkpt>
      <trkpt lat="44.40009" lon="1.7903">
        <ele>307.76</ele>
        <time>2023-04-17T13:51:42Z</time>
      </trkpt>
      <trkpt lat="44.39987" lon="1.79048">
        <ele>308.72</ele>
        <time>2023-04-17T13:51:57Z</time>
      </trkpt>
      <trkpt lat="44.39971" lon="1.79057">
        <ele>310.16</ele>
        <time>2023-04-17T13:52:11Z</time>
      </trkpt>
      <trkpt lat="44.39962" lon="1.79061">
        <ele>311.6</ele>
        <time>2023-04-17T13:52:26Z</time>
      </trkpt>
      <trkpt lat="44.39945" lon="1.79068">
        <ele>316.41</ele>
        <time>2023-04-17T13:52:42Z</time>
      </trkpt>
      <trkpt lat="44.39916" lon="1.79072">
        <ele>312.57</ele>
        <time>2023-04-17T13:52:58Z</time>
      </trkpt>
      <trkpt lat="44.39909" lon="1.7908">
        <ele>313.05</ele>
        <time>2023-04-17T13:53:11Z</time>
      </trkpt>
      <trkpt lat="44.39908" lon="1.79082">
        <ele>313.05</ele>
        <time>2023-04-17T13:53:12Z</time>
      </trkpt>
      <trkpt lat="44.39906" lon="1.79084">
        <ele>313.53</ele>
        <time>2023-04-17T13:53:13Z</time>
      </trkpt>
      <trkpt lat="44.39905" lon="1.79086">
        <ele>313.53</ele>
        <time>2023-04-17T13:53:14Z</time>
      </trkpt>
      <trkpt lat="44.39904" lon="1.79087">
        <ele>314.01</ele>
        <time>2023-04-17T13:53:15Z</time>
      </trkpt>
      <trkpt lat="44.39902" lon="1.79089">
        <ele>314.01</ele>
        <time>2023-04-17T13:53:16Z</time>
      </trkpt>
      <trkpt lat="44.39892" lon="1.79098">
        <ele>315.45</ele>
        <time>2023-04-17T13:53:30Z</time>
      </trkpt>
      <trkpt lat="44.39886" lon="1.79103">
        <ele>316.89</ele>
        <time>2023-04-17T13:53:34Z</time>
      </trkpt>
      <trkpt lat="44.39885" lon="1.79104">
        <ele>316.89</ele>
        <time>2023-04-17T13:53:35Z</time>
      </trkpt>
      <trkpt lat="44.39883" lon="1.79106">
        <ele>317.37</ele>
        <time>2023-04-17T13:53:36Z</time>
      </trkpt>
      <trkpt lat="44.39882" lon="1.79107">
        <ele>317.37</ele>
        <time>2023-04-17T13:53:37Z</time>
      </trkpt>
      <trkpt lat="44.3988" lon="1.79107">
        <ele>317.85</ele>
        <time>2023-04-17T13:53:38Z</time>
      </trkpt>
      <trkpt lat="44.39873" lon="1.79111">
        <ele>319.3</ele>
        <time>2023-04-17T13:53:48Z</time>
      </trkpt>
      <trkpt lat="44.39872" lon="1.79112">
        <ele>320.26</ele>
        <time>2023-04-17T13:53:51Z</time>
      </trkpt>
      <trkpt lat="44.39866" lon="1.79115">
        <ele>322.18</ele>
        <time>2023-04-17T13:53:58Z</time>
      </trkpt>
      <trkpt lat="44.39846" lon="1.79124">
        <ele>323.14</ele>
        <time>2023-04-17T13:54:10Z</time>
      </trkpt>
      <trkpt lat="44.39834" lon="1.79127">
        <ele>320.74</ele>
        <time>2023-04-17T13:54:24Z</time>
      </trkpt>
      <trkpt lat="44.39814" lon="1.79135">
        <ele>319.78</ele>
        <time>2023-04-17T13:54:37Z</time>
      </trkpt>
      <trkpt lat="44.39803" lon="1.79138">
        <ele>316.41</ele>
        <time>2023-04-17T13:54:50Z</time>
      </trkpt>
      <trkpt lat="44.39787" lon="1.79144">
        <ele>315.45</ele>
        <time>2023-04-17T13:55:02Z</time>
      </trkpt>
      <trkpt lat="44.39786" lon="1.79145">
        <ele>315.45</ele>
        <time>2023-04-17T13:55:03Z</time>
      </trkpt>
      <trkpt lat="44.39783" lon="1.79148">
        <ele>315.45</ele>
        <time>2023-04-17T13:55:13Z</time>
      </trkpt>
      <trkpt lat="44.39783" lon="1.79152">
        <ele>315.93</ele>
        <time>2023-04-17T13:55:27Z</time>
      </trkpt>
      <trkpt lat="44.39784" lon="1.79152">
        <ele>318.33</ele>
        <time>2023-04-17T13:56:11Z</time>
      </trkpt>
      <trkpt lat="44.39775" lon="1.79153">
        <ele>316.89</ele>
        <time>2023-04-17T13:56:20Z</time>
      </trkpt>
      <trkpt lat="44.39764" lon="1.79162">
        <ele>317.85</ele>
        <time>2023-04-17T13:56:31Z</time>
      </trkpt>
      <trkpt lat="44.39746" lon="1.79174">
        <ele>317.85</ele>
        <time>2023-04-17T13:56:44Z</time>
      </trkpt>
      <trkpt lat="44.39741" lon="1.79169">
        <ele>316.89</ele>
        <time>2023-04-17T13:56:52Z</time>
      </trkpt>
      <trkpt lat="44.3974" lon="1.79167">
        <ele>316.89</ele>
        <time>2023-04-17T13:56:53Z</time>
      </trkpt>
      <trkpt lat="44.39731" lon="1.79141">
        <ele>318.81</ele>
        <time>2023-04-17T13:57:07Z</time>
      </trkpt>
      <trkpt lat="44.39728" lon="1.79125">
        <ele>318.81</ele>
        <time>2023-04-17T13:57:21Z</time>
      </trkpt>
      <trkpt lat="44.39715" lon="1.79103">
        <ele>317.85</ele>
        <time>2023-04-17T13:57:35Z</time>
      </trkpt>
      <trkpt lat="44.39715" lon="1.79097">
        <ele>317.37</ele>
        <time>2023-04-17T13:57:40Z</time>
      </trkpt>
      <trkpt lat="44.39716" lon="1.79095">
        <ele>316.89</ele>
        <time>2023-04-17T13:57:41Z</time>
      </trkpt>
      <trkpt lat="44.39716" lon="1.79093">
        <ele>316.89</ele>
        <time>2023-04-17T13:57:42Z</time>
      </trkpt>
      <trkpt lat="44.39716" lon="1.79091">
        <ele>316.41</ele>
        <time>2023-04-17T13:57:43Z</time>
      </trkpt>
      <trkpt lat="44.39716" lon="1.79089">
        <ele>316.89</ele>
        <time>2023-04-17T13:57:44Z</time>
      </trkpt>
      <trkpt lat="44.39716" lon="1.79086">
        <ele>316.89</ele>
        <time>2023-04-17T13:57:45Z</time>
      </trkpt>
      <trkpt lat="44.39716" lon="1.79083">
        <ele>317.37</ele>
        <time>2023-04-17T13:57:46Z</time>
      </trkpt>
      <trkpt lat="44.39716" lon="1.79081">
        <ele>317.85</ele>
        <time>2023-04-17T13:57:47Z</time>
      </trkpt>
      <trkpt lat="44.39716" lon="1.79078">
        <ele>318.33</ele>
        <time>2023-04-17T13:57:48Z</time>
      </trkpt>
      <trkpt lat="44.39717" lon="1.79075">
        <ele>318.33</ele>
        <time>2023-04-17T13:57:49Z</time>
      </trkpt>
      <trkpt lat="44.39722" lon="1.7906">
        <ele>320.26</ele>
        <time>2023-04-17T13:58:01Z</time>
      </trkpt>
      <trkpt lat="44.39723" lon="1.79058">
        <ele>318.81</ele>
        <time>2023-04-17T13:58:20Z</time>
      </trkpt>
      <trkpt lat="44.39723" lon="1.79058">
        <ele>319.78</ele>
        <time>2023-04-17T13:58:53Z</time>
      </trkpt>
      <trkpt lat="44.39724" lon="1.7906">
        <ele>318.33</ele>
        <time>2023-04-17T13:59:05Z</time>
      </trkpt>
      <trkpt lat="44.39725" lon="1.79062">
        <ele>317.85</ele>
        <time>2023-04-17T13:59:07Z</time>
      </trkpt>
      <trkpt lat="44.39726" lon="1.79066">
        <ele>316.89</ele>
        <time>2023-04-17T13:59:19Z</time>
      </trkpt>
      <trkpt lat="44.39723" lon="1.79068">
        <ele>315.93</ele>
        <time>2023-04-17T13:59:31Z</time>
      </trkpt>
      <trkpt lat="44.39721" lon="1.79064">
        <ele>314.01</ele>
        <time>2023-04-17T13:59:53Z</time>
      </trkpt>
      <trkpt lat="44.39719" lon="1.79064">
        <ele>314.97</ele>
        <time>2023-04-17T14:00:07Z</time>
      </trkpt>
      <trkpt lat="44.39711" lon="1.7909">
        <ele>313.05</ele>
        <time>2023-04-17T14:00:25Z</time>
      </trkpt>
      <trkpt lat="44.39698" lon="1.79081">
        <ele>312.57</ele>
        <time>2023-04-17T14:00:41Z</time>
      </trkpt>
      <trkpt lat="44.39684" lon="1.79062">
        <ele>311.6</ele>
        <time>2023-04-17T14:00:58Z</time>
      </trkpt>
      <trkpt lat="44.39671" lon="1.79042">
        <ele>311.6</ele>
        <time>2023-04-17T14:01:13Z</time>
      </trkpt>
      <trkpt lat="44.39665" lon="1.79026">
        <ele>312.57</ele>
        <time>2023-04-17T14:01:28Z</time>
      </trkpt>
      <trkpt lat="44.39657" lon="1.79018">
        <ele>313.53</ele>
        <time>2023-04-17T14:01:44Z</time>
      </trkpt>
      <trkpt lat="44.39657" lon="1.79009">
        <ele>315.45</ele>
        <time>2023-04-17T14:02:03Z</time>
      </trkpt>
      <trkpt lat="44.39649" lon="1.78992">
        <ele>314.49</ele>
        <time>2023-04-17T14:02:19Z</time>
      </trkpt>
      <trkpt lat="44.39647" lon="1.78992">
        <ele>314.49</ele>
        <time>2023-04-17T14:02:36Z</time>
      </trkpt>
      <trkpt lat="44.39648" lon="1.78989">
        <ele>319.3</ele>
        <time>2023-04-17T14:03:02Z</time>
      </trkpt>
      <trkpt lat="44.39652" lon="1.78987">
        <ele>321.22</ele>
        <time>2023-04-17T14:03:22Z</time>
      </trkpt>
      <trkpt lat="44.39653" lon="1.7898">
        <ele>321.7</ele>
        <time>2023-04-17T14:03:38Z</time>
      </trkpt>
      <trkpt lat="44.39649" lon="1.78978">
        <ele>323.14</ele>
        <time>2023-04-17T14:03:54Z</time>
      </trkpt>
      <trkpt lat="44.3964" lon="1.78965">
        <ele>323.14</ele>
        <time>2023-04-17T14:04:09Z</time>
      </trkpt>
      <trkpt lat="44.39639" lon="1.78958">
        <ele>321.22</ele>
        <time>2023-04-17T14:04:24Z</time>
      </trkpt>
      <trkpt lat="44.39637" lon="1.78953">
        <ele>322.18</ele>
        <time>2023-04-17T14:04:42Z</time>
      </trkpt>
      <trkpt lat="44.39625" lon="1.78948">
        <ele>323.62</ele>
        <time>2023-04-17T14:04:55Z</time>
      </trkpt>
      <trkpt lat="44.39609" lon="1.78953">
        <ele>320.74</ele>
        <time>2023-04-17T14:05:12Z</time>
      </trkpt>
      <trkpt lat="44.39618" lon="1.78948">
        <ele>322.66</ele>
        <time>2023-04-17T14:05:31Z</time>
      </trkpt>
      <trkpt lat="44.39626" lon="1.78932">
        <ele>321.7</ele>
        <time>2023-04-17T14:05:47Z</time>
      </trkpt>
      <trkpt lat="44.39618" lon="1.78909">
        <ele>318.81</ele>
        <time>2023-04-17T14:06:05Z</time>
      </trkpt>
      <trkpt lat="44.39613" lon="1.78887">
        <ele>316.41</ele>
        <time>2023-04-17T14:06:20Z</time>
      </trkpt>
      <trkpt lat="44.39606" lon="1.78861">
        <ele>315.93</ele>
        <time>2023-04-17T14:06:37Z</time>
      </trkpt>
      <trkpt lat="44.39602" lon="1.78834">
        <ele>316.41</ele>
        <time>2023-04-17T14:06:56Z</time>
      </trkpt>
      <trkpt lat="44.39599" lon="1.78811">
        <ele>316.41</ele>
        <time>2023-04-17T14:07:12Z</time>
      </trkpt>
      <trkpt lat="44.39597" lon="1.78787">
        <ele>315.45</ele>
        <time>2023-04-17T14:07:29Z</time>
      </trkpt>
      <trkpt lat="44.39596" lon="1.78758">
        <ele>315.45</ele>
        <time>2023-04-17T14:07:48Z</time>
      </trkpt>
      <trkpt lat="44.39595" lon="1.78732">
        <ele>315.45</ele>
        <time>2023-04-17T14:08:05Z</time>
      </trkpt>
      <trkpt lat="44.39591" lon="1.78727">
        <ele>314.49</ele>
        <time>2023-04-17T14:08:20Z</time>
      </trkpt>
      <trkpt lat="44.39592" lon="1.78722">
        <ele>314.01</ele>
        <time>2023-04-17T14:08:40Z</time>
      </trkpt>
      <trkpt lat="44.39594" lon="1.78703">
        <ele>313.53</ele>
        <time>2023-04-17T14:08:55Z</time>
      </trkpt>
      <trkpt lat="44.39597" lon="1.78689">
        <ele>315.45</ele>
        <time>2023-04-17T14:09:09Z</time>
      </trkpt>
      <trkpt lat="44.39597" lon="1.78689">
        <ele>318.81</ele>
        <time>2023-04-17T14:09:33Z</time>
      </trkpt>
      <trkpt lat="44.39601" lon="1.78684">
        <ele>322.18</ele>
        <time>2023-04-17T14:10:03Z</time>
      </trkpt>
      <trkpt lat="44.39597" lon="1.78671">
        <ele>321.7</ele>
        <time>2023-04-17T14:10:20Z</time>
      </trkpt>
      <trkpt lat="44.39597" lon="1.78635">
        <ele>320.74</ele>
        <time>2023-04-17T14:10:40Z</time>
      </trkpt>
      <trkpt lat="44.39598" lon="1.78607">
        <ele>316.41</ele>
        <time>2023-04-17T14:10:57Z</time>
      </trkpt>
      <trkpt lat="44.39597" lon="1.78595">
        <ele>314.97</ele>
        <time>2023-04-17T14:11:05Z</time>
      </trkpt>
      <trkpt lat="44.39593" lon="1.78556">
        <ele>319.3</ele>
        <time>2023-04-17T14:11:26Z</time>
      </trkpt>
      <trkpt lat="44.3959" lon="1.78531">
        <ele>318.81</ele>
        <time>2023-04-17T14:11:41Z</time>
      </trkpt>
      <trkpt lat="44.39585" lon="1.78501">
        <ele>318.33</ele>
        <time>2023-04-17T14:11:59Z</time>
      </trkpt>
      <trkpt lat="44.39586" lon="1.78474">
        <ele>315.93</ele>
        <time>2023-04-17T14:12:15Z</time>
      </trkpt>
      <trkpt lat="44.39584" lon="1.78465">
        <ele>314.97</ele>
        <time>2023-04-17T14:12:31Z</time>
      </trkpt>
      <trkpt lat="44.39584" lon="1.78464">
        <ele>315.45</ele>
        <time>2023-04-17T14:12:32Z</time>
      </trkpt>
      <trkpt lat="44.39592" lon="1.78442">
        <ele>314.01</ele>
        <time>2023-04-17T14:12:48Z</time>
      </trkpt>
      <trkpt lat="44.39599" lon="1.78417">
        <ele>312.57</ele>
        <time>2023-04-17T14:13:03Z</time>
      </trkpt>
      <trkpt lat="44.39606" lon="1.78395">
        <ele>308.24</ele>
        <time>2023-04-17T14:13:19Z</time>
      </trkpt>
      <trkpt lat="44.39612" lon="1.78382">
        <ele>306.8</ele>
        <time>2023-04-17T14:13:30Z</time>
      </trkpt>
      <trkpt lat="44.39622" lon="1.78362">
        <ele>303.91</ele>
        <time>2023-04-17T14:13:45Z</time>
      </trkpt>
      <trkpt lat="44.3963" lon="1.78347">
        <ele>302.47</ele>
        <time>2023-04-17T14:13:59Z</time>
      </trkpt>
      <trkpt lat="44.39638" lon="1.78348">
        <ele>304.39</ele>
        <time>2023-04-17T14:14:15Z</time>
      </trkpt>
      <trkpt lat="44.39642" lon="1.78352">
        <ele>307.76</ele>
        <time>2023-04-17T14:14:30Z</time>
      </trkpt>
      <trkpt lat="44.39643" lon="1.78349">
        <ele>307.76</ele>
        <time>2023-04-17T14:14:45Z</time>
      </trkpt>
      <trkpt lat="44.3964" lon="1.78344">
        <ele>310.64</ele>
        <time>2023-04-17T14:15:15Z</time>
      </trkpt>
      <trkpt lat="44.39639" lon="1.78344">
        <ele>312.09</ele>
        <time>2023-04-17T14:15:42Z</time>
      </trkpt>
      <trkpt lat="44.39639" lon="1.78344">
        <ele>313.05</ele>
        <time>2023-04-17T14:16:08Z</time>
      </trkpt>
      <trkpt lat="44.39639" lon="1.78344">
        <ele>313.05</ele>
        <time>2023-04-17T14:16:22Z</time>
      </trkpt>
      <trkpt lat="44.3964" lon="1.78342">
        <ele>313.05</ele>
        <time>2023-04-17T14:16:44Z</time>
      </trkpt>
      <trkpt lat="44.3964" lon="1.78343">
        <ele>312.57</ele>
        <time>2023-04-17T14:16:59Z</time>
      </trkpt>
      <trkpt lat="44.39638" lon="1.78349">
        <ele>310.64</ele>
        <time>2023-04-17T14:17:24Z</time>
      </trkpt>
      <trkpt lat="44.39635" lon="1.78348">
        <ele>312.57</ele>
        <time>2023-04-17T14:17:47Z</time>
      </trkpt>
      <trkpt lat="44.39633" lon="1.78342">
        <ele>311.6</ele>
        <time>2023-04-17T14:18:05Z</time>
      </trkpt>
      <trkpt lat="44.3964" lon="1.78331">
        <ele>311.12</ele>
        <time>2023-04-17T14:18:26Z</time>
      </trkpt>
      <trkpt lat="44.39641" lon="1.7833">
        <ele>309.2</ele>
        <time>2023-04-17T14:18:42Z</time>
      </trkpt>
      <trkpt lat="44.3964" lon="1.78334">
        <ele>308.24</ele>
        <time>2023-04-17T14:19:01Z</time>
      </trkpt>
      <trkpt lat="44.39641" lon="1.78334">
        <ele>307.76</ele>
        <time>2023-04-17T14:19:05Z</time>
      </trkpt>
      <trkpt lat="44.39638" lon="1.78336">
        <ele>307.76</ele>
        <time>2023-04-17T14:19:08Z</time>
      </trkpt>
      <trkpt lat="44.39635" lon="1.78326">
        <ele>307.28</ele>
        <time>2023-04-17T14:19:18Z</time>
      </trkpt>
      <trkpt lat="44.3964" lon="1.78314">
        <ele>304.39</ele>
        <time>2023-04-17T14:19:33Z</time>
      </trkpt>
      <trkpt lat="44.3964" lon="1.78314">
        <ele>303.91</ele>
        <time>2023-04-17T14:19:35Z</time>
      </trkpt>
      <trkpt lat="44.39643" lon="1.78302">
        <ele>301.99</ele>
        <time>2023-04-17T14:19:49Z</time>
      </trkpt>
      <trkpt lat="44.39642" lon="1.78285">
        <ele>301.51</ele>
        <time>2023-04-17T14:20:05Z</time>
      </trkpt>
      <trkpt lat="44.39646" lon="1.78263">
        <ele>300.07</ele>
        <time>2023-04-17T14:20:22Z</time>
      </trkpt>
      <trkpt lat="44.39645" lon="1.78241">
        <ele>301.51</ele>
        <time>2023-04-17T14:20:37Z</time>
      </trkpt>
      <trkpt lat="44.39645" lon="1.78216">
        <ele>301.51</ele>
        <time>2023-04-17T14:20:55Z</time>
      </trkpt>
      <trkpt lat="44.39644" lon="1.7819">
        <ele>300.07</ele>
        <time>2023-04-17T14:21:12Z</time>
      </trkpt>
      <trkpt lat="44.39644" lon="1.78169">
        <ele>301.03</ele>
        <time>2023-04-17T14:21:25Z</time>
      </trkpt>
      <trkpt lat="44.39642" lon="1.78144">
        <ele>305.36</ele>
        <time>2023-04-17T14:21:41Z</time>
      </trkpt>
      <trkpt lat="44.39642" lon="1.78121">
        <ele>310.16</ele>
        <time>2023-04-17T14:21:59Z</time>
      </trkpt>
      <trkpt lat="44.39641" lon="1.78105">
        <ele>311.6</ele>
        <time>2023-04-17T14:22:11Z</time>
      </trkpt>
      <trkpt lat="44.39637" lon="1.78086">
        <ele>308.24</ele>
        <time>2023-04-17T14:22:25Z</time>
      </trkpt>
      <trkpt lat="44.39633" lon="1.78066">
        <ele>307.76</ele>
        <time>2023-04-17T14:22:39Z</time>
      </trkpt>
      <trkpt lat="44.39631" lon="1.78044">
        <ele>304.39</ele>
        <time>2023-04-17T14:22:54Z</time>
      </trkpt>
      <trkpt lat="44.3963" lon="1.78017">
        <ele>305.84</ele>
        <time>2023-04-17T14:23:11Z</time>
      </trkpt>
      <trkpt lat="44.39631" lon="1.78003">
        <ele>305.84</ele>
        <time>2023-04-17T14:23:24Z</time>
      </trkpt>
      <trkpt lat="44.39632" lon="1.7798">
        <ele>304.39</ele>
        <time>2023-04-17T14:23:41Z</time>
      </trkpt>
      <trkpt lat="44.39637" lon="1.77959">
        <ele>306.32</ele>
        <time>2023-04-17T14:23:57Z</time>
      </trkpt>
      <trkpt lat="44.3964" lon="1.77929">
        <ele>310.64</ele>
        <time>2023-04-17T14:24:14Z</time>
      </trkpt>
      <trkpt lat="44.39641" lon="1.77906">
        <ele>311.6</ele>
        <time>2023-04-17T14:24:29Z</time>
      </trkpt>
      <trkpt lat="44.39644" lon="1.77895">
        <ele>314.01</ele>
        <time>2023-04-17T14:24:48Z</time>
      </trkpt>
      <trkpt lat="44.39656" lon="1.77886">
        <ele>314.97</ele>
        <time>2023-04-17T14:25:04Z</time>
      </trkpt>
      <trkpt lat="44.39669" lon="1.77872">
        <ele>315.45</ele>
        <time>2023-04-17T14:25:21Z</time>
      </trkpt>
      <trkpt lat="44.39679" lon="1.77856">
        <ele>315.45</ele>
        <time>2023-04-17T14:25:37Z</time>
      </trkpt>
      <trkpt lat="44.39681" lon="1.77849">
        <ele>313.53</ele>
        <time>2023-04-17T14:25:53Z</time>
      </trkpt>
      <trkpt lat="44.39687" lon="1.77837">
        <ele>313.53</ele>
        <time>2023-04-17T14:26:07Z</time>
      </trkpt>
      <trkpt lat="44.39695" lon="1.77825">
        <ele>315.93</ele>
        <time>2023-04-17T14:26:22Z</time>
      </trkpt>
      <trkpt lat="44.39696" lon="1.77823">
        <ele>315.93</ele>
        <time>2023-04-17T14:26:24Z</time>
      </trkpt>
      <trkpt lat="44.39711" lon="1.77808">
        <ele>314.97</ele>
        <time>2023-04-17T14:26:42Z</time>
      </trkpt>
      <trkpt lat="44.39727" lon="1.7781">
        <ele>314.97</ele>
        <time>2023-04-17T14:26:57Z</time>
      </trkpt>
      <trkpt lat="44.39729" lon="1.77811">
        <ele>314.97</ele>
        <time>2023-04-17T14:26:59Z</time>
      </trkpt>
      <trkpt lat="44.3974" lon="1.77822">
        <ele>314.49</ele>
        <time>2023-04-17T14:27:19Z</time>
      </trkpt>
      <trkpt lat="44.3975" lon="1.77814">
        <ele>316.89</ele>
        <time>2023-04-17T14:27:32Z</time>
      </trkpt>
      <trkpt lat="44.39763" lon="1.77811">
        <ele>315.93</ele>
        <time>2023-04-17T14:27:47Z</time>
      </trkpt>
      <trkpt lat="44.39766" lon="1.77809">
        <ele>315.45</ele>
        <time>2023-04-17T14:27:50Z</time>
      </trkpt>
      <trkpt lat="44.39786" lon="1.77799">
        <ele>313.05</ele>
        <time>2023-04-17T14:28:10Z</time>
      </trkpt>
      <trkpt lat="44.39793" lon="1.77797">
        <ele>312.09</ele>
        <time>2023-04-17T14:28:17Z</time>
      </trkpt>
      <trkpt lat="44.39809" lon="1.77809">
        <ele>313.05</ele>
        <time>2023-04-17T14:28:33Z</time>
      </trkpt>
      <trkpt lat="44.39818" lon="1.77813">
        <ele>313.53</ele>
        <time>2023-04-17T14:28:41Z</time>
      </trkpt>
      <trkpt lat="44.39834" lon="1.7782">
        <ele>312.57</ele>
        <time>2023-04-17T14:28:58Z</time>
      </trkpt>
      <trkpt lat="44.39853" lon="1.7782">
        <ele>314.01</ele>
        <time>2023-04-17T14:29:15Z</time>
      </trkpt>
      <trkpt lat="44.39871" lon="1.77825">
        <ele>312.57</ele>
        <time>2023-04-17T14:29:31Z</time>
      </trkpt>
      <trkpt lat="44.39883" lon="1.77826">
        <ele>311.12</ele>
        <time>2023-04-17T14:29:48Z</time>
      </trkpt>
      <trkpt lat="44.39885" lon="1.7783">
        <ele>307.28</ele>
        <time>2023-04-17T14:30:04Z</time>
      </trkpt>
      <trkpt lat="44.39894" lon="1.77831">
        <ele>304.88</ele>
        <time>2023-04-17T14:30:19Z</time>
      </trkpt>
      <trkpt lat="44.39907" lon="1.77832">
        <ele>301.51</ele>
        <time>2023-04-17T14:30:36Z</time>
      </trkpt>
      <trkpt lat="44.39919" lon="1.77835">
        <ele>301.99</ele>
        <time>2023-04-17T14:30:53Z</time>
      </trkpt>
      <trkpt lat="44.39932" lon="1.77828">
        <ele>301.51</ele>
        <time>2023-04-17T14:31:09Z</time>
      </trkpt>
      <trkpt lat="44.39933" lon="1.77825">
        <ele>302.47</ele>
        <time>2023-04-17T14:31:32Z</time>
      </trkpt>
      <trkpt lat="44.39944" lon="1.77818">
        <ele>304.88</ele>
        <time>2023-04-17T14:31:46Z</time>
      </trkpt>
      <trkpt lat="44.3996" lon="1.77805">
        <ele>304.88</ele>
        <time>2023-04-17T14:32:04Z</time>
      </trkpt>
      <trkpt lat="44.39979" lon="1.77794">
        <ele>303.43</ele>
        <time>2023-04-17T14:32:22Z</time>
      </trkpt>
      <trkpt lat="44.39994" lon="1.77793">
        <ele>303.43</ele>
        <time>2023-04-17T14:32:39Z</time>
      </trkpt>
      <trkpt lat="44.40002" lon="1.77784">
        <ele>301.99</ele>
        <time>2023-04-17T14:32:54Z</time>
      </trkpt>
      <trkpt lat="44.39997" lon="1.77773">
        <ele>301.03</ele>
        <time>2023-04-17T14:33:10Z</time>
      </trkpt>
      <trkpt lat="44.39995" lon="1.77766">
        <ele>301.99</ele>
        <time>2023-04-17T14:33:24Z</time>
      </trkpt>
      <trkpt lat="44.39991" lon="1.77758">
        <ele>304.39</ele>
        <time>2023-04-17T14:33:38Z</time>
      </trkpt>
      <trkpt lat="44.39988" lon="1.77751">
        <ele>306.32</ele>
        <time>2023-04-17T14:33:52Z</time>
      </trkpt>
      <trkpt lat="44.3998" lon="1.77735">
        <ele>307.76</ele>
        <time>2023-04-17T14:34:08Z</time>
      </trkpt>
      <trkpt lat="44.3997" lon="1.77715">
        <ele>308.24</ele>
        <time>2023-04-17T14:34:25Z</time>
      </trkpt>
      <trkpt lat="44.39959" lon="1.77695">
        <ele>308.72</ele>
        <time>2023-04-17T14:34:42Z</time>
      </trkpt>
      <trkpt lat="44.39951" lon="1.77679">
        <ele>309.2</ele>
        <time>2023-04-17T14:34:55Z</time>
      </trkpt>
      <trkpt lat="44.3994" lon="1.77665">
        <ele>309.68</ele>
        <time>2023-04-17T14:35:06Z</time>
      </trkpt>
      <trkpt lat="44.39929" lon="1.77647">
        <ele>309.68</ele>
        <time>2023-04-17T14:35:21Z</time>
      </trkpt>
      <trkpt lat="44.39918" lon="1.77626">
        <ele>310.16</ele>
        <time>2023-04-17T14:35:40Z</time>
      </trkpt>
      <trkpt lat="44.39905" lon="1.77608">
        <ele>308.72</ele>
        <time>2023-04-17T14:35:58Z</time>
      </trkpt>
      <trkpt lat="44.39891" lon="1.77586">
        <ele>306.8</ele>
        <time>2023-04-17T14:36:18Z</time>
      </trkpt>
      <trkpt lat="44.3988" lon="1.77567">
        <ele>306.32</ele>
        <time>2023-04-17T14:36:35Z</time>
      </trkpt>
      <trkpt lat="44.39869" lon="1.77548">
        <ele>303.91</ele>
        <time>2023-04-17T14:36:50Z</time>
      </trkpt>
      <trkpt lat="44.39858" lon="1.77528">
        <ele>301.51</ele>
        <time>2023-04-17T14:37:07Z</time>
      </trkpt>
      <trkpt lat="44.39845" lon="1.77512">
        <ele>299.11</ele>
        <time>2023-04-17T14:37:25Z</time>
      </trkpt>
      <trkpt lat="44.39844" lon="1.77511">
        <ele>299.11</ele>
        <time>2023-04-17T14:37:27Z</time>
      </trkpt>
      <trkpt lat="44.39833" lon="1.77494">
        <ele>296.22</ele>
        <time>2023-04-17T14:37:42Z</time>
      </trkpt>
      <trkpt lat="44.39824" lon="1.77489">
        <ele>295.26</ele>
        <time>2023-04-17T14:37:51Z</time>
      </trkpt>
      <trkpt lat="44.39808" lon="1.77473">
        <ele>295.74</ele>
        <time>2023-04-17T14:38:09Z</time>
      </trkpt>
      <trkpt lat="44.39812" lon="1.77443">
        <ele>292.86</ele>
        <time>2023-04-17T14:38:28Z</time>
      </trkpt>
      <trkpt lat="44.39812" lon="1.77424">
        <ele>292.38</ele>
        <time>2023-04-17T14:38:42Z</time>
      </trkpt>
      <trkpt lat="44.39812" lon="1.77415">
        <ele>292.86</ele>
        <time>2023-04-17T14:38:48Z</time>
      </trkpt>
      <trkpt lat="44.39807" lon="1.77391">
        <ele>290.94</ele>
        <time>2023-04-17T14:39:07Z</time>
      </trkpt>
      <trkpt lat="44.39798" lon="1.77364">
        <ele>287.09</ele>
        <time>2023-04-17T14:39:26Z</time>
      </trkpt>
      <trkpt lat="44.39788" lon="1.77337">
        <ele>285.17</ele>
        <time>2023-04-17T14:39:45Z</time>
      </trkpt>
      <trkpt lat="44.39781" lon="1.77309">
        <ele>286.61</ele>
        <time>2023-04-17T14:40:02Z</time>
      </trkpt>
      <trkpt lat="44.39776" lon="1.7728">
        <ele>289.49</ele>
        <time>2023-04-17T14:40:20Z</time>
      </trkpt>
      <trkpt lat="44.3977" lon="1.77248">
        <ele>292.86</ele>
        <time>2023-04-17T14:40:42Z</time>
      </trkpt>
      <trkpt lat="44.39768" lon="1.77232">
        <ele>294.78</ele>
        <time>2023-04-17T14:40:56Z</time>
      </trkpt>
      <trkpt lat="44.39765" lon="1.77219">
        <ele>295.26</ele>
        <time>2023-04-17T14:41:09Z</time>
      </trkpt>
      <trkpt lat="44.39766" lon="1.77199">
        <ele>297.18</ele>
        <time>2023-04-17T14:41:26Z</time>
      </trkpt>
      <trkpt lat="44.39763" lon="1.77176">
        <ele>295.74</ele>
        <time>2023-04-17T14:41:43Z</time>
      </trkpt>
      <trkpt lat="44.3976" lon="1.77163">
        <ele>293.82</ele>
        <time>2023-04-17T14:41:56Z</time>
      </trkpt>
      <trkpt lat="44.39762" lon="1.77142">
        <ele>290.46</ele>
        <time>2023-04-17T14:42:10Z</time>
      </trkpt>
      <trkpt lat="44.39763" lon="1.7712">
        <ele>282.77</ele>
        <time>2023-04-17T14:42:25Z</time>
      </trkpt>
      <trkpt lat="44.39764" lon="1.771">
        <ele>276.04</ele>
        <time>2023-04-17T14:42:41Z</time>
      </trkpt>
      <trkpt lat="44.39757" lon="1.77078">
        <ele>276.04</ele>
        <time>2023-04-17T14:42:54Z</time>
      </trkpt>
      <trkpt lat="44.39746" lon="1.77068">
        <ele>278.44</ele>
        <time>2023-04-17T14:43:05Z</time>
      </trkpt>
      <trkpt lat="44.39735" lon="1.77045">
        <ele>273.63</ele>
        <time>2023-04-17T14:43:23Z</time>
      </trkpt>
      <trkpt lat="44.39727" lon="1.77026">
        <ele>264.98</ele>
        <time>2023-04-17T14:43:42Z</time>
      </trkpt>
      <trkpt lat="44.39723" lon="1.77022">
        <ele>263.06</ele>
        <time>2023-04-17T14:43:48Z</time>
      </trkpt>
      <trkpt lat="44.39717" lon="1.77008">
        <ele>267.86</ele>
        <time>2023-04-17T14:43:57Z</time>
      </trkpt>
      <trkpt lat="44.39699" lon="1.76991">
        <ele>282.28</ele>
        <time>2023-04-17T14:44:11Z</time>
      </trkpt>
      <trkpt lat="44.39696" lon="1.76988">
        <ele>287.09</ele>
        <time>2023-04-17T14:44:33Z</time>
      </trkpt>
      <trkpt lat="44.39695" lon="1.76986">
        <ele>289.01</ele>
        <time>2023-04-17T14:44:54Z</time>
      </trkpt>
      <trkpt lat="44.39689" lon="1.76973">
        <ele>294.78</ele>
        <time>2023-04-17T14:45:10Z</time>
      </trkpt>
      <trkpt lat="44.39685" lon="1.76967">
        <ele>298.15</ele>
        <time>2023-04-17T14:45:19Z</time>
      </trkpt>
      <trkpt lat="44.39678" lon="1.76958">
        <ele>300.07</ele>
        <time>2023-04-17T14:45:30Z</time>
      </trkpt>
      <trkpt lat="44.39673" lon="1.76963">
        <ele>300.55</ele>
        <time>2023-04-17T14:45:40Z</time>
      </trkpt>
      <trkpt lat="44.39659" lon="1.76976">
        <ele>301.03</ele>
        <time>2023-04-17T14:45:56Z</time>
      </trkpt>
      <trkpt lat="44.39657" lon="1.76976">
        <ele>301.51</ele>
        <time>2023-04-17T14:46:09Z</time>
      </trkpt>
      <trkpt lat="44.39658" lon="1.76976">
        <ele>304.39</ele>
        <time>2023-04-17T14:46:26Z</time>
      </trkpt>
      <trkpt lat="44.39657" lon="1.76976">
        <ele>304.88</ele>
        <time>2023-04-17T14:46:43Z</time>
      </trkpt>
      <trkpt lat="44.39656" lon="1.76978">
        <ele>304.39</ele>
        <time>2023-04-17T14:47:10Z</time>
      </trkpt>
    </trkseg>
  </trk>
</gpx>